[[{"header":{"parameterUnit":"m.s-1","parameterCategory":1,"la1":30.6,"la2":29.2853,"lo1":-89.7004,"lo2":-87.6739,"dy":0.0162,"dx":0.0183,"nx":112,"ny":82,"refTime":"2023-06-16T12:00:00:Z","depth":0,"parameterNumber":2,"parameterNumberName":"U-component_of_WINDS"},"data":[0.0,0.0,0.0,0.0,0.0,0.0,0.0,0.0,0.0,0.0,0.0,0.0,0.0,0.0,0.0,0.0,0.0,0.0,0.0,0.0,0.0,0.0,0.0,0.0,0.0,0.0,0.0,0.0,0.0,0.0,0.0,0.0,0.0,0.0,0.0,0.0,0.0,0.0,0.0,0.0,0.0,0.0,0.0,0.0,0.0,0.0,0.0,0.0,0.0,0.0,0.0,0.0,0.0,0.0,0.0,0.0,0.0,0.0,0.0,0.0,0.0,0.0,0.0,0.0,0.0,0.0,0.0,0.0,0.0,0.0,0.0,0.0,0.0,0.0,0.0,0.0,0.0,0.0,0.0,0.0,0.0,0.0,0.0,0.0,0.0,0.0,0.0,0.0,0.0,0.0,0.0,2.0402,2.0331,1.9892,1.9174,1.8392,1.7368,1.6158,0.0,0.0,0.0,0.0,0.0,0.0,0.0,0.0,0.0,0.0,0.0,0.0,0.0,0.0,0.0,0.0,0.0,0.0,0.0,0.0,0.0,0.0,0.0,0.0,0.0,0.0,0.0,0.0,0.0,0.0,0.0,0.0,0.0,0.0,0.0,0.0,0.0,0.0,0.0,0.0,0.0,0.0,0.0,0.0,0.0,0.0,0.0,0.0,0.0,0.0,0.0,0.0,0.0,0.0,0.0,0.0,0.0,0.0,0.0,0.0,0.0,0.0,0.0,0.0,0.0,0.0,0.0,0.0,0.0,0.0,0.0,0.0,0.0,0.0,0.0,0.0,0.0,0.0,0.0,0.0,0.0,0.0,0.0,0.0,0.0,0.0,0.0,0.0,0.0,0.0,0.0,0.0,0.0,0.0,0.0,0.0,0.0,0.0,0.0,0.0,0.0,0.0,0.0,0.0,2.0775,2.1161,2.0961,2.0444,1.9657,1.8787,1.7674,1.6193,0.0,0.0,0.0,0.0,0.0,0.0,0.0,0.0,0.0,0.0,0.0,0.0,0.0,0.0,0.0,0.0,0.0,0.0,0.0,0.0,0.0,0.0,0.0,0.0,0.0,0.0,0.0,0.0,0.0,0.0,0.0,0.0,0.0,0.0,0.0,0.0,0.0,0.0,0.0,0.0,0.0,0.0,0.0,0.0,0.0,0.0,0.0,0.0,0.0,0.0,0.0,0.0,0.0,0.0,0.0,0.0,0.0,0.0,0.0,0.0,0.0,0.0,0.0,0.0,0.0,0.0,0.0,0.0,0.0,0.0,0.0,0.0,0.0,0.0,0.0,0.0,0.0,0.0,0.0,0.0,0.0,0.0,0.0,0.0,0.0,0.0,0.0,0.0,0.0,0.0,0.0,0.0,0.0,0.0,0.0,0.0,0.0,0.0,0.0,0.0,0.0,0.0,0.0,2.0902,2.1294,2.1565,2.1343,2.0918,2.0253,1.9321,1.8154,1.6659,1.5812,0.0,0.0,0.0,0.0,0.0,0.0,0.0,0.0,0.0,0.0,0.0,0.0,0.0,0.0,0.0,0.0,0.0,0.0,0.0,0.0,0.0,0.0,0.0,0.0,0.0,0.0,0.0,0.0,0.0,0.0,0.0,0.0,0.0,0.0,0.0,0.0,0.0,0.0,0.0,0.0,0.0,0.0,0.0,0.0,0.0,0.0,0.0,0.0,0.0,0.0,0.0,0.0,0.0,0.0,0.0,0.0,0.0,0.0,0.0,0.0,0.0,0.0,0.0,0.0,0.0,0.0,0.0,0.0,0.0,0.0,0.0,0.0,0.0,0.0,0.0,0.0,0.0,0.0,0.0,0.0,0.0,0.0,0.0,0.0,0.0,0.0,0.0,0.0,0.0,0.0,0.0,0.0,0.0,0.0,0.0,0.0,0.0,0.0,0.0,0.0,0.0,0.0,2.164,2.1927,2.2012,2.1807,2.1528,2.0881,1.9758,1.8593,1.7363,1.6204,0.0,0.0,0.0,0.0,0.0,0.0,0.0,0.0,0.0,0.0,0.0,0.0,0.0,0.0,0.0,0.0,0.0,0.0,0.0,0.0,0.0,0.0,0.0,0.0,0.0,0.0,0.0,0.0,0.0,0.0,0.0,0.0,0.0,0.0,0.0,0.0,0.0,0.0,0.0,0.0,0.0,0.0,0.0,0.0,0.0,0.0,0.0,0.0,0.0,0.0,0.0,0.0,0.0,0.0,0.0,0.0,0.0,0.0,0.0,0.0,0.0,0.0,0.0,0.0,0.0,0.0,0.0,0.0,0.0,0.0,0.0,0.0,0.0,0.0,0.0,0.0,0.0,0.0,0.0,0.0,0.0,0.0,0.0,0.0,0.0,0.0,0.0,0.0,0.0,0.0,0.0,0.0,0.0,0.0,0.0,0.0,0.0,0.0,0.0,0.0,0.0,0.0,2.2876,2.3088,2.2998,2.2672,2.2187,2.1447,2.0245,1.911,1.8123,1.6641,0.0,0.0,0.0,0.0,0.0,0.0,0.0,0.0,0.0,0.0,0.0,0.0,0.0,0.0,0.0,0.0,0.0,0.0,0.0,0.0,0.0,0.0,0.0,0.0,0.0,0.0,0.0,0.0,0.0,0.0,0.0,0.0,0.0,0.0,0.0,0.0,0.0,0.0,0.0,0.0,0.0,0.0,0.0,0.0,0.0,0.0,0.0,0.0,0.0,0.0,0.0,0.0,0.0,0.0,0.0,0.0,0.0,0.0,0.0,0.0,0.0,0.0,0.0,0.0,0.0,0.0,0.0,0.0,0.0,0.0,0.0,0.0,0.0,0.0,0.0,0.0,0.0,0.0,0.0,0.0,0.0,0.0,0.0,0.0,0.0,0.0,0.0,0.0,0.0,0.0,0.0,0.0,0.0,0.0,0.0,0.0,0.0,0.0,0.0,0.0,0.0,0.0,2.3455,2.3643,0.0,2.331,2.2645,2.1993,2.0755,1.9413,1.821,0.0,0.0,0.0,0.0,0.0,0.0,0.0,0.0,0.0,0.0,0.0,0.0,0.0,0.0,0.0,0.0,0.0,0.0,0.0,0.0,0.0,0.0,0.0,0.0,0.0,0.0,0.0,0.0,0.0,0.0,0.0,0.0,0.0,0.0,0.0,0.0,0.0,0.0,0.0,0.0,0.0,0.0,0.0,0.0,0.0,0.0,0.0,0.0,0.0,0.0,0.0,0.0,0.0,0.0,0.0,0.0,0.0,0.0,0.0,0.0,0.0,0.0,0.0,0.0,0.0,0.0,0.0,0.0,0.0,0.0,0.0,0.0,0.0,0.0,0.0,0.0,0.0,0.0,0.0,0.0,0.0,0.0,0.0,0.0,0.0,0.0,0.0,0.0,0.0,0.0,0.0,0.0,0.0,0.0,0.0,0.0,0.0,0.0,0.0,0.0,0.0,0.0,2.4327,2.4391,2.448,0.0,2.4346,2.3579,2.2804,2.1367,1.9947,1.8508,0.0,0.0,0.0,0.0,0.0,0.0,0.0,0.0,0.0,0.0,0.0,0.0,0.0,0.0,0.0,0.0,0.0,0.0,0.0,0.0,0.0,0.0,0.0,0.0,0.0,0.0,0.0,0.0,0.0,0.0,0.0,0.0,0.0,0.0,0.0,0.0,0.0,0.0,0.0,0.0,0.0,0.0,0.0,0.0,0.0,0.0,0.0,0.0,0.0,0.0,0.0,0.0,0.0,0.0,0.0,0.0,0.0,0.0,0.0,0.0,0.0,0.0,0.0,0.0,0.0,0.0,0.0,0.0,0.0,0.0,0.0,0.0,0.0,0.0,0.0,0.0,0.0,0.0,0.0,0.0,0.0,0.0,0.0,0.0,0.0,0.0,0.0,0.0,0.0,0.0,0.0,0.0,0.0,0.0,0.0,0.0,0.0,0.0,0.0,0.0,0.0,0.0,2.5554,2.582,2.6005,2.6108,2.5787,2.5016,2.3879,2.2311,2.0748,0.0,0.0,0.0,0.0,0.0,0.0,0.0,0.0,0.0,0.0,0.0,0.0,0.0,0.0,0.0,0.0,0.0,0.0,0.0,0.0,0.0,0.0,0.0,0.0,0.0,0.0,0.0,0.0,0.0,0.0,0.0,0.0,0.0,0.0,0.0,0.0,0.0,0.0,0.0,0.0,0.0,0.0,0.0,0.0,0.0,0.0,0.0,0.0,0.0,0.0,0.0,0.0,0.0,0.0,0.0,0.0,0.0,0.0,0.0,0.0,0.0,0.0,0.0,0.0,0.0,0.0,0.0,0.0,0.0,0.0,0.0,0.0,0.0,0.0,0.0,0.0,0.0,0.0,0.0,0.0,0.0,0.0,0.0,0.0,0.0,0.0,0.0,0.0,0.0,0.0,0.0,0.0,0.0,0.0,0.0,0.0,0.0,0.0,0.0,0.0,0.0,0.0,0.0,2.647,2.7052,2.7301,2.6892,2.6367,2.5599,2.433,2.2479,2.0891,1.986,0.0,0.0,0.0,0.0,0.0,0.0,0.0,0.0,0.0,0.0,0.0,0.0,0.0,0.0,0.0,0.0,0.0,0.0,0.0,0.0,0.0,0.0,0.0,0.0,0.0,0.0,0.0,0.0,0.0,0.0,0.0,0.0,0.0,0.0,0.0,0.0,0.0,0.0,0.0,0.0,0.0,0.0,0.0,0.0,0.0,0.0,0.0,0.0,0.0,0.0,0.0,0.0,0.0,0.0,0.0,0.0,0.0,0.0,0.0,0.0,0.0,0.0,0.0,0.0,0.0,0.0,0.0,0.0,0.0,0.0,0.0,0.0,0.0,0.0,0.0,0.0,0.0,0.0,0.0,0.0,0.0,0.0,0.0,0.0,0.0,0.0,0.0,0.0,0.0,0.0,0.0,0.0,0.0,0.0,0.0,0.0,0.0,0.0,0.0,0.0,0.0,0.0,2.7817,2.8139,2.8268,2.8082,2.7236,2.6144,2.4741,2.2982,2.1309,1.9945,0.0,0.0,0.0,0.0,0.0,0.0,0.0,0.0,0.0,0.0,0.0,0.0,0.0,0.0,0.0,0.0,0.0,0.0,0.0,0.0,0.0,0.0,0.0,0.0,0.0,0.0,0.0,0.0,0.0,0.0,0.0,0.0,0.0,0.0,0.0,0.0,0.0,0.0,0.0,0.0,0.0,0.0,0.0,0.0,0.0,0.0,0.0,0.0,0.0,0.0,0.0,0.0,0.0,0.0,0.0,0.0,0.0,0.0,0.0,0.0,0.0,0.0,0.0,0.0,0.0,0.0,0.0,0.0,0.0,0.0,0.0,0.0,0.0,0.0,0.0,0.0,0.0,0.0,0.0,0.0,0.0,0.0,0.0,0.0,0.0,0.0,0.0,0.0,0.0,0.0,0.0,0.0,0.0,0.0,0.0,0.0,0.0,0.0,0.0,0.0,0.0,0.0,2.9343,2.9195,2.9056,2.9431,2.8272,2.6827,2.5326,2.3777,2.1944,1.9853,0.0,0.0,0.0,0.0,0.0,0.0,0.0,0.0,0.0,0.0,0.0,0.0,0.0,0.0,0.0,0.0,0.0,0.0,0.0,0.0,0.0,0.0,0.0,0.0,0.0,0.0,0.0,0.0,0.0,0.0,0.0,0.0,0.0,0.0,0.0,0.0,0.0,0.0,0.0,0.0,0.0,0.0,0.0,0.0,0.0,0.0,0.0,0.0,0.0,0.0,0.0,0.0,0.0,0.0,0.0,0.0,0.0,0.0,0.0,0.0,2.6892,0.0,0.0,0.0,0.0,0.0,0.0,0.0,0.0,0.0,0.0,0.0,0.0,0.0,0.0,0.0,0.0,0.0,0.0,0.0,0.0,0.0,0.0,0.0,0.0,0.0,0.0,0.0,0.0,0.0,0.0,0.0,0.0,0.0,0.0,0.0,0.0,0.0,0.0,0.0,0.0,0.0,3.0183,3.0407,3.041,3.0186,2.925,2.7977,2.6251,2.4369,2.2455,2.0671,1.8609,0.0,0.0,0.0,0.0,0.0,0.0,0.0,0.0,0.0,0.0,0.0,0.0,0.0,0.0,0.0,0.0,0.0,0.0,0.0,0.0,0.0,0.0,0.0,0.0,0.0,0.0,0.0,0.0,0.0,0.0,0.0,0.0,0.0,0.0,0.0,0.0,0.0,0.0,0.0,0.0,0.0,0.0,0.0,0.0,0.0,0.0,0.0,0.0,0.0,0.0,0.0,0.0,0.0,0.0,0.0,0.0,0.0,0.0,0.0,0.0,2.744,0.0,0.0,0.0,0.0,0.0,0.0,0.0,0.0,0.0,0.0,0.0,0.0,0.0,0.0,0.0,0.0,0.0,0.0,0.0,0.0,0.0,0.0,0.0,0.0,0.0,0.0,0.0,0.0,0.0,0.0,0.0,0.0,0.0,0.0,0.0,0.0,0.0,0.0,0.0,0.0,3.0905,3.1311,3.1442,3.1015,2.9964,2.8509,2.6842,2.5016,2.303,2.1075,1.9223,0.0,0.0,0.0,0.0,0.0,0.0,0.0,0.0,0.0,0.0,0.0,0.0,0.0,0.0,0.0,0.0,0.0,0.0,0.0,0.0,0.0,0.0,0.0,0.0,0.0,0.0,0.0,0.0,0.0,0.0,0.0,0.0,0.0,0.0,0.0,0.0,0.0,0.0,0.0,0.0,0.0,0.0,0.0,0.0,0.0,0.0,0.0,0.0,0.0,0.0,0.0,0.0,0.0,0.0,0.0,3.2517,3.2302,3.2373,3.2522,3.0507,2.8915,2.7683,0.0,0.0,0.0,0.0,0.0,0.0,0.0,0.0,0.0,0.0,0.0,0.0,0.0,0.0,0.0,0.0,0.0,0.0,0.0,0.0,0.0,0.0,0.0,0.0,0.0,3.182,3.1867,0.0,0.0,0.0,0.0,0.0,0.0,0.0,0.0,0.0,0.0,0.0,0.0,3.1705,3.1913,3.1978,3.1785,3.0303,2.8769,2.7051,2.5417,2.3565,2.1338,2.0028,1.8354,0.0,0.0,0.0,0.0,0.0,0.0,0.0,0.0,0.0,0.0,0.0,0.0,0.0,0.0,0.0,0.0,0.0,0.0,0.0,0.0,0.0,0.0,0.0,0.0,0.0,0.0,0.0,0.0,0.0,0.0,0.0,0.0,1.2326,1.3655,0.0,0.0,0.0,0.0,0.0,0.0,0.0,0.0,0.0,0.0,0.0,0.0,0.0,0.0,3.2946,3.3096,3.357,3.4404,3.4404,3.42,3.3753,3.3522,3.3306,3.3086,3.261,0.0,2.97,2.8305,0.0,0.0,0.0,0.0,0.0,0.0,0.0,0.0,0.0,0.0,0.0,0.0,0.0,0.0,0.0,0.0,0.0,0.0,0.0,0.0,0.0,0.0,3.2466,3.3677,3.3633,3.3339,0.0,3.2053,3.0593,3.0228,0.0,0.0,0.0,0.0,0.0,0.0,0.0,0.0,3.2878,3.2203,3.1727,3.2195,3.0612,2.884,2.7292,2.5627,2.3849,2.1953,2.0286,1.8755,1.7472,1.5921,0.0,0.0,0.0,0.0,0.0,0.0,0.0,0.0,0.0,0.0,0.0,0.0,0.0,0.0,0.0,0.0,0.0,0.0,0.0,0.0,0.0,0.0,0.0,0.0,0.0,0.0,0.0,0.0,0.0,1.1154,1.2477,1.3567,1.4849,1.626,0.0,0.0,0.0,0.0,0.0,0.0,0.0,0.0,0.0,3.1177,3.2319,3.341,3.4479,3.4508,3.5019,3.5996,3.5825,3.5741,3.5821,3.5423,3.5106,3.4548,3.4176,3.3219,3.1829,3.02,2.8745,2.7482,0.0,0.0,0.0,0.0,0.0,2.4987,2.5209,0.0,0.0,0.0,0.0,0.0,0.0,0.0,0.0,0.0,0.0,0.0,0.0,0.0,0.0,3.43,3.4272,3.4019,3.3778,3.2803,3.1837,0.0,3.1232,3.0931,3.1087,0.0,0.0,0.0,0.0,0.0,3.2558,3.238,3.2088,3.1811,3.0397,2.8894,2.7419,2.5937,2.4258,2.2384,2.0861,1.9384,1.7714,1.6393,1.4969,0.0,0.0,0.0,0.0,0.0,0.0,0.0,0.0,0.0,0.0,0.0,0.0,0.0,0.0,0.0,0.0,0.0,0.0,0.0,0.0,0.0,0.0,0.0,0.0,0.0,0.0,0.0,0.0,1.1352,1.2411,1.352,1.4985,1.6593,0.0,0.0,0.0,0.0,0.0,0.0,2.9214,3.1265,3.2574,3.2844,3.4347,3.5466,3.6101,3.6057,3.6531,3.7368,3.7139,3.7162,3.7456,3.6979,3.6571,3.6156,3.552,3.4607,3.3463,3.1638,3.0032,2.8579,2.7698,2.6989,0.0,2.6043,2.5923,2.5923,2.5923,2.5923,2.5995,2.5995,0.0,2.6572,2.6881,0.0,0.0,0.0,0.0,3.2064,3.3005,0.0,3.4767,3.4846,3.4669,3.4392,3.3857,3.327,3.2723,0.0,3.187,3.1589,3.1546,0.0,0.0,0.0,0.0,3.207,3.2159,3.2241,3.2027,3.1287,3.0077,2.879,2.7488,2.5967,2.4368,2.2768,2.1339,1.9818,1.8064,1.6775,1.5518,1.4171,0.0,0.0,0.0,0.0,0.0,0.0,0.0,0.0,0.0,0.0,0.0,0.0,0.0,0.0,0.0,0.0,0.0,0.0,0.0,0.0,0.0,0.0,0.0,0.0,0.0,0.0,0.0,0.0,0.0,1.3989,1.5541,0.0,0.0,0.0,0.0,2.5692,2.7434,2.9083,3.0834,3.3301,3.4734,3.4955,3.6542,3.7739,3.8367,3.8161,3.8234,3.8664,3.8447,3.831,3.8117,3.7699,3.7419,3.7392,3.6625,3.5536,3.4162,3.2201,3.1008,3.0227,2.8562,2.7762,2.7536,2.6629,2.6288,2.6288,2.6288,2.6387,2.6538,2.6538,2.71,2.7892,2.8272,2.9167,0.0,0.0,3.1745,3.2962,3.4001,3.4543,3.4969,3.5774,3.52,3.4545,3.4465,3.3648,3.2724,0.0,3.144,3.1407,3.1478,0.0,3.1552,3.1855,3.1783,3.1769,3.2152,3.152,3.1166,3.1179,2.9897,2.8577,2.7314,2.5515,2.4171,2.3121,2.1383,1.9893,1.8824,1.7441,1.6062,1.4685,1.3804,0.0,0.0,0.0,0.0,0.0,0.0,0.0,0.0,0.0,0.0,0.0,0.0,0.0,0.0,0.0,0.0,0.0,0.0,0.0,0.0,0.0,0.0,0.0,0.0,0.0,0.0,0.0,0.0,1.4548,1.6181,0.0,0.0,2.1981,2.4199,2.7092,2.8745,3.0603,3.2769,3.4714,3.5976,3.6452,3.7578,3.8577,3.936,3.8721,3.8893,3.9787,3.8974,3.8718,3.8929,3.858,3.7987,3.7403,3.6964,3.6077,3.4663,3.347,3.2052,3.0572,2.9609,2.8974,2.848,2.8187,2.7952,2.7787,2.7787,2.7975,2.814,2.8328,2.8692,2.908,2.922,2.9915,3.0712,3.1283,3.2093,3.2959,3.3745,3.4205,3.4569,3.4996,3.475,3.4359,3.4055,3.3458,3.2686,3.179,3.1473,3.1412,3.1394,3.1119,3.1074,3.1455,3.144,3.1473,3.1593,3.1016,3.0275,2.9584,2.8521,2.729,2.6123,2.5094,2.3965,2.2792,2.1554,2.0298,1.8955,1.7881,1.6654,1.5199,1.4222,1.3301,0.0,0.0,0.0,0.0,0.0,0.0,0.0,0.0,0.0,0.0,0.0,0.0,0.0,0.0,0.0,0.0,0.0,0.0,0.0,0.0,0.0,0.0,0.0,0.0,0.0,0.0,1.2904,1.4604,1.6494,1.8644,2.0864,2.2941,2.5308,2.8096,2.994,3.2007,3.4321,3.6068,3.7439,3.8308,3.9282,4.0067,4.0716,3.9953,4.0003,4.0896,3.9864,3.9509,3.9708,3.913,3.8474,3.7742,3.7079,3.6146,3.5067,3.4244,3.2835,3.1182,3.039,2.9816,2.9358,2.8838,2.8551,2.8377,2.8377,2.8464,2.8551,2.8994,2.9265,2.9514,2.9764,3.0271,3.0918,3.1427,3.1991,3.2604,3.3315,3.36,3.3926,3.4246,3.3935,3.3496,3.3351,3.2706,3.2117,3.1622,3.1461,3.1253,3.1253,3.0832,3.0618,3.0822,3.0735,3.0574,3.0489,2.9971,2.9221,2.8228,2.732,2.6268,2.5205,2.4277,2.35,2.2541,2.1413,2.0274,1.9141,1.8144,1.7074,1.5704,1.45,1.3497,1.2869,0.0,0.0,0.0,0.0,0.0,0.0,0.0,0.0,0.0,0.0,0.0,0.0,0.0,0.0,0.0,0.0,0.0,0.0,0.0,0.0,0.0,0.0,0.0,1.0173,1.124,1.2625,1.4268,1.6464,1.8835,2.1328,2.3681,2.6249,2.8871,3.0903,3.3039,3.5437,3.7469,3.9231,4.0458,4.1605,4.2328,4.2598,4.2091,4.1819,4.1819,4.1082,4.071,4.0589,3.9374,3.8736,3.8616,3.7108,3.6107,3.5419,3.4457,3.3387,3.2301,3.0836,3.0171,3.0056,2.8566,2.8053,2.8053,2.8053,2.7855,2.7745,2.8366,2.8832,2.9135,2.9808,3.0392,3.0793,3.0793,3.1345,3.2059,3.2532,3.2779,3.302,3.3509,3.2792,3.1969,3.2211,3.1554,3.1037,3.1225,3.1196,3.1052,3.0791,3.046,3.0238,2.9925,2.957,0.0,2.9144,2.8602,2.803,2.7469,2.652,2.5529,2.4564,2.3305,2.2393,2.2025,2.0889,1.9879,1.9337,1.8369,1.7399,1.6195,1.4802,1.3655,1.2869,0.0,0.0,0.0,0.0,0.0,0.0,0.0,0.0,0.0,0.0,0.0,0.0,0.0,0.0,0.0,0.0,0.0,0.0,0.0,0.0,0.0,0.0,0.8721,0.9979,1.1308,1.284,1.4642,1.6885,1.9223,2.1852,2.4399,2.7085,2.9842,3.2107,3.4379,3.6554,3.8089,3.9506,4.0626,4.1462,4.2223,4.297,4.2223,4.204,4.2482,4.13,4.0522,4.0118,3.9485,3.8833,3.8155,3.7711,3.6848,3.5478,3.4889,3.3866,3.2597,3.1422,3.0656,3.0157,2.951,2.9041,2.8754,2.8924,2.8732,2.8657,2.8957,2.9182,2.9214,2.944,3.0063,3.0708,3.0483,3.1059,3.1721,3.1593,3.1291,3.1065,3.1629,3.0974,3.0325,3.0527,3.043,3.0225,3.0081,3.0036,3.0125,3.047,3.0258,2.991,2.9562,0.0,0.0,2.8063,2.721,2.6282,2.5546,2.4456,2.3589,2.2856,2.227,2.1603,0.0,2.0473,1.9905,1.9198,1.8521,1.7443,1.5751,1.4919,1.4114,0.0,0.0,0.0,0.0,0.0,0.0,0.0,0.0,0.0,0.0,0.0,0.0,0.0,0.0,0.0,0.0,0.0,0.0,0.0,0.0,0.0,0.0,0.7591,0.8228,0.9484,1.0958,1.2763,1.4724,1.7079,1.9542,2.2182,2.4844,2.7592,3.0257,3.2625,3.4899,3.7059,3.8515,3.992,4.1245,4.1909,4.2571,4.3277,4.2758,4.2571,4.2834,4.1719,4.0861,4.0473,3.9628,3.8837,0.0,3.7392,3.6521,3.5551,3.4713,3.3697,0.0,0.0,0.0,0.0,0.0,2.8807,2.8628,2.8587,2.8387,2.8167,2.8615,2.8635,2.849,2.8854,2.9338,2.9742,2.9507,2.9779,3.0107,3.0063,2.9653,2.9316,2.9623,2.9137,2.8564,2.8607,2.8653,2.8623,2.8659,0.0,0.0,2.9422,2.947,2.947,2.9107,2.8864,2.8201,0.0,2.6019,2.4967,2.3713,2.2716,2.1713,2.0829,2.0449,0.0,0.0,0.0,1.9047,1.8548,1.7925,0.0,0.0,0.0,1.5028,0.0,0.0,0.0,0.0,1.1591,1.0689,0.0,0.0,0.0,0.0,0.0,0.0,0.0,0.0,0.0,0.0,0.0,0.0,0.0,0.0,0.0,0.0,0.7152,0.7656,0.895,1.0459,1.2376,1.4551,1.697,1.9492,2.2225,2.4994,2.7633,3.0127,3.2533,3.4918,3.7068,0.0,0.0,0.0,0.0,4.3257,4.3616,4.3451,4.3285,4.2993,4.2179,4.1555,4.1201,3.9652,3.8664,3.8259,3.6645,3.5709,3.5248,3.42,3.2937,3.1761,3.0734,3.0088,2.974,2.8492,2.7945,0.0,0.0,0.0,0.0,2.7699,2.7536,2.7341,2.7958,2.8201,2.8238,2.8238,2.8048,2.7815,2.8297,2.7939,2.7441,2.7589,2.7073,2.6688,2.6686,2.6553,2.6559,2.7267,2.7494,2.7527,2.7925,2.8472,2.8922,2.8563,2.8186,0.0,2.6161,2.4967,2.3695,2.2104,0.0,0.0,1.8908,1.8536,1.815,1.7776,1.7776,1.7674,1.7587,1.7088,1.6841,1.6841,1.6188,1.5805,1.5805,1.5192,1.4702,1.4336,1.2544,1.1343,0.0,0.0,0.0,0.0,0.0,0.0,0.0,0.0,0.0,0.0,0.0,0.0,0.0,0.0,0.0,0.5946,0.6517,0.7383,0.8791,1.0137,1.1692,1.3779,1.6571,1.9197,2.1518,2.4418,2.7105,2.9698,3.2839,3.5447,3.7302,3.9355,0.0,4.2346,4.3198,4.3808,4.4111,4.401,4.3909,4.3632,0.0,0.0,4.095,3.991,3.8876,3.77,3.6861,3.5726,3.4397,3.3378,3.1547,2.9186,2.91,2.878,2.8231,2.7709,2.7264,2.6873,2.7101,2.6774,2.6406,2.6537,2.6452,2.6373,2.6284,2.6545,0.0,2.6454,2.6423,2.6318,2.6282,2.5692,2.5162,2.514,2.4843,2.4684,2.4909,2.5069,2.5397,2.5866,2.6377,2.6846,2.6846,2.7665,2.8169,2.779,2.7283,2.6391,2.5029,2.3574,2.2043,2.0615,1.9304,1.8162,1.7389,1.712,1.6732,1.6473,1.6602,1.685,1.7065,1.6838,1.6718,1.6718,1.6409,1.6064,1.5805,1.5431,1.5021,1.4544,1.3126,1.2009,0.0,0.0,0.0,0.0,0.0,0.0,0.0,0.0,0.0,0.0,0.0,0.266,0.0,0.0,0.4487,0.561,0.6273,0.711,0.8629,0.9982,1.1783,1.389,1.6425,1.8976,2.1586,2.4558,2.7314,2.9728,3.2799,3.5287,3.6974,3.9038,4.0631,4.1839,4.2604,4.3127,4.3515,4.3515,4.3308,4.2919,4.2157,4.1367,4.0343,3.908,3.7949,3.6818,3.5688,3.4449,3.3077,3.1236,2.9298,2.7373,2.6762,2.6659,2.7012,2.6677,2.6229,2.5683,2.5646,2.5124,2.4614,2.4724,2.4601,2.4396,2.4332,2.4506,2.4696,2.4747,2.4409,2.4204,2.426,2.3672,2.3206,2.2992,2.2762,2.273,2.2786,2.2965,2.337,2.4061,2.4487,2.4873,2.5442,2.5957,2.6514,2.7052,2.666,2.5689,2.4025,2.266,2.1045,1.9224,1.8022,1.6872,1.5834,1.5173,1.4912,1.4912,1.5443,1.5964,1.6494,1.6518,1.6712,1.6829,1.6721,1.6594,1.6316,1.5802,1.5265,1.4677,1.326,1.2119,0.0,0.0,0.0,0.0,0.0,0.0,0.0,0.0,-0.0,0.1054,0.1499,0.2075,0.304,0.3452,0.4012,0.5391,0.5945,0.6772,0.8492,0.9896,1.1797,1.4024,1.6308,1.868,2.1628,2.45,2.7182,2.9617,3.2555,3.4846,3.6462,3.8431,3.9961,4.1171,4.1739,4.2383,4.2889,4.2889,4.2571,4.1954,4.128,4.044,3.9435,3.7897,3.6635,3.5505,3.3642,3.2133,3.0974,2.8634,2.6863,2.5675,2.4309,2.4316,2.4992,2.5127,2.4727,2.4023,2.385,2.3154,2.2377,2.2759,2.2508,2.2072,2.2397,2.2497,2.2427,2.2666,2.2222,2.1746,2.1988,2.1529,2.0882,2.056,2.0585,2.0526,2.0675,2.0737,2.1071,2.1945,2.2271,2.2682,2.3529,2.3802,2.4481,2.5981,2.5981,2.4922,2.298,2.1832,2.0166,1.795,1.6732,1.5434,1.4006,1.335,1.3087,1.3613,1.4277,1.4931,1.5714,1.6234,1.6623,1.6882,1.6915,1.6901,1.6828,1.6082,1.5404,1.4782,1.2995,1.1942,-0.6045,-0.517,-0.4291,-0.3778,-0.304,-0.2271,0.0,0.0,-0.0438,-0.0,0.1025,0.1835,0.2103,0.2883,0.3801,0.4558,0.5293,0.6314,0.8237,0.9441,1.0932,1.316,1.5654,1.8079,2.0915,2.3388,2.5927,2.855,3.1665,3.4126,3.5712,3.8005,3.9895,4.1046,4.1752,4.2451,4.3008,4.2674,4.2227,4.1638,4.0703,3.9522,3.8159,3.681,3.5489,3.3886,3.1165,2.9094,2.7452,2.5951,2.4593,2.339,2.2601,2.17,2.0869,2.2315,2.2245,2.1435,2.1704,2.1162,2.0394,2.0706,2.049,2.0153,2.0047,2.0145,2.0145,2.0182,1.9651,1.8986,1.9009,1.8485,1.8003,1.7812,1.7866,1.793,1.8165,1.8497,1.8787,1.9367,2.0201,2.0906,2.1044,2.1596,2.2696,2.4495,2.436,2.3579,2.1899,2.0497,1.8847,1.6915,1.5443,1.3875,1.2173,1.1644,1.1776,1.2437,1.3218,1.4006,1.4931,1.5714,1.6234,1.6504,1.6692,1.6807,1.6828,1.5962,1.5211,1.4718,1.2749,1.1406,-0.5574,-0.4949,0.0,0.0,-0.3242,-0.2541,-0.2114,-0.1693,-0.1147,-0.0233,0.0353,0.0951,0.181,0.2587,0.3394,0.0,0.5049,0.6288,0.77,0.9036,1.067,1.2946,1.4818,1.7217,2.0073,2.3091,2.5845,2.795,3.0972,3.3355,3.4841,3.6859,3.841,3.9732,4.0176,4.0755,4.1353,4.1009,4.0524,3.9919,3.898,3.7777,3.6359,3.4776,3.2686,3.0039,2.8144,2.6384,2.473,2.3588,2.2309,2.1032,2.0253,1.9209,1.8102,2.0255,2.0414,1.9435,1.9546,1.8911,1.7904,1.7984,1.7651,1.7139,1.7109,1.7141,1.7162,1.7161,1.6646,1.6265,1.6115,1.5728,1.5338,1.5429,1.5307,1.5334,1.5557,1.5858,1.6141,1.6564,1.7409,1.811,1.8659,1.9077,1.9634,2.0467,2.1445,2.1623,2.0414,1.9037,1.7224,1.4679,1.321,1.2041,1.0982,1.0717,1.085,1.138,1.2305,1.3227,1.4277,1.4931,1.5643,1.6308,1.6257,1.6161,1.6274,1.5137,1.4309,1.3507,1.1729,1.0011,-0.526,0.0,0.0,-0.4009,-0.3297,-0.267,-0.246,-0.2132,-0.1674,-0.06,-0.0121,0.0368,0.1487,0.2388,0.3073,0.3937,0.5017,0.6109,0.7369,0.8611,1.027,1.2523,1.4244,1.6315,1.9111,2.2508,2.5333,2.7148,3.0001,3.2237,3.3611,3.5253,3.6603,3.7812,3.8149,3.8484,3.9075,3.8744,3.8246,3.7626,3.666,3.5417,3.4033,3.1841,2.92,2.6184,2.5153,2.3681,2.2042,2.0857,1.9663,1.8329,1.7669,1.6591,1.5605,1.726,1.7511,1.7145,1.7145,1.6315,1.5245,1.5301,1.4773,1.4096,1.4147,1.4026,1.3913,1.3899,1.366,1.3271,1.3113,1.2866,1.2588,1.2588,1.2588,1.2588,1.2588,1.3016,1.3444,1.3721,1.4583,1.5434,1.599,1.6554,1.6826,1.6767,1.8089,1.897,1.8519,1.7166,1.5205,1.2568,1.1372,1.0452,0.9788,0.9788,0.9921,1.0319,1.138,1.246,1.369,1.4358,1.512,1.5864,1.5654,1.5419,1.5302,1.4238,1.32,1.2029,1.0286,0.875,-0.5324,0.0,-0.4398,-0.4193,-0.3523,-0.2846,-0.2812,-0.2466,-0.1858,-0.1131,-0.0505,0.0126,0.101,0.2044,0.298,0.368,0.4663,0.5912,0.7245,0.8547,0.998,1.188,1.3942,1.5967,0.0,2.0884,2.3975,2.6023,2.8443,3.0419,3.1854,3.3253,3.4363,3.5355,3.5683,3.6051,3.6417,3.6051,3.556,3.4923,3.3928,3.2543,3.0771,2.7587,2.5145,2.3392,2.1923,2.0575,1.9142,1.7658,1.6446,1.5362,1.4692,1.3738,1.265,1.2361,1.3183,1.4411,1.4411,1.3464,1.2268,1.2417,1.1769,1.0812,1.1096,1.0843,1.055,1.0556,1.0269,0.9988,0.9994,0.9712,0.9435,0.9435,0.9435,0.9435,0.9435,1.0006,1.0581,1.0581,1.1729,1.2873,1.2873,1.3729,1.439,1.4344,1.444,1.5001,1.6089,1.4245,1.2561,1.138,1.0047,0.8984,0.8723,0.859,0.8984,0.9649,1.0578,1.1844,1.3076,1.3763,1.4387,1.4992,1.4769,1.4597,1.4187,1.3231,1.2022,1.0443,0.8967,0.7905,-0.4718,0.0,-0.4257,-0.4108,-0.3674,-0.3224,-0.3038,-0.2523,-0.2008,-0.1767,-0.0877,0.0125,0.0883,0.1789,0.2593,0.3288,0.4264,0.5393,0.666,0.7927,0.9371,1.1337,1.299,0.0,0.0,0.0,0.0,2.4167,2.6455,2.818,2.9361,3.0789,3.1798,3.267,3.2922,3.3175,3.3281,3.3029,3.2397,3.1359,2.9405,2.7702,2.6142,2.4125,2.2167,2.0299,1.9347,1.7919,1.6331,1.5356,1.4238,1.3122,1.2418,1.1491,1.0437,1.0293,0.9908,0.9646,1.1094,1.078,0.974,0.9632,0.8929,0.8366,0.9141,0.8714,0.8121,0.7693,0.7548,0.7693,0.7847,0.7851,0.7711,0.7715,0.7272,0.6684,0.6684,0.7259,0.7837,0.8131,0.8992,0.9712,1.0006,1.0868,1.1355,1.1392,1.2596,1.3663,1.3544,1.2094,1.0704,0.9915,0.8717,0.8051,0.7922,0.7655,0.7917,0.8851,0.96,1.0476,1.1603,1.2119,1.2666,1.3245,1.3029,1.2692,1.2379,1.1435,1.0203,0.8967,0.7905,0.6348,-0.44,-0.434,-0.4273,-0.3992,-0.3789,-0.3447,-0.3112,-0.27,-0.2162,-0.2037,-0.1132,-0.0125,0.0505,0.1534,0.2334,0.3027,0.4001,0.4999,0.6161,0.7296,0.8623,1.0505,1.1705,1.3051,0.0,0.0,0.0,2.2271,2.4167,2.5651,2.6823,2.7883,2.8804,2.9422,2.957,2.97,2.9535,2.9292,2.8491,2.7158,2.504,2.3297,2.1808,2.0431,1.8765,1.7097,1.6188,1.4945,1.3387,1.2583,1.1735,1.0723,0.9849,0.9171,0.835,0.8355,0.7651,0.7073,0.8459,0.8564,0.7751,0.6982,0.6101,0.5377,0.5963,0.5525,0.4796,0.4509,0.4509,0.4654,0.4802,0.495,0.495,0.4953,0.4369,0.3928,0.3928,0.4654,0.5235,0.5528,0.6543,0.7263,0.7263,0.7926,0.854,0.8815,0.9875,1.0658,1.0969,1.0035,0.9111,0.8451,0.7517,0.6982,0.6987,0.6719,0.7,0.7978,0.8455,0.9211,1.0397,1.077,1.1161,1.1733,1.1166,1.0785,1.0593,0.9441,0.8338,0.7412,0.6162,0.4261,-0.4407,-0.4324,-0.4357,-0.4101,-0.3871,-0.3498,-0.3154,-0.2869,-0.2451,-0.2061,-0.1529,-0.0883,0.0,0.0,0.2203,0.276,0.3601,0.4732,0.5758,0.666,0.7869,0.0,0.0,0.0,0.0,0.0,0.0,1.9773,0.0,2.2942,2.4003,2.4829,2.5368,2.574,2.574,2.5606,2.5204,2.5069,2.4111,2.233,2.0983,1.9472,1.7949,1.6564,1.5026,1.3611,1.2627,1.1384,1.0222,0.9601,0.89,0.8145,0.7398,0.6653,0.6204,0.6211,0.6063,0.6053,0.6567,0.6385,0.5779,0.4387,0.3057,0.2037,0.1601,0.1311,0.102,0.102,0.102,0.102,0.102,0.102,0.102,0.102,0.102,0.102,0.102,0.204,0.2912,0.2912,0.4369,0.5389,0.4657,0.527,0.6016,0.6426,0.6009,0.6305,0.8174,0.8041,0.7646,0.6982,0.618,0.5778,0.5778,0.5781,0.6088,0.6987,0.741,0.8193,0.9536,0.9547,0.9752,1.0161,0.9435,0.8858,0.8569,0.7417,0.6601,0.5948,0.3763,0.1677,-0.4116,-0.417,-0.4226,-0.4174,-0.4063,-0.3934,-0.3687,-0.3258,-0.283,-0.2162,-0.1883,-0.1367,0.0,0.0,0.0,0.2205,0.3179,0.0,0.514,0.6008,0.0,0.794,0.0,0.9574,1.0287,1.1005,0.0,0.0,1.7077,1.9333,1.9877,2.0845,2.1383,2.1521,2.1795,2.1645,2.0946,1.983,1.8999,1.8186,1.6803,1.5605,1.4627,1.316,1.1904,1.1032,0.9882,0.885,0.7963,0.7089,0.68,0.6808,0.6204,0.4869,0.3373,0.3373,0.2622,0.1551,0.1378,0.1958,0.267,0.1478,0.0294,-0.0728,-0.1164,-0.131,-0.1602,-0.233,-0.2039,-0.1456,-0.1456,-0.1165,-0.1165,-0.2039,-0.1894,-0.1457,-0.1457,-0.0729,-0.0,0.0291,0.1164,0.2037,0.2474,0.2584,0.2828,0.3221,0.317,0.3937,0.6309,0.6042,0.551,0.5376,0.4705,0.4437,0.4702,0.4479,0.4786,0.5895,0.6151,0.6661,0.7558,0.7343,0.7246,0.7417,0.6978,0.6543,0.6112,0.5883,0.4909,0.3313,0.2136,0.0463,-0.4057,-0.412,-0.418,-0.4372,-0.4499,-0.435,-0.3952,-0.3761,-0.3313,-0.2527,-0.2245,0.0,-0.0987,0.0,0.0,0.0,0.0,0.0,0.4324,0.4905,0.5517,0.0,0.6982,0.0,0.8574,0.9008,0.9435,0.0,1.3263,1.553,1.6093,1.6927,1.7248,1.7339,1.7621,1.7379,1.6615,1.5345,1.4483,1.3762,1.27,1.1724,1.0853,1.0351,0.965,0.876,0.0,0.7161,0.5949,0.4905,0.4302,0.4151,0.3536,0.247,0.1242,0.0466,-0.0468,-0.1566,-0.2956,-0.3217,-0.3006,-0.2084,-0.2658,-0.3813,-0.408,-0.4071,-0.4218,-0.4802,-0.4509,-0.4073,-0.3928,-0.3637,-0.3637,-0.4075,-0.3932,-0.3496,-0.3352,-0.3061,-0.2768,-0.2912,-0.1892,-0.0873,-0.0437,-0.0,0.0427,0.0707,0.0698,0.1103,0.2598,0.3111,0.336,0.3226,0.3109,0.3121,0.3392,0.3437,0.3889,0.4469,0.4961,0.559,0.6342,0.6239,0.5974,0.568,0.5386,0.4816,0.3965,0.3701,0.2847,0.122,0.0307,-0.1397,-0.4112,-0.4174,-0.4372,-0.4827,-0.4793,-0.4741,-0.4338,-0.4246,-0.3907,-0.3273,0.0,-0.2219,-0.2096,-0.0999,0.0127,0.0772,0.0,0.2274,0.3205,0.3505,0.3822,0.4646,0.466,0.5244,0.6716,0.6865,0.7011,0.7019,0.9163,1.1155,1.2731,1.3182,1.3259,1.3245,1.3107,1.2882,1.2437,1.1716,1.0828,0.9777,0.889,0.7999,0.6951,0.7427,0.7137,0.6387,0.0,0.0,0.4176,0.2656,0.1726,0.1255,0.0471,-0.0157,-0.0941,-0.251,-0.345,-0.4229,-0.6427,-0.8092,-0.8913,-0.5706,-0.5654,-0.6814,-0.6873,-0.6982,-0.6974,-0.6974,-0.6974,-0.6829,-0.6398,-0.6253,-0.6108,-0.5822,-0.5677,-0.5531,-0.5098,-0.5101,-0.5247,-0.5832,-0.4662,-0.3494,-0.3348,-0.2454,-0.1718,-0.1715,-0.1697,-0.1684,-0.1681,-0.0,0.1081,0.0811,0.1366,0.1789,0.1789,0.237,0.2825,0.2857,0.3582,0.4325,0.5101,0.5104,0.4816,0.409,0.4092,0.3233,0.1934,0.1342,0.0604,-0.0616,-0.1699,-0.3578,-0.4511,-0.4601,-0.4827,-0.5242,-0.5189,-0.5119,-0.5059,-0.4725,0.0,0.0,-0.346,-0.3086,-0.259,-0.1749,-0.1141,-0.0901,0.0,0.0,0.0,0.0,0.1698,0.0,0.233,0.2192,0.1772,0.0,0.0,0.0,0.0,0.0,0.9736,1.0577,1.0339,0.9138,0.8845,0.9164,0.9949,0.8905,0.8459,0.8615,0.5641,0.4137,0.3835,0.3256,0.2961,0.2806,0.0,0.0,0.1252,0.0313,-0.0471,-0.1099,-0.1727,-0.3139,-0.5022,-0.6271,-0.6893,-0.7509,-0.891,-0.9987,-1.0412,-0.8125,-0.8131,-0.9029,-0.9296,-0.9518,-0.9729,-0.9729,-0.9729,-0.9585,-0.9296,-0.9002,-0.8569,-0.8136,-0.7847,-0.7562,-0.7131,-0.6841,-0.6551,-0.6406,-0.6112,-0.5677,-0.495,-0.4651,-0.4338,-0.4009,-0.3994,-0.3971,-0.4068,-0.2092,-0.0834,-0.0834,-0.0418,-0.014,-0.014,0.0283,0.0713,0.1,0.1155,0.1454,0.204,0.1749,0.1465,0.1184,0.0592,0.0149,-0.0151,-0.0762,-0.1688,-0.262,-0.3895,-0.5198,-0.4643,-0.4873,-0.5235,-0.5464,-0.5657,-0.5702,-0.562,0.0,0.0,0.0,-0.4264,-0.3778,-0.3534,-0.2942,0.0,-0.2052,0.0,0.0,0.0,0.0,0.0,0.0145,-0.0,-0.0442,0.0,0.0,0.0,0.0,0.0,0.0,0.0,0.5597,0.548,0.4717,0.4902,0.5075,0.5075,0.4645,0.4039,0.3576,0.1888,0.095,0.0792,0.0159,-0.0,-0.016,0.0,0.0,-0.2556,-0.2875,-0.3516,-0.3999,-0.4316,-0.5271,-0.6705,-0.8291,-0.9356,-1.0398,-1.1953,-1.3148,-1.3984,-1.3435,-1.2498,-1.1722,-1.2536,-1.2751,-1.2823,-1.2742,-1.2576,-1.2272,-1.1756,-1.1305,-1.0731,-1.0305,-0.9729,-0.9296,-0.9152,-0.8724,-0.8435,-0.8285,-0.7851,-0.7412,-0.7123,-0.6692,-0.6391,-0.621,-0.5915,-0.5904,-0.5866,-0.4858,-0.398,-0.3085,-0.2538,-0.2266,-0.1983,-0.1864,-0.1734,-0.1589,-0.1598,-0.1457,-0.1311,-0.1467,-0.1624,-0.1635,-0.2542,-0.2868,-0.2904,-0.3535,-0.4174,-0.4823,-0.5513,-0.6511,-0.4878,-0.5243,-0.5604,-0.5923,-0.6106,-0.6285,-0.6189,-0.6085,0.0,-0.5549,-0.5043,-0.4677,-0.4574,-0.4096,-0.3544,0.0,-0.283,-0.2498,0.0,0.0,0.0,0.0,-0.2357,0.0,0.0,0.0,0.0,0.0,0.0,0.0,0.0,-0.0154,0.031,0.0311,0.0942,0.1105,0.0473,0.0319,-0.048,-0.1923,-0.1941,-0.2111,-0.2439,-0.2439,-0.2601,-0.2601,0.0,0.0,0.0,-0.5526,-0.6013,-0.6503,-0.682,-0.7298,-0.8424,-1.0351,-1.188,-1.3519,-1.5392,-1.6825,-1.8035,-1.9239,-1.7388,-1.4919,-1.5833,-1.6204,-1.6131,-1.5695,-1.5369,-1.5035,-1.4264,-1.3507,-1.2934,-1.2323,-1.1599,-1.1025,-1.1025,-1.0743,-1.0455,-1.0455,-0.9873,-0.9435,-0.9291,-0.8719,-0.8285,-0.8145,-0.7856,-0.7566,-0.7566,-0.7425,-0.7077,-0.5799,-0.4849,-0.4021,-0.3734,-0.3769,-0.3791,-0.3791,-0.3791,-0.3796,-0.3807,-0.3844,-0.3875,-0.4045,-0.4839,-0.5199,-0.5266,-0.5897,-0.6552,-0.6926,-0.7012,-0.8016,-0.5308,-0.5808,-0.6308,-0.6606,-0.6832,-0.7051,-0.6944,0.0,-0.651,-0.6137,-0.5949,-0.5802,-0.5646,-0.5058,-0.4626,-0.4774,-0.4342,-0.406,0.0,0.0,0.0,-0.4942,0.0,0.0,0.0,0.0,0.0,0.0,0.0,0.0,0.0,-0.5085,-0.4314,-0.3878,-0.2912,-0.2265,-0.2265,-0.2755,-0.4055,-0.6172,-0.5851,-0.5691,-0.5694,-0.5204,-0.5039,-0.5039,0.0,0.0,0.0,-0.633,-0.6978,-0.7791,-0.9074,-1.0201,-1.1641,-1.372,-1.5614,-1.7326,-1.9824,-2.1067,-2.1779,-2.3731,-2.2025,-1.8969,-1.9117,-1.9252,-1.9369,-1.8498,-1.8352,-1.801,-1.6635,-1.629,-1.5812,-1.4491,-1.3603,-1.3039,-1.3039,-1.2753,-1.2316,-1.2029,-1.1886,-1.1599,-1.0881,-1.0737,-1.0449,-0.9735,-0.959,-0.9446,-0.9157,-0.9157,-0.9008,-0.8837,-0.6966,-0.567,-0.5525,-0.495,-0.4519,-0.4519,-0.4519,-0.4689,-0.4744,-0.4752,-0.4807,-0.4913,-0.5685,-0.6186,-0.6108,-0.7125,-0.7957,-0.8758,-0.8861,-0.9931,-0.578,-0.6392,-0.6859,-0.7146,-0.7496,-0.7713,-0.7846,0.0,-0.7438,-0.7364,-0.7026,-0.6749,-0.6744,-0.6405,-0.6129,-0.6131,-0.5863,-0.562,-0.5726,0.0,0.0,0.0,0.0,0.0,0.0,0.0,0.0,0.0,0.0,0.0,0.0,0.0,-0.6784,-0.6492,-0.5518,-0.5194,-0.552,-0.5718,-0.6397,-0.7553,-0.7439,-0.7297,-0.7297,-0.7128,-0.6963,-0.6963,0.0,0.0,0.0,-0.8115,-0.877,-0.9758,-1.1072,-1.254,-1.4164,-1.658,-1.8746,-2.0694,-2.32,-2.4726,-2.5841,-2.7208,-2.7021,-2.5982,-2.3568,-2.268,-2.2288,-2.1837,-2.1219,-2.0432,-1.9459,-1.8289,-1.7028,-1.6224,-1.5542,-1.5044,-1.5044,-1.475,-1.4315,-1.3888,-1.3745,-1.346,-1.2896,-1.2323,-1.2036,-1.1749,-1.1175,-1.0887,-1.0743,-1.0743,-1.0743,-1.0743,-0.8863,-0.7417,-0.7272,-0.6696,-0.6425,-0.618,-0.6183,-0.6219,-0.6301,-0.6351,-0.6405,-0.6466,-0.7285,-0.7825,-0.7918,-0.8749,-0.9755,-1.0622,-1.0751,-1.1691,-0.6319,-0.693,-0.7516,-0.778,-0.8149,-0.8516,0.0,0.0,-0.8443,-0.8469,-0.8076,-0.7783,-0.8067,-0.7746,-0.7611,-0.7567,-0.7365,-0.7298,-0.7179,-0.719,0.0,0.0,0.0,0.0,0.0,0.0,0.0,0.0,0.0,0.0,0.0,0.0,-0.9657,-0.901,-0.8354,-0.8191,-0.8362,-0.8259,-0.8458,-0.8792,-0.8865,-0.8896,-0.8896,-0.8896,-0.8896,0.0,0.0,0.0,0.0,-1.0065,-1.0726,-1.1884,-1.3211,-1.4856,-1.682,-1.941,-2.1712,-2.3938,-2.6607,-2.8256,-2.9498,-3.0543,-3.1236,-3.1203,-2.8319,-2.6675,-2.5387,-2.4647,-2.3336,-2.2214,-2.174,-2.0059,-1.8443,-1.8156,-1.7612,-1.7073,-1.7073,-1.693,-1.6473,-1.5836,-1.5542,-1.5239,-1.4625,-1.4039,-1.3611,-1.3468,-1.2896,-1.2466,-1.2323,-1.2323,-1.2338,-1.2381,-1.1083,-0.9925,-0.906,-0.877,-0.8377,-0.8188,-0.8192,-0.8094,-0.8044,-0.8116,-0.8166,-0.8352,-0.9226,-0.9635,-0.9877,-1.0742,-1.1623,-1.2527,-1.2716,-1.3728,-0.6975,-0.7627,-0.8149,-0.8628,-0.9192,-0.9516,0.0,0.0,-0.9381,-0.9381,-0.9137,-0.9015,-0.9327,-0.9142,-0.8877,-0.8793,-0.8699,-0.8699,-0.8557,-0.8791,0.0,0.0,0.0,0.0,0.0,0.0,0.0,0.0,0.0,0.0,0.0,0.0,-1.3714,-1.1386,-1.1386,-1.1053,-1.0732,-1.0737,-1.0737,-1.0737,-1.0737,-1.0737,-1.0737,-1.0737,0.0,0.0,0.0,0.0,0.0,-1.1902,-1.2899,-1.4217,-1.553,-1.7328,-1.9612,-2.2178,-2.4711,-2.7222,-3.0192,-3.182,-3.2872,-3.4386,-3.412,-3.3221,-3.3238,-3.1364,-2.8819,-2.6881,-2.482,-2.3152,-2.3152,-2.1776,-2.0416,-2.0428,-1.9704,-1.9122,-1.9122,-1.9122,-1.8913,-1.7816,-1.7632,-1.7418,-1.6358,-1.5895,-1.5461,-1.5026,-1.475,-1.4332,-1.3904,-1.3904,-1.3969,-1.414,-1.4156,-1.3429,-1.139,-1.0944,-1.0552,-1.0392,-1.0404,-1.0161,-0.9835,-0.984,-1.0048,-1.0635,-1.1227,-1.1609,-1.2082,-1.2856,-1.3654,-1.4467,-1.4795,-1.5971,-0.7663,-0.8164,-0.8883,-0.9194,-0.9895,-1.0487,-1.08,0.0,-1.0824,-1.0824,-1.0647,-1.0555,-1.0786,-1.0707,-1.0576,-1.0414,-1.0385,-1.0399,-1.027,0.0,0.0,0.0,0.0,0.0,0.0,0.0,0.0,0.0,0.0,0.0,0.0,0.0,0.0,-1.3714,-1.3052,-1.272,-1.2554,-1.2554,-1.2554,-1.2554,-1.2554,-1.2554,-1.2554,-1.2554,0.0,0.0,0.0,0.0,0.0,-1.3556,-1.4548,-1.553,-1.7173,-1.9375,-2.2111,-2.4678,-2.7519,-3.028,-3.2953,-3.4435,-3.5184,-3.5972,-3.5997,-3.5467,-3.448,-3.2351,-2.9929,-2.7821,-2.587,-2.4476,-2.4195,-2.2949,-2.1861,-2.1861,-2.1136,-2.0295,-2.0295,-2.015,-1.9837,-1.9181,-1.9159,-1.8993,-1.8341,-1.7753,-1.7165,-1.702,-1.6585,-1.6158,-1.6013,-1.6013,-1.6031,-1.6095,-1.6104,-1.5225,-1.3311,-1.3015,-1.2635,-1.2189,-1.2052,-1.1967,-1.1651,-1.1959,-1.2179,-1.2487,-1.3326,-1.3929,-1.415,-1.5062,-1.6049,-1.7121,-1.7847,-1.8678,-0.8546,-0.8929,-0.951,-1.0098,-1.0695,0.0,0.0,0.0,-1.2081,-1.2199,-1.2052,-1.1975,-1.2164,-1.2081,-1.1963,-1.184,-1.1791,-1.1834,-1.1814,0.0,0.0,0.0,0.0,0.0,0.0,0.0,0.0,0.0,0.0,0.0,0.0,0.0,0.0,-1.6525,-1.5201,-1.4541,-1.4375,-1.4375,-1.4375,-1.4375,-1.4375,-1.4375,-1.4375,0.0,0.0,0.0,0.0,0.0,0.0,-1.5365,-1.6188,-1.7182,-1.9058,-2.1448,-2.4353,-2.6867,-2.9603,-3.2523,-3.4742,-3.6154,-3.6856,-3.7163,-3.6849,-3.5867,-3.4276,-3.2358,-3.0415,-2.858,-2.6949,-2.5524,-2.5242,-2.4127,-2.3024,-2.3024,-2.2459,-2.1898,-2.1898,-2.1606,-2.1278,-2.088,-2.0869,-2.0543,-2.0016,-1.9268,-1.8831,-1.8685,-1.8102,-1.7809,-1.7809,-1.7809,-1.7839,-1.792,-1.793,-1.7408,-1.6364,-1.5501,-1.4902,-1.4326,-1.4252,-1.4176,-1.3966,-1.4182,-1.4422,-1.5003,-1.5706,-1.6333,-1.6572,-1.7684,-1.8622,-1.9706,-2.0397,-2.1028,0.0,-0.981,-1.017,-1.097,-1.1462,-1.1837,0.0,0.0,0.0,-1.3391,-1.3355,-1.3279,-1.347,-1.3283,-1.3067,-1.3083,-1.3074,-1.302,-1.3303,0.0,0.0,0.0,0.0,0.0,0.0,0.0,0.0,0.0,0.0,0.0,0.0,0.0,0.0,0.0,-1.7882,-1.6879,-1.6188,-1.6188,-1.6188,-1.6188,-1.6188,-1.6188,-1.6188,0.0,0.0,0.0,0.0,0.0,0.0,-1.7173,-1.7992,-1.899,-2.1011,-2.3563,-2.6035,-2.8431,-3.1281,-3.4025,-3.5782,-3.7022,-3.8005,-3.7859,-3.6549,-3.4591,-3.3061,-3.1507,-3.0064,-2.9333,-2.7744,-2.629,-2.629,-2.5175,-2.4071,-2.4071,-2.3761,-2.3438,-2.3438,-2.3438,-2.3214,-2.2655,-2.2606,-2.2226,-2.1257,-2.0775,-2.0485,-2.005,-1.9613,-1.9479,-1.9479,-1.949,-1.9577,-1.9647,-1.9691,-1.9875,-2.0331,-1.8431,-1.7237,-1.6986,-1.687,-1.6649,-1.664,-1.6503,-1.6757,-1.7724,-1.8417,-1.8862,-1.9374,-2.061,-2.1546,-2.198,-2.2568,-2.2815,-1.0923,0.0,-1.1029,-1.1255,-1.1959,-1.2712,0.0,0.0,0.0,0.0,0.0,0.0,0.0,-1.4471,-1.4426,-1.4442,-1.4661,-1.4941,-1.4873,0.0,0.0,0.0,0.0,0.0,0.0,0.0,0.0,0.0,0.0,0.0,0.0,0.0,0.0,0.0,-2.0973,-1.997,-1.8001,-1.7992,-1.7992,-1.7992,-1.7992,-1.7837,0.0,0.0,0.0,0.0,0.0,0.0,0.0,-1.8818,-1.9785,-2.0779,-2.2807,-2.5151,-2.7663,-3.0218,-3.2775,-3.5291,-3.6905,-3.7831,-3.7759,-3.6587,-3.5387,-3.4196,-3.2687,-3.1213,-3.0109,-2.8896,-2.7611,-2.6612,-2.6171,-2.5499,-2.482,-2.482,-2.435,-2.3896,-2.3896,-2.36,-2.3426,-2.3214,-2.3189,-2.3176,-2.2818,-2.2497,-2.2202,-2.2054,-2.1757,-2.1472,-2.1472,-2.1786,-2.194,-2.1999,-2.2177,-2.2342,-2.2472,-2.0649,-1.9357,-1.9274,-1.8876,-1.874,-1.873,-1.8632,-1.8888,-1.9682,-2.0727,-2.184,-2.2849,-2.3333,-2.3885,-2.4362,-2.4476,-2.4649,-1.1971,-1.1937,-1.1731,-1.1842,-1.2432,-1.3192,-1.3749,0.0,0.0,0.0,0.0,0.0,0.0,0.0,-1.574,-1.5802,-1.607,0.0,0.0,0.0,0.0,0.0,0.0,0.0,0.0,0.0,0.0,0.0,0.0,0.0,0.0,0.0,0.0,0.0,0.0,-2.1846,-2.0271,-2.0096,-1.994,-1.994,-1.9775,-1.9386,-1.9135,0.0,0.0,0.0,0.0,0.0,-1.9307,-2.0596,-2.1566,-2.2567,-2.4889,-2.7094,-2.941,-3.1655,-3.3921,-3.5901,-3.7045,-3.7258,-3.7005,-3.5973,-3.4659,-3.3254,-3.1975,-3.0901,-2.9716,-2.8931,-2.7774,-2.678,-2.6487,-2.581,-2.5277,-2.5277,-2.5006,-2.4737,-2.4887,-2.4737,-2.4737,-2.4873,-2.5024,-2.4873,-2.4723,-2.4573,-2.4272,-2.4121,-2.3971,-2.382,-2.382,-2.3947,-2.4049,-2.4049,-2.4176,-2.4316,-2.4443,-2.3532,-2.2377,-2.148,-2.1111,-2.102,-2.1323,-2.1118,-2.1612,-2.2648,-2.3528,-2.4528,-2.579,-2.5787,-2.6155,-2.6758,-2.6673,-2.6672,-1.2975,-1.2792,-1.2436,-1.2545,-1.2927,-1.3588,-1.4374,-1.4948,0.0,0.0,0.0,0.0,0.0,-1.6796,0.0,0.0,0.0,0.0,0.0,0.0,0.0,0.0,0.0,0.0,0.0,0.0,0.0,0.0,0.0,0.0,0.0,0.0,0.0,0.0,0.0,0.0,-2.2754,-2.2008,-2.1641,-2.1641,-2.1306,-2.1035,-2.0693,-2.0652,0.0,0.0,0.0,0.0,-2.092,-2.2211,-2.3175,-2.4344,-2.6677,-2.8691,-3.0876,-3.2849,-3.4604,-3.6097,-3.642,-3.6355,-3.5901,-3.5356,-3.3951,-3.2328,-3.1449,-3.0449,-2.9442,-2.89,-2.8075,-2.7101,-2.6804,-2.6121,-2.5585,-2.5585,-2.5545,-2.5671,-2.5976,-2.6129,-2.6281,-2.6738,-2.6875,-2.6875,-2.6572,-2.6406,-2.6406,-2.5949,-2.5949,-2.5949,-2.5949,-2.599,-2.6017,-2.6017,-2.6099,-2.6262,-2.6507,-2.6575,-2.5869,-2.4233,-2.3599,-2.3562,-2.3928,-2.3828,-2.4554,-2.6138,-2.6371,-2.6987,-2.8329,-2.8329,-2.8615,-2.9159,-2.8778,-2.8693,-1.3421,-1.3846,-1.4062,-1.3315,-1.3586,-1.4145,-1.4713,-1.5292,-1.5821,0.0,0.0,0.0,0.0,0.0,0.0,0.0,0.0,0.0,0.0,0.0,0.0,0.0,0.0,0.0,0.0,0.0,0.0,0.0,0.0,0.0,0.0,0.0,0.0,0.0,0.0,0.0,0.0,-2.4018,-2.3143,-2.3143,-2.2966,-2.2788,-2.2244,-2.2036,-2.1763,0.0,0.0,0.0,-2.2211,-2.3187,-2.4308,-2.5633,-2.7675,-2.9367,-3.0891,-3.3206,-3.4621,-3.5595,-3.608,-3.5884,-3.5282,-3.3839,-3.3018,-3.2506,-3.0657,-3.0145,-2.974,-2.8675,-2.7919,-2.7407,-2.7107,-2.6418,-2.5892,-2.5892,-2.6013,-2.5976,-2.6129,-2.6433,-2.6875,-2.7193,-2.733,-2.7467,-2.7618,-2.7784,-2.7769,-2.7633,-2.7618,-2.7618,-2.7618,-2.785,-2.8023,-2.8023,-2.8515,-2.8863,-2.8906,-2.9152,-2.9137,-2.8919,-2.6787,-2.5821,-2.6229,-2.6444,-2.7268,-2.8551,-2.8606,-2.9395,-3.0788,-3.0788,-3.0991,-3.1367,-3.0817,-3.0474,-1.4562,-1.4861,-1.5064,-1.4778,-1.4779,-1.4955,-1.5454,-1.6079,-1.6598,0.0,0.0,0.0,0.0,0.0,0.0,0.0,0.0,0.0,0.0,0.0,0.0,0.0,0.0,0.0,0.0,0.0,0.0,0.0,0.0,0.0,0.0,0.0,0.0,0.0,0.0,0.0,0.0,-2.6192,-2.5396,-2.4891,-2.4542,-2.4303,-2.4007,-2.389,-2.3515,0.0,0.0,-2.3489,-2.3656,-2.4786,-2.574,-2.6571,-2.8602,-3.0171,-3.1549,-3.3694,-3.4783,-3.5109,-3.5271,-3.4946,-3.4262,-3.3449,-3.2608,-3.171,-3.0595,-3.0007,-2.9468,-2.8831,-2.8118,-2.749,-2.7189,-2.6608,-2.6186,-2.6186,-2.6405,-2.6607,-2.6918,-2.7368,-2.8,-2.8461,-2.8907,-2.9366,-2.9519,-2.9671,-2.9885,-3.0069,-3.0084,-3.0161,-3.0345,-3.0499,-3.0606,-3.0606,-3.1024,-3.1368,-3.1066,-3.1364,-3.1121,-3.0027,-2.8754,-2.8256,-2.8395,-2.8725,-2.9371,-3.017,-3.052,-3.1175,-3.2128,-3.2309,-3.2579,-3.291,-3.2381,-3.2193,-1.5646,-1.5834,-1.5935,-1.621,-1.594,-1.5624,-1.6253,-1.6809,-1.7339,0.0,0.0,0.0,0.0,0.0,0.0,0.0,0.0,0.0,0.0,0.0,0.0,0.0,0.0,0.0,0.0,0.0,0.0,0.0,0.0,0.0,0.0,0.0,0.0,0.0,0.0,0.0,0.0,-2.835,-2.7604,-2.6443,-2.5921,-2.5652,-2.5457,-2.5396,-2.5139,-2.4759,-2.5012,-2.515,-2.5046,-2.6162,-2.6756,-2.7504,-2.9237,-3.0733,-3.2298,-3.405,-3.4621,-3.4621,-3.4458,-3.3968,-3.3312,-3.3148,-3.214,-3.1048,-3.0572,-3.0085,-2.9427,-2.909,-2.8489,-2.7805,-2.7333,-2.686,-2.6544,-2.6544,-2.686,-2.7333,-2.779,-2.8573,-2.9212,-2.9834,-3.0515,-3.1181,-3.1336,-3.1724,-3.2178,-3.2436,-3.2625,-3.2738,-3.3013,-3.3062,-3.3062,-3.3062,-3.3427,-3.3509,-3.3289,-3.3607,-3.3113,-3.1526,-3.0982,-3.0659,-3.0572,-3.0825,-3.1153,-3.1541,-3.2221,-3.2724,-3.3398,-3.3831,-3.4143,-3.4312,-3.3792,-3.3755,-1.6213,-1.6605,-1.7194,-1.7376,-1.6658,-1.6,-1.6856,-1.7185,-1.7706,-1.8704,0.0,0.0,0.0,0.0,0.0,0.0,0.0,0.0,0.0,0.0,0.0,0.0,0.0,0.0,0.0,0.0,0.0,0.0,0.0,0.0,0.0,0.0,0.0,0.0,0.0,0.0,0.0,0.0,-2.9371,-2.7304,-2.6965,-2.6613,-2.6758,-2.6491,-2.6363,-2.63,-2.6045,-2.6255,-2.6626,-2.6787,-2.7264,-2.8318,-2.9093,-3.0885,-3.2968,-3.3823,-3.4131,-3.4131,-3.364,-3.3312,-3.2654,-3.1978,-3.1632,-3.1392,-3.0572,-3.0086,-2.9764,-2.9427,-2.8819,-2.8118,-2.7633,-2.7333,-2.7032,-2.7032,-2.7333,-2.7805,-2.8573,-2.9212,-2.9834,-3.1087,-3.1633,-3.2012,-3.2961,-3.3709,-3.4239,-3.4273,-3.4586,-3.4742,-3.4776,-3.4776,-3.4776,-3.4776,-3.51,-3.5441,-3.5782,-3.5816,-3.5816,-3.5655,-3.3888,-3.2739,-3.2577,-3.2608,-3.2778,-3.3088,-3.362,-3.447,-3.5483,-3.6011,-3.6224,-3.6063,-3.5716,-3.5209,-1.7806,-1.7849,-1.7803,-1.8302,-1.7983,0.0,0.0,-1.8557,-1.9199,-1.9394,-1.9986,0.0,0.0,0.0,0.0,0.0,0.0,0.0,0.0,0.0,0.0,0.0,0.0,0.0,0.0,0.0,0.0,0.0,0.0,0.0,0.0,0.0,0.0,0.0,0.0,0.0,0.0,0.0,-3.0981,-3.024,-2.9179,-2.8649,-2.8473,-2.8352,-2.8203,-2.8027,-2.7919,-2.7867,-2.7905,-2.8228,-2.8494,-2.8905,-3.0013,-3.1103,-3.2189,-3.2694,-3.2999,-3.2834,-3.267,-3.2324,-3.1978,-3.1647,-3.1316,-3.0925,-3.0616,-3.0261,-3.0056,-2.9529,-2.9137,-2.8834,-2.8175,-2.7647,-2.7333,-2.749,-2.7805,-2.8275,-2.873,-2.9664,-3.067,-3.1494,-3.2585,-3.3681,-3.4227,-3.5003,-3.5643,-3.5887,-3.6079,-3.6324,-3.6729,-3.6922,-3.6904,-3.7202,-3.7345,-3.7755,-3.8471,-3.8025,-3.7809,-3.8039,-3.5859,-3.4571,-3.4768,-3.4455,-3.4451,-3.499,-3.5385,-3.5629,-3.6077,-3.6632,-3.6814,-3.6773,-3.66,-3.6269,-1.8744,-1.8631,-1.8632,-1.9244,0.0,0.0,-1.9274,-1.9674,-2.0132,-2.0052,-2.0869,-2.2049,-2.3041,0.0,0.0,0.0,0.0,0.0,0.0,0.0,0.0,0.0,0.0,0.0,0.0,0.0,0.0,0.0,0.0,0.0,0.0,0.0,0.0,0.0,0.0,0.0,0.0,0.0,-3.2392,-3.2116,-3.1382,-3.0539,-2.9621,-2.9523,-2.9369,-2.9173,-2.9173,-2.917,-2.9037,-2.9215,-2.932,-2.9572,-3.0543,-3.1151,-3.1538,-3.2052,-3.2174,-3.2174,-3.2009,-3.1828,-3.1482,-3.1316,-3.0984,-3.0788,-3.0568,-3.0437,-3.0261,-2.9807,-2.9529,-2.9325,-2.8805,-2.8189,-2.7805,-2.7805,-2.8118,-2.8588,-2.9197,-3.0205,-3.1447,-3.2152,-3.3642,-3.483,-3.5244,-3.6166,-3.6813,-3.708,-3.7449,-3.7855,-3.8286,-3.8481,-3.8676,-3.9104,-3.9393,-3.9579,-4.0197,-3.9571,-3.9376,-3.965,-3.7696,-3.6542,-3.6453,-3.5974,-3.5825,-3.6038,-3.6455,-3.6638,-3.6754,-3.7175,-3.7291,-3.7119,-3.7119,-3.7012,-1.8814,-1.9122,-1.9514,0.0,0.0,0.0,-2.1101,-2.0602,-2.0246,-2.0819,-2.2154,-2.3628,-2.4651,0.0,0.0,0.0,0.0,0.0,0.0,0.0,0.0,0.0,0.0,0.0,0.0,0.0,0.0,0.0,0.0,0.0,0.0,0.0,0.0,0.0,0.0,0.0,0.0,0.0,-3.3831,-3.2976,-3.2976,-3.1929,-2.9943,-2.9635,-2.9481,-2.9481,-2.9481,-2.9646,-2.9707,-2.9707,-2.9847,-2.9895,-3.0706,-3.0988,-3.1033,-3.1887,-3.2174,-3.2174,-3.1662,-3.1482,-3.1482,-3.0984,-3.0817,-3.0817,-3.0817,-3.0598,-3.0349,-3.0349,-2.9881,-2.9383,-2.9383,-2.8834,-2.8289,-2.8289,-2.8588,-2.9212,-2.9974,-3.1012,-3.22,-3.301,-3.4531,-3.5674,-3.6166,-3.7276,-3.8004,-3.8004,-3.8798,-3.9272,-3.9272,-3.9588,-4.0072,-4.0489,-4.0887,-4.1152,-4.1152,-4.0828,-4.0502,-4.0521,-3.9705,-3.8536,-3.7342,-3.6877,-3.656,-3.6418,-3.6945,-3.7283,-3.7636,-3.8152,-3.798,-3.7636,-3.7636,-3.7665,-1.9787,-2.0043,0.0,0.0,0.0,0.0,0.0,-2.1686,0.0,0.0,-2.3728,-2.461,-2.5299,0.0,0.0,0.0,0.0,0.0,0.0,0.0,0.0,0.0,0.0,0.0,0.0,0.0,0.0,0.0,0.0,0.0,0.0,0.0,0.0,0.0,0.0,0.0,0.0,0.0,0.0,-3.437,-3.3429,-3.2274,-3.0962,-3.0875,-3.0701,-3.0484,-3.0484,-3.0441,-3.052,-3.052,-3.0461,-3.0554,-3.0807,-3.0851,-3.0851,-3.112,-3.1164,-3.1164,-3.0998,-3.0984,-3.0984,-3.0817,-3.0817,-3.0817,-3.0817,-3.0759,-3.0642,-3.0407,-3.0217,-3.0012,-2.9778,-2.9647,-2.9312,-2.8846,-2.9233,-2.9867,-3.0808,-3.1858,-3.3123,-3.4491,-3.5677,-3.6711,-3.7312,-3.7932,-3.8481,-3.8481,-3.8956,-3.9681,-4.0458,-4.1221,-4.1771,-4.1747,-4.2023,-4.2236,-4.2547,-4.1751,-4.1556,-4.1839,-4.0712,-3.9581,-3.861,-3.8108,-3.7944,-3.781,-3.7827,-3.8049,-3.8152,-3.8152,-3.8288,-3.8561,-3.8561,-3.8416,-2.0311,0.0,0.0,0.0,0.0,0.0,-2.2863,0.0,0.0,0.0,0.0,0.0,0.0,0.0,0.0,0.0,0.0,0.0,0.0,0.0,0.0,0.0,0.0,0.0,0.0,0.0,0.0,0.0,0.0,0.0,0.0,0.0,0.0,0.0,0.0,0.0,0.0,0.0,0.0,0.0,-3.396,-3.2887,-3.2037,-3.1563,-3.1329,-3.1007,-3.0876,-3.0817,-3.0817,-3.0817,-3.0817,-3.0817,-3.0817,-3.0817,-3.0817,-3.0817,-3.0817,-3.0817,-3.0817,-3.0817,-3.0817,-3.0817,-3.0817,-3.0817,-3.0817,-3.0817,-3.0788,-3.0583,-3.0451,-3.0305,-3.01,-2.9954,-2.9764,-2.9369,-2.9903,-3.0703,-3.1321,-3.2539,-3.3974,-3.5305,-3.6271,-3.724,-3.7968,-3.8322,-3.8695,-3.886,-3.9326,-4.017,-4.1056,-4.1779,-4.2191,-4.2191,-4.2345,-4.2558,-4.2828,-4.2169,-4.1786,-4.203,-4.1229,-4.0277,-3.9369,-3.8845,-3.8611,-3.8323,-3.8323,-3.8323,-3.8323,-3.8323,-3.8529,-3.8922,-3.8922,-3.9021,0.0,0.0,0.0,0.0,0.0,0.0,0.0,0.0,0.0,0.0,0.0,0.0,0.0,0.0,0.0,0.0,0.0,0.0,0.0,0.0,0.0,0.0,0.0,0.0,0.0,0.0,0.0,0.0,0.0,0.0,0.0,0.0,0.0,0.0,0.0,0.0,0.0,0.0,0.0,0.0,0.0,-3.3846,-3.3006,-3.216,-3.1651,-3.13,-3.0993,-3.0846,-3.0817,-3.0817,-3.0817,-3.0817,-3.0817,-3.0817,-3.0817,-3.0817,-3.0817,-3.0817,-3.0817,-3.0817,-3.0817,-3.0817,-3.0817,-3.0817,-3.0817,-3.0817,-3.0817,-3.0817,-3.0612,-3.0393,-3.0393,-3.0173,-2.9954,-2.9954,-3.0585,-3.1373,-3.1838,-3.3226,-3.4609,-3.5407,-3.648,-3.7525,-3.8004,-3.8359,-3.8823,-3.9226,-3.9955,-4.0721,-4.1065,-4.1569,-4.1834,-4.1834,-4.2175,-4.2402,-4.2402,-4.2049,-4.1695,-4.1695,-4.1378,-4.0723,-3.9689,-3.9366,-3.8854,-3.8323,-3.8323,-3.8323,-3.8323,-3.8323,-3.8546,-3.8974,-3.8974,-3.9368,0.0,-2.1989,0.0,0.0,0.0,0.0,0.0,0.0,0.0,0.0,0.0,0.0,0.0,0.0,0.0,0.0,0.0,0.0,0.0,0.0,0.0,0.0,0.0,0.0,0.0,0.0,0.0,0.0,0.0,0.0,0.0,0.0,0.0,0.0,0.0,0.0,0.0,0.0,0.0,0.0,-3.5573,-3.4844,-3.3876,-3.2673,-3.1856,-3.13,-3.1242,-3.1051,-3.0817,-3.0817,-3.0817,-3.0817,-3.0817,-3.0817,-3.0817,-3.0817,-3.0817,-3.0817,-3.0817,-3.0817,-3.0817,-3.0817,-3.0817,-3.0817,-3.0817,-3.0817,-3.0817,-3.0817,-3.0773,-3.0715,-3.0715,-3.0671,-3.0612,-3.0612,-3.1093,-3.1726,-3.2034,-3.3435,-3.4992,-3.5799,-3.6672,-3.7525,-3.8004,-3.8577,-3.9406,-4.0135,-4.0708,-4.1133,-4.148,-4.2004,-4.2269,-4.2269,-4.2345,-4.2402,-4.2402,-4.2049,-4.1695,-4.1695,-4.1378,-4.0723,-3.9689,-3.9519,-3.9178,-3.8323,-3.8323,-3.8323,-3.8323,-3.8323,-3.8683,-3.9351,-3.9351,-3.9744,0.0,0.0,0.0,0.0,0.0,0.0,0.0,0.0,0.0,0.0,0.0,0.0,0.0,0.0,0.0,0.0,0.0,0.0,0.0,0.0,0.0,0.0,0.0,0.0,0.0,0.0,0.0,0.0,0.0,0.0,0.0,0.0,0.0,0.0,0.0,0.0,-3.8683,-3.798,-3.7291,-3.6616,-3.5922,-3.505,-3.3807,-3.2777,-3.2105,-3.1768,-3.1607,-3.1359,-3.1051,-3.1051,-3.0964,-3.0817,-3.0817,-3.0817,-3.0817,-3.0817,-3.0817,-3.0817,-3.0817,-3.0817,-3.0817,-3.0817,-3.0817,-3.0817,-3.0817,-3.0817,-3.0817,-3.0817,-3.0817,-3.0817,-3.0817,-3.0817,-3.0817,-3.0817,-3.1362,-3.2079,-3.2391,-3.3676,-3.5109,-3.5935,-3.6563,-3.7258,-3.7775,-3.8617,-3.9231,-3.9777,-4.0141,-4.0563,-4.073,-4.0914,-4.1042,-4.1042,-4.1042,-4.1042,-4.1042,-4.0873,-4.0705,-4.0705,-4.0723,-4.0385,-3.9689,-3.9876,-3.9536,-3.8323,-3.8323,-3.8323,-3.8323,-3.8512,-3.8905,-3.947,-3.9659,-4.0036,0.0,0.0,0.0,0.0,0.0,0.0,0.0,0.0,0.0,0.0,0.0,0.0,0.0,0.0,0.0,0.0,0.0,0.0,0.0,0.0,0.0,0.0,0.0,0.0,0.0,0.0,0.0,0.0,0.0,0.0,0.0,0.0,0.0,0.0,0.0,0.0,-3.9195,-3.8152,-3.7464,-3.7119,-3.6096,-3.4875,-3.3646,-3.2836,-3.2514,-3.2266,-3.2002,-3.1695,-3.1388,-3.1329,-3.1154,-3.0905,-3.0846,-3.0817,-3.0817,-3.0817,-3.0817,-3.0817,-3.0817,-3.0817,-3.0817,-3.0817,-3.0817,-3.0817,-3.0817,-3.0817,-3.0817,-3.0817,-3.0817,-3.0817,-3.0817,-3.0817,-3.0817,-3.0817,-3.1497,-3.2339,-3.267,-3.3804,-3.4946,-3.5757,-3.631,-3.713,-3.7912,-3.8696,-3.9139,-3.921,-3.9494,-3.9689,-3.9689,-3.9689,-3.9689,-3.9689,-3.9689,-3.9689,-3.9689,-3.9689,-3.9689,-3.9689,-4.0216,-4.0216,-3.9689,-4.0216,-3.9876,-3.8494,-3.8494,-3.8494,-3.8512,-3.889,-3.9111,-3.947,-3.9864,-4.0241,0.0,0.0,0.0,0.0,0.0,0.0,0.0,0.0,0.0,0.0,0.0,0.0,0.0,0.0,0.0,0.0,0.0,0.0,0.0,0.0,0.0,0.0,0.0,0.0,0.0,0.0,0.0,0.0,0.0,0.0,0.0,0.0,0.0,0.0,0.0,0.0,-3.9519,-3.8666,-3.798,-3.7464,-3.6269,-3.505,-3.4174,-3.3601,-3.2895,-3.228,-3.2237,-3.2032,-3.171,-3.1432,-3.1285,-3.1212,-3.0934,-3.0817,-3.0817,-3.0817,-3.0817,-3.0817,-3.0817,-3.0817,-3.0817,-3.0817,-3.0817,-3.0817,-3.0817,-3.0817,-3.0817,-3.0817,-3.0817,-3.0817,-3.0817,-3.0817,-3.0817,-3.0817,-3.1497,-3.2174,-3.2339,-3.3312,-3.4294,-3.4946,-3.6174,-3.762,-3.8671,-3.905,-3.9245,-3.9564,-3.9671,-3.9689,-3.9689,-3.9689,-3.9689,-3.9689,-3.9689,-3.9689,-3.9689,-3.9689,-3.9689,-3.9689,-4.0216,-4.0216,-3.9689,-4.0216,-4.0046,-3.9519,-3.9519,-3.9366,-3.8854,-3.9236,-3.9443,-3.947,-3.9864,-4.0241,0.0,0.0,0.0,0.0,0.0,0.0,0.0,0.0,0.0,0.0,0.0,0.0,0.0,0.0,0.0,0.0,0.0,0.0,0.0,0.0,0.0,0.0,0.0,0.0,0.0,0.0,0.0,0.0,0.0,0.0,0.0,-4.106,-4.106,-4.106,-4.0216,0.0,-3.9689,-3.8837,-3.798,-3.7291,-3.6096,-3.505,-3.4174,-3.3646,-3.3219,-3.2559,-3.2559,-3.2368,-3.2061,-3.1915,-3.1754,-3.1549,-3.1227,-3.1095,-3.1081,-3.089,-3.0817,-3.0817,-3.0817,-3.0817,-3.0817,-3.0817,-3.0817,-3.0817,-3.0817,-3.0949,-3.1095,-3.1095,-3.1227,-3.1329,-3.1139,-3.1095,-3.1051,-3.0861,-3.1631,-3.2449,-3.2449,-3.3289,-3.4343,-3.5375,-3.6372,-3.7381,-3.7892,-3.8116,-3.8305,-3.8118,-3.8152,-3.8323,-3.8477,-3.8494,-3.8666,-3.8837,-3.8837,-3.8837,-3.8837,-3.8837,-3.8837,-3.8837,-3.9366,-3.9706,-3.9689,-4.0216,-4.0385,-4.0554,-4.0028,-3.9519,-3.9366,-3.9964,-4.0176,-3.9823,-4.0428,-4.061,0.0,0.0,0.0,0.0,0.0,0.0,0.0,0.0,0.0,0.0,0.0,0.0,0.0,0.0,0.0,0.0,0.0,0.0,0.0,0.0,0.0,0.0,0.0,0.0,0.0,0.0,0.0,0.0,0.0,0.0,0.0,-4.0892,-4.0892,-4.0892,-4.0216,-3.9689,-3.9689,-3.8837,-3.798,-3.7119,-3.6253,-3.5399,-3.4525,-3.3998,-3.347,-3.2955,-3.2778,-3.2632,-3.2398,-3.2324,-3.2149,-3.1885,-3.1563,-3.1432,-3.1402,-3.1154,-3.1066,-3.1051,-3.0978,-3.1007,-3.1051,-3.0978,-3.1007,-3.1066,-3.1066,-3.1242,-3.1432,-3.1432,-3.1607,-3.1739,-3.149,-3.1432,-3.1373,-3.1124,-3.193,-3.2953,-3.3106,-3.3755,-3.4669,-3.5676,-3.6375,-3.6962,-3.7062,-3.728,-3.7291,-3.7119,-3.6946,-3.7119,-3.7464,-3.7464,-3.7808,-3.8152,-3.8152,-3.8323,-3.8323,-3.8323,-3.8323,-3.8323,-3.8683,-3.9195,-3.9689,-4.0216,-4.0608,-4.1225,-4.0529,-4.0189,-4.0019,-4.0713,-4.093,-4.0508,-4.1012,-4.1145,0.0,0.0,0.0,0.0,0.0,0.0,0.0,0.0,0.0,0.0,0.0,0.0,0.0,0.0,0.0,0.0,0.0,0.0,0.0,0.0,0.0,0.0,0.0,0.0,0.0,0.0,0.0,0.0,0.0,0.0,-4.0385,-4.0403,-4.0403,-4.0403,-4.0046,-3.9689,-3.9689,-3.8837,-3.798,-3.7619,-3.7119,-3.6427,-3.5573,-3.4525,-3.3822,-3.347,-3.294,-3.2763,-3.2719,-3.2412,-3.228,-3.2222,-3.19,-3.1768,-3.1768,-3.1754,-3.1754,-3.171,-3.1388,-3.149,-3.1695,-3.1388,-3.149,-3.1754,-3.1754,-3.1754,-3.1768,-3.1768,-3.1783,-3.1798,-3.1783,-3.1768,-3.1768,-3.1754,-3.2438,-3.3476,-3.4308,-3.4799,-3.5233,-3.5589,-3.6044,-3.6517,-3.6863,-3.7102,-3.6946,-3.6946,-3.6946,-3.6946,-3.6946,-3.7291,-3.7636,-3.7636,-3.798,-3.8323,-3.8323,-3.8323,-3.8323,-3.8323,-3.8683,-3.9195,-3.9689,-4.0216,-4.0753,-4.1647,-4.1647,-4.1305,-4.0944,-4.1359,-4.1405,-4.1427,-4.1314,-4.1325,0.0,0.0,0.0,0.0,0.0,0.0,0.0,0.0,0.0,0.0,0.0,0.0,0.0,0.0,0.0,0.0,0.0,0.0,0.0,0.0,0.0,0.0,0.0,0.0,0.0,0.0,0.0,0.0,0.0,0.0,-4.0508,-4.0764,-4.0892,-4.0892,-4.0385,-3.9876,-3.9195,-3.8854,-3.8323,-3.7619,-3.7119,-3.6427,-3.5573,-3.47,-3.3998,-3.347,-3.294,-3.2778,-3.2763,-3.2646,-3.2602,-3.2559,-3.2237,-3.2105,-3.209,-3.1871,-3.1798,-3.1783,-3.1666,-3.1695,-3.1783,-3.1666,-3.171,-3.1798,-3.1798,-3.1944,-3.2105,-3.2105,-3.2266,-3.2368,-3.2163,-3.2105,-3.2278,-3.2797,-3.3487,-3.4236,-3.4972,-3.5189,-3.5232,-3.5702,-3.6085,-3.6296,-3.66,-3.6616,-3.6443,-3.6096,-3.6096,-3.6269,-3.6443,-3.6616,-3.6946,-3.7464,-3.7808,-3.798,-3.8323,-3.8323,-3.8323,-3.8323,-3.8512,-3.8958,-3.9546,-3.9735,-4.0446,-4.1532,-4.1532,-4.1705,-4.1896,-4.228,-4.2202,-4.1799,-4.221,-4.2029,-2.6382,0.0,0.0,0.0,0.0,0.0,0.0,0.0,0.0,0.0,0.0,0.0,0.0,0.0,0.0,0.0,0.0,0.0,0.0,0.0,0.0,0.0,0.0,0.0,0.0,0.0,0.0,0.0,0.0,0.0,-4.0088,-4.0472,-4.0746,-4.0892,-4.0572,-4.0064,-3.9536,-3.9195,-3.8683,-3.798,-3.7291,-3.66,-3.6096,-3.4875,-3.4174,-3.3646,-3.3293,-3.2955,-3.2778,-3.2778,-3.2778,-3.2749,-3.2529,-3.2441,-3.2427,-3.2207,-3.212,-3.2105,-3.2002,-3.2032,-3.2105,-3.2002,-3.2032,-3.212,-3.212,-3.2455,-3.2617,-3.2617,-3.2954,-3.3249,-3.3026,-3.2966,-3.3141,-3.3838,-3.4359,-3.4768,-3.5526,-3.5383,-3.5208,-3.5569,-3.5934,-3.6112,-3.6112,-3.6112,-3.5938,-3.5573,-3.5685,-3.5923,-3.6114,-3.6561,-3.7151,-3.7658,-3.8006,-3.8353,-3.8717,-3.8717,-3.8717,-3.8717,-3.8717,-3.8993,-3.9774,-3.9792,-4.0315,-4.1756,-4.1774,-4.2021,-4.2692,-4.2803,-4.2755,-4.2546,-4.28,-4.2712,0.0,0.0,0.0,0.0,0.0,0.0,0.0,0.0,0.0,0.0,0.0,0.0,0.0,0.0,0.0,0.0,0.0,0.0,0.0,0.0,0.0,0.0,0.0,0.0,0.0,0.0,0.0,0.0,0.0,0.0,-3.9158,-3.9555,-3.9934,-4.0349,-4.0367,-4.0385,-4.0385,-3.9536,-3.9025,-3.9025,-3.7636,-3.6946,-3.6946,-3.5558,-3.47,-3.4174,-3.3646,-3.3293,-3.2778,-3.2778,-3.2778,-3.2778,-3.2778,-3.2778,-3.2778,-3.2778,-3.2778,-3.2719,-3.2412,-3.2515,-3.2719,-3.2398,-3.2515,-3.2763,-3.2763,-3.3117,-3.347,-3.347,-3.3822,-3.4174,-3.4174,-3.4174,-3.4349,-3.4875,-3.4875,-3.505,-3.5573,-3.5573,-3.5573,-3.5573,-3.5573,-3.5573,-3.5573,-3.5589,-3.5589,-3.5589,-3.5891,-3.6114,-3.6114,-3.7289,-3.8036,-3.8036,-3.894,-3.947,-3.947,-3.947,-3.947,-3.947,-3.947,-3.9647,-4.0017,-4.0193,-4.072,-4.1994,-4.2171,-4.2546,-4.3499,-4.3078,-4.3096,-4.3499,-4.3124,-4.3,-2.7141,0.0,0.0,0.0,0.0,0.0,0.0,0.0,0.0,0.0,0.0,0.0,0.0,0.0,0.0,0.0,0.0,0.0,0.0,0.0,0.0,0.0,0.0,0.0,0.0,0.0,0.0,0.0,0.0,-3.912,-3.923,-3.9632,-3.9906,-4.0015,-4.0307,-4.0286,-3.9952,-3.9734,-3.9366,-3.9025,-3.7636,-3.6946,-3.6946,-3.5558,-3.47,-3.4174,-3.3646,-3.3293,-3.2778,-3.2778,-3.2778,-3.2778,-3.2778,-3.2778,-3.2778,-3.2778,-3.2778,-3.2763,-3.2676,-3.269,-3.2749,-3.2661,-3.2867,-3.3293,-3.3293,-3.3646,-3.3998,-3.3998,-3.4174,-3.4174,-3.4174,-3.4525,-3.47,-3.4875,-3.5225,-3.5399,-3.5573,-3.5573,-3.5573,-3.5573,-3.5573,-3.5573,-3.5573,-3.5796,-3.5955,-3.5955,-3.6241,-3.6463,-3.6463,-3.7095,-3.7696,-3.8052,-3.8569,-3.91,-3.947,-3.947,-3.947,-3.947,-3.947,-3.959,-4.0043,-4.006,-4.0589,-4.1511,-4.187,-4.2282,-4.2945,-4.3193,-4.3371,-4.3499,-4.3321,-4.3361,-2.7347,-2.7193,-2.7124,-2.733,0.0,0.0,0.0,0.0,0.0,0.0,0.0,0.0,0.0,0.0,0.0,0.0,0.0,0.0,0.0,0.0,0.0,0.0,0.0,0.0,0.0,0.0,0.0,0.0,-3.875,-3.9061,-3.9226,-3.9465,-3.9667,-3.9832,-4.007,-4.0033,-3.9868,-3.9599,-3.9289,-3.8968,-3.774,-3.7119,-3.6946,-3.5922,-3.505,-3.4525,-3.4174,-3.3822,-3.3293,-3.3293,-3.3117,-3.2778,-3.2778,-3.2778,-3.2778,-3.2778,-3.2778,-3.2778,-3.294,-3.3117,-3.3117,-3.3293,-3.3646,-3.3822,-3.3822,-3.4174,-3.4525,-3.4525,-3.47,-3.47,-3.47,-3.505,-3.5225,-3.5225,-3.5399,-3.5573,-3.5573,-3.5701,-3.5748,-3.5605,-3.5701,-3.5796,-3.613,-3.6435,-3.6676,-3.6853,-3.7144,-3.7353,-3.7353,-3.8039,-3.8498,-3.8678,-3.9217,-3.9754,-3.9933,-3.9933,-3.9933,-3.9933,-3.9933,-4.0036,-4.0258,-4.0258,-4.0559,-4.1325,-4.1669,-4.2389,-4.3124,-4.3321,-4.3499,-4.3499,-4.3664,-4.3887,-2.7621,-2.7381,-2.7124,-2.709,-2.7347,0.0,-2.8049,-2.8717,0.0,0.0,0.0,0.0,0.0,0.0,0.0,0.0,0.0,0.0,0.0,0.0,0.0,0.0,0.0,0.0,0.0,0.0,0.0,-3.7943,-3.8346,-3.875,-3.9153,-3.9171,-3.9336,-3.9703,-3.9758,-3.9777,-3.9777,-3.9353,-3.9086,-3.9139,-3.8101,-3.7414,-3.6946,-3.6443,-3.5748,-3.4875,-3.4875,-3.47,-3.4174,-3.4174,-3.3646,-3.294,-3.294,-3.294,-3.294,-3.294,-3.294,-3.2955,-3.347,-3.3676,-3.3706,-3.4059,-3.425,-3.4457,-3.4457,-3.4633,-3.5159,-3.5159,-3.5319,-3.5637,-3.5637,-3.5605,-3.5573,-3.5573,-3.5573,-3.5589,-3.5621,-3.5875,-3.6018,-3.5923,-3.5939,-3.6338,-3.6836,-3.7322,-3.7745,-3.8118,-3.8415,-3.863,-3.863,-3.9291,-3.9873,-3.9873,-4.0237,-4.0583,-4.0583,-4.0583,-4.0583,-4.0583,-4.0583,-4.0583,-4.0583,-4.0583,-4.0765,-4.1145,-4.1669,-4.2568,-4.3499,-4.3499,-4.3518,-4.3573,-4.3921,-4.4325,-2.7775,-2.7552,-2.7432,-2.7141,-2.7347,0.0,-2.7706,-2.8323,0.0,0.0,0.0,0.0,0.0,0.0,0.0,0.0,0.0,0.0,0.0,0.0,0.0,0.0,0.0,0.0,0.0,0.0,0.0,-3.7539,-3.7906,-3.831,-3.8731,-3.875,-3.8786,-3.8878,-3.919,-3.9355,-3.9355,-3.8922,-3.8802,-3.9121,-3.7861,-3.7179,-3.6946,-3.6443,-3.5748,-3.4875,-3.4875,-3.47,-3.4174,-3.4174,-3.4174,-3.3998,-3.3998,-3.3998,-3.3998,-3.3998,-3.3998,-3.3998,-3.3998,-3.418,-3.4408,-3.4586,-3.5111,-3.5506,-3.5506,-3.5864,-3.6221,-3.6221,-3.6209,-3.6002,-3.6002,-3.5796,-3.5573,-3.5573,-3.5573,-3.5653,-3.5939,-3.6403,-3.6676,-3.7079,-3.6998,-3.7225,-3.7775,-3.8055,-3.8465,-3.8465,-3.8778,-3.901,-3.901,-3.9458,-3.9873,-3.9873,-4.0237,-4.0583,-4.0583,-4.0583,-4.0583,-4.0583,-4.0583,-4.0583,-4.0583,-4.0583,-4.0583,-4.0765,-4.1489,-4.2568,-4.3499,-4.3499,-4.3664,-4.3976,-4.405,-4.4471,-2.8035,-2.777,-2.7569,-2.7381,0.0,0.0,0.0,-2.7912,0.0,0.0,0.0,0.0,0.0,0.0,0.0,0.0,0.0,0.0,0.0,0.0,0.0,0.0,0.0,0.0,0.0,0.0,-3.6989,-3.7393,-3.7613,-3.7906,-3.831,-3.8328,-3.842,-3.864,-3.8841,-3.8773,-3.8613,-3.8365,-3.8177,-3.8206,-3.7755,-3.7182,-3.6682,-3.6691,-3.6096,-3.5225,-3.5225,-3.505,-3.4875,-3.4875,-3.4875,-3.4875,-3.4349,-3.4174,-3.4189,-3.4372,-3.4433,-3.4448,-3.4956,-3.5126,-3.528,-3.5638,-3.5926,-3.6231,-3.6231,-3.6411,-3.659,-3.659,-3.6479,-3.6352,-3.6352,-3.6225,-3.6082,-3.6082,-3.6082,-3.613,-3.6676,-3.7031,-3.7566,-3.8283,-3.8465,-3.8531,-3.8708,-3.8974,-3.9406,-3.957,-3.9721,-3.9856,-3.9856,-4.0038,-4.0237,-4.0237,-4.0402,-4.0583,-4.0583,-4.0583,-4.0583,-4.0583,-4.0583,-4.0583,-4.0583,-4.0583,-4.0765,-4.0946,-4.1669,-4.2389,-4.3124,-4.3503,-4.3884,-4.4086,-4.4508,-4.4911,-2.814,-2.7908,0.0,0.0,0.0,-2.7105,0.0,0.0,0.0,0.0,0.0,0.0,0.0,0.0,0.0,0.0,0.0,0.0,0.0,0.0,0.0,0.0,0.0,0.0,0.0,0.0,0.0,-3.7136,-3.7191,-3.7393,-3.7869,-3.7732,-3.7933,-3.8353,-3.8371,-3.8091,-3.7845,-3.7667,-3.7555,-3.7299,-3.7428,-3.7115,-3.6418,-3.6715,-3.6362,-3.5573,-3.5573,-3.5573,-3.5573,-3.5573,-3.5573,-3.5573,-3.47,-3.4571,-3.4663,-3.4941,-3.508,-3.5172,-3.5778,-3.6099,-3.6161,-3.6522,-3.6749,-3.6797,-3.6797,-3.6797,-3.6797,-3.6797,-3.6749,-3.6702,-3.6702,-3.6654,-3.659,-3.659,-3.6606,-3.6801,-3.7224,-3.7843,-3.8433,-3.9221,-3.9654,-3.9954,-3.9649,-3.9852,-4.0237,-4.0583,-4.0583,-4.0583,-4.0583,-4.0583,-4.0583,-4.0583,-4.0583,-4.0583,-4.0583,-4.0583,-4.0583,-4.0583,-4.0583,-4.0583,-4.0583,-4.0583,-4.0765,-4.1325,-4.1669,-4.2209,-4.2748,-4.3777,-4.4196,-4.4215,-4.4948,-4.5352,0.0,0.0,0.0,0.0,-2.672,0.0,0.0,0.0,0.0,0.0,0.0,0.0,0.0,0.0,0.0,0.0,0.0,0.0,0.0,0.0,0.0,0.0,0.0,0.0,0.0,0.0,0.0,0.0,-3.6347,-3.6677,-3.7448,-3.7176,-3.7066,-3.7481,-3.7166,-3.7169,-3.7525,-3.7098,-3.6968,-3.7299,-3.6878,-3.6609,-3.6418,-3.6451,-3.6134,-3.5573,-3.5573,-3.5573,-3.5573,-3.5573,-3.5573,-3.5573,-3.5399,-3.5589,-3.5873,-3.5905,-3.6111,-3.6364,-3.6411,-3.6797,-3.6885,-3.7067,-3.7289,-3.756,-3.756,-3.756,-3.756,-3.756,-3.7321,-3.7067,-3.7067,-3.6829,-3.659,-3.659,-3.6965,-3.7403,-3.7743,-3.8564,-3.9221,-3.9755,-4.0203,-4.0566,-4.0532,-4.0549,-4.0583,-4.0583,-4.0583,-4.0583,-4.0583,-4.0583,-4.0583,-4.0583,-4.0583,-4.0583,-4.0583,-4.0583,-4.0583,-4.0583,-4.0583,-4.0583,-4.0583,-4.0583,-4.0765,-4.1325,-4.1669,-4.2209,-4.2748,-4.4051,-4.46,-4.4618,-4.5077,-4.548,0.0,0.0,0.0,0.0,0.0,0.0,-2.6869,0.0,-2.6877,0.0,0.0,0.0,0.0,0.0,0.0,0.0,0.0,0.0,0.0,0.0,0.0,0.0,0.0,0.0,0.0,0.0,0.0,0.0,0.0,-3.5961,-3.6376,-3.6497,-3.6498,-3.6737,-3.6831,-3.6711,-3.6711,-3.662,-3.665,-3.6644,-3.6362,-3.6139,-3.5807,-3.588,-3.5628,-3.5272,-3.5494,-3.5573,-3.5573,-3.5573,-3.5573,-3.5605,-3.5796,-3.5971,-3.6161,-3.6559,-3.6781,-3.694,-3.7146,-3.7321,-3.7448,-3.7448,-3.7727,-3.804,-3.804,-3.8224,-3.8575,-3.8575,-3.8111,-3.7815,-3.7815,-3.752,-3.7226,-3.759,-3.7772,-3.8184,-3.8877,-3.9456,-3.9869,-4.0203,-4.0402,-4.0583,-4.0583,-4.0583,-4.0583,-4.0583,-4.0583,-4.0583,-4.0583,-4.0583,-4.0583,-4.0583,-4.0583,-4.0583,-4.0583,-4.0583,-4.0583,-4.0583,-4.0583,-4.0583,-4.0583,-4.0583,-4.0765,-4.0946,-4.1308,-4.1849,-4.2389,-4.3506,-4.427,-4.4691,-4.5333,-4.5737,-2.8116,0.0,0.0,0.0,0.0,0.0,0.0,0.0,0.0,0.0,0.0,0.0,0.0,0.0,-2.7327,-2.7327,0.0,0.0,0.0,0.0,0.0,0.0,0.0,0.0,0.0,0.0,0.0,0.0,0.0,0.0,-3.5262,-3.5528,-3.562,-3.5704,-3.5955,-3.6097,-3.5991,-3.6268,-3.6138,-3.5935,-3.5865,-3.5558,-3.5196,-3.5466,-3.528,-3.5049,-3.5415,-3.5573,-3.5573,-3.5573,-3.5637,-3.5764,-3.6098,-3.6304,-3.6447,-3.694,-3.7194,-3.7321,-3.7575,-3.7671,-3.7671,-3.7671,-3.804,-3.8408,-3.8408,-3.8775,-3.9125,-3.9125,-3.8759,-3.8591,-3.8591,-3.8408,-3.8224,-3.8591,-3.8775,-3.8958,-3.969,-4.0055,-4.0237,-4.0583,-4.0583,-4.0583,-4.0583,-4.0583,-4.0583,-4.0583,-4.0583,-4.0583,-4.0583,-4.0583,-4.0583,-4.0583,-4.0583,-4.0583,-4.0583,-4.0583,-4.0583,-4.0583,-4.0583,-4.0583,-4.0583,-4.0583,-4.0583,-4.0583,-4.1145,-4.1506,-4.1849,-4.28,-4.3505,-4.4344,-4.5352,-4.5792,0.0,0.0,0.0,-2.6672,0.0,0.0,0.0,0.0,-2.6631,0.0,0.0,0.0,0.0,-2.6577,-2.6587,-2.6587,-2.6969,0.0,0.0,0.0,0.0,0.0,0.0,0.0,0.0,0.0,0.0,0.0,-3.3593,0.0,-3.4433,-3.4133,-3.4075,-3.4476,-3.4536,-3.4779,-3.5498,-3.5515,-3.5543,-3.5433,-3.545,-3.5145,-3.4698,-3.5038,-3.5225,-3.5049,-3.5415,-3.5573,-3.5573,-3.5573,-3.578,-3.613,-3.6447,-3.6797,-3.7099,-3.7115,-3.7353,-3.7655,-3.7671,-3.7671,-3.7671,-3.7671,-3.804,-3.8408,-3.8408,-3.8775,-3.9125,-3.9125,-3.9125,-3.9125,-3.9125,-3.9125,-3.9125,-3.9125,-3.9491,-3.9873,-3.9873,-4.0237,-4.0583,-4.0583,-4.0583,-4.0583,-4.0583,-4.0583,-4.0583,-4.0583,-4.0583,-4.0583,-4.0583,-4.0583,-4.0583,-4.0583,-4.0583,-4.0583,-4.0583,-4.0583,-4.0583,-4.0583,-4.0583,-4.0583,-4.0583,-4.0583,-4.0583,-4.0583,-4.1145,-4.1325,-4.1325,-4.2238,-4.2979,-4.3415,-4.4764,-4.5535,0.0,0.0,-2.7687,-2.7369,0.0,0.0,0.0,0.0,0.0,0.0,0.0,0.0,0.0,-2.6389,-2.6487,-2.6361,-2.6369,-2.6303,0.0,0.0,0.0,0.0,0.0,0.0,0.0,0.0,0.0,-3.192,-3.2802,0.0,0.0,-3.3261,-3.3509,-3.3592,-3.3837,-3.4111,-3.4294,-3.4784,-3.4945,-3.4742,-3.4506,-3.4523,-3.4326,-3.4349,-3.4534,-3.47,-3.5065,-3.5351,-3.5573,-3.5573,-3.578,-3.6145,-3.6463,-3.6813,-3.7146,-3.7401,-3.756,-3.7671,-3.7671,-3.7671,-3.7671,-3.804,-3.8408,-3.8942,-3.9325,-3.969,-4.0038,-4.0038,-3.9856,-3.969,-3.969,-3.9308,-3.9125,-3.9508,-3.969,-4.0055,-4.0237,-4.0402,-4.0583,-4.0583,-4.0583,-4.0583,-4.0583,-4.0583,-4.0583,-4.0583,-4.0583,-4.0583,-4.0583,-4.0583,-4.0583,-4.0583,-4.0583,-4.0583,-4.0583,-4.0583,-4.0583,-4.0583,-4.0583,-4.0583,-4.0583,-4.0583,-4.0583,-4.0583,-4.0765,-4.0946,-4.1325,-4.1629,-4.2185,-4.2797,-4.3632,-4.4488,-2.8462,-2.8221,0.0,0.0,-2.7447,0.0,-2.7046,0.0,0.0,0.0,0.0,0.0,0.0,-2.6372,-2.6297,-2.6175,-2.6089,-2.6014,0.0,-2.5844,0.0,0.0,0.0,0.0,0.0,0.0,-3.0538,-3.0714,-3.1568,-3.2045,0.0,0.0,-3.2809,-3.3049,-3.3293,-3.3568,-3.3768,-3.4099,-3.4133,-3.4078,-3.3985,-3.3839,-3.382,-3.4007,-3.4191,-3.4525,-3.4874,-3.524,-3.5589,-3.5716,-3.5971,-3.632,-3.6654,-3.7003,-3.7353,-3.7591,-3.7671,-3.7671,-3.7671,-3.775,-3.8047,-3.8417,-3.9037,-3.9488,-3.9925,-4.0424,-4.0772,-4.0618,-4.0402,-4.0237,-4.0237,-3.9856,-3.9673,-4.0055,-4.0237,-4.0237,-4.0583,-4.0583,-4.0583,-4.0583,-4.0583,-4.0583,-4.0583,-4.0583,-4.0583,-4.0583,-4.0583,-4.0583,-4.0583,-4.0583,-4.0583,-4.0583,-4.0583,-4.0583,-4.0583,-4.0583,-4.0583,-4.0583,-4.0583,-4.0583,-4.0583,-4.0583,-4.0583,-4.0583,-4.0583,-4.0765,-4.1145,-4.1145,-4.1447,-4.222,-4.2744,-4.3632]},{"header":{"parameterUnit":"m.s-1","parameterCategory":1,"la1":30.6,"la2":29.2853,"lo1":-89.7004,"lo2":-87.6739,"dy":0.0162,"dx":0.0183,"nx":112,"ny":82,"refTime":"2023-06-16T12:00:00:Z","depth":0,"parameterNumber":3,"parameterNumberName":"V-component_of_WINDS"},"data":[0.0,0.0,0.0,0.0,0.0,0.0,0.0,0.0,0.0,0.0,0.0,0.0,0.0,0.0,0.0,0.0,0.0,0.0,0.0,0.0,0.0,0.0,0.0,0.0,0.0,0.0,0.0,0.0,0.0,0.0,0.0,0.0,0.0,0.0,0.0,0.0,0.0,0.0,0.0,0.0,0.0,0.0,0.0,0.0,0.0,0.0,0.0,0.0,0.0,0.0,0.0,0.0,0.0,0.0,0.0,0.0,0.0,0.0,0.0,0.0,0.0,0.0,0.0,0.0,0.0,0.0,0.0,0.0,0.0,0.0,0.0,0.0,0.0,0.0,0.0,0.0,0.0,0.0,0.0,0.0,0.0,0.0,0.0,0.0,0.0,0.0,0.0,0.0,0.0,0.0,0.0,-3.0105,-3.2067,-3.3436,-3.3718,-3.3351,-3.2838,-3.2231,0.0,0.0,0.0,0.0,0.0,0.0,0.0,0.0,0.0,0.0,0.0,0.0,0.0,0.0,0.0,0.0,0.0,0.0,0.0,0.0,0.0,0.0,0.0,0.0,0.0,0.0,0.0,0.0,0.0,0.0,0.0,0.0,0.0,0.0,0.0,0.0,0.0,0.0,0.0,0.0,0.0,0.0,0.0,0.0,0.0,0.0,0.0,0.0,0.0,0.0,0.0,0.0,0.0,0.0,0.0,0.0,0.0,0.0,0.0,0.0,0.0,0.0,0.0,0.0,0.0,0.0,0.0,0.0,0.0,0.0,0.0,0.0,0.0,0.0,0.0,0.0,0.0,0.0,0.0,0.0,0.0,0.0,0.0,0.0,0.0,0.0,0.0,0.0,0.0,0.0,0.0,0.0,0.0,0.0,0.0,0.0,0.0,0.0,0.0,0.0,0.0,0.0,0.0,0.0,-3.0087,-3.2741,-3.4205,-3.488,-3.4567,-3.4782,-3.4133,-3.2301,0.0,0.0,0.0,0.0,0.0,0.0,0.0,0.0,0.0,0.0,0.0,0.0,0.0,0.0,0.0,0.0,0.0,0.0,0.0,0.0,0.0,0.0,0.0,0.0,0.0,0.0,0.0,0.0,0.0,0.0,0.0,0.0,0.0,0.0,0.0,0.0,0.0,0.0,0.0,0.0,0.0,0.0,0.0,0.0,0.0,0.0,0.0,0.0,0.0,0.0,0.0,0.0,0.0,0.0,0.0,0.0,0.0,0.0,0.0,0.0,0.0,0.0,0.0,0.0,0.0,0.0,0.0,0.0,0.0,0.0,0.0,0.0,0.0,0.0,0.0,0.0,0.0,0.0,0.0,0.0,0.0,0.0,0.0,0.0,0.0,0.0,0.0,0.0,0.0,0.0,0.0,0.0,0.0,0.0,0.0,0.0,0.0,0.0,0.0,0.0,0.0,0.0,0.0,-2.9713,-3.1718,-3.4013,-3.5345,-3.605,-3.598,-3.5958,-3.5248,-3.3596,-3.2966,0.0,0.0,0.0,0.0,0.0,0.0,0.0,0.0,0.0,0.0,0.0,0.0,0.0,0.0,0.0,0.0,0.0,0.0,0.0,0.0,0.0,0.0,0.0,0.0,0.0,0.0,0.0,0.0,0.0,0.0,0.0,0.0,0.0,0.0,0.0,0.0,0.0,0.0,0.0,0.0,0.0,0.0,0.0,0.0,0.0,0.0,0.0,0.0,0.0,0.0,0.0,0.0,0.0,0.0,0.0,0.0,0.0,0.0,0.0,0.0,0.0,0.0,0.0,0.0,0.0,0.0,0.0,0.0,0.0,0.0,0.0,0.0,0.0,0.0,0.0,0.0,0.0,0.0,0.0,0.0,0.0,0.0,0.0,0.0,0.0,0.0,0.0,0.0,0.0,0.0,0.0,0.0,0.0,0.0,0.0,0.0,0.0,0.0,0.0,0.0,0.0,0.0,-3.134,-3.3127,-3.4886,-3.6114,-3.6915,-3.7285,-3.6965,-3.6296,-3.5209,-3.4553,0.0,0.0,0.0,0.0,0.0,0.0,0.0,0.0,0.0,0.0,0.0,0.0,0.0,0.0,0.0,0.0,0.0,0.0,0.0,0.0,0.0,0.0,0.0,0.0,0.0,0.0,0.0,0.0,0.0,0.0,0.0,0.0,0.0,0.0,0.0,0.0,0.0,0.0,0.0,0.0,0.0,0.0,0.0,0.0,0.0,0.0,0.0,0.0,0.0,0.0,0.0,0.0,0.0,0.0,0.0,0.0,0.0,0.0,0.0,0.0,0.0,0.0,0.0,0.0,0.0,0.0,0.0,0.0,0.0,0.0,0.0,0.0,0.0,0.0,0.0,0.0,0.0,0.0,0.0,0.0,0.0,0.0,0.0,0.0,0.0,0.0,0.0,0.0,0.0,0.0,0.0,0.0,0.0,0.0,0.0,0.0,0.0,0.0,0.0,0.0,0.0,0.0,-3.267,-3.423,-3.5414,-3.6638,-3.748,-3.7908,-3.7679,-3.7304,-3.6751,-3.5686,0.0,0.0,0.0,0.0,0.0,0.0,0.0,0.0,0.0,0.0,0.0,0.0,0.0,0.0,0.0,0.0,0.0,0.0,0.0,0.0,0.0,0.0,0.0,0.0,0.0,0.0,0.0,0.0,0.0,0.0,0.0,0.0,0.0,0.0,0.0,0.0,0.0,0.0,0.0,0.0,0.0,0.0,0.0,0.0,0.0,0.0,0.0,0.0,0.0,0.0,0.0,0.0,0.0,0.0,0.0,0.0,0.0,0.0,0.0,0.0,0.0,0.0,0.0,0.0,0.0,0.0,0.0,0.0,0.0,0.0,0.0,0.0,0.0,0.0,0.0,0.0,0.0,0.0,0.0,0.0,0.0,0.0,0.0,0.0,0.0,0.0,0.0,0.0,0.0,0.0,0.0,0.0,0.0,0.0,0.0,0.0,0.0,0.0,0.0,0.0,0.0,0.0,-3.2883,-3.4562,0.0,-3.7668,-3.8253,-3.8676,-3.8425,-3.7895,-3.6926,0.0,0.0,0.0,0.0,0.0,0.0,0.0,0.0,0.0,0.0,0.0,0.0,0.0,0.0,0.0,0.0,0.0,0.0,0.0,0.0,0.0,0.0,0.0,0.0,0.0,0.0,0.0,0.0,0.0,0.0,0.0,0.0,0.0,0.0,0.0,0.0,0.0,0.0,0.0,0.0,0.0,0.0,0.0,0.0,0.0,0.0,0.0,0.0,0.0,0.0,0.0,0.0,0.0,0.0,0.0,0.0,0.0,0.0,0.0,0.0,0.0,0.0,0.0,0.0,0.0,0.0,0.0,0.0,0.0,0.0,0.0,0.0,0.0,0.0,0.0,0.0,0.0,0.0,0.0,0.0,0.0,0.0,0.0,0.0,0.0,0.0,0.0,0.0,0.0,0.0,0.0,0.0,0.0,0.0,0.0,0.0,0.0,0.0,0.0,0.0,0.0,0.0,-3.1703,-3.3266,-3.5123,0.0,-3.8586,-3.9242,-3.9697,-3.9559,-3.8938,-3.7737,0.0,0.0,0.0,0.0,0.0,0.0,0.0,0.0,0.0,0.0,0.0,0.0,0.0,0.0,0.0,0.0,0.0,0.0,0.0,0.0,0.0,0.0,0.0,0.0,0.0,0.0,0.0,0.0,0.0,0.0,0.0,0.0,0.0,0.0,0.0,0.0,0.0,0.0,0.0,0.0,0.0,0.0,0.0,0.0,0.0,0.0,0.0,0.0,0.0,0.0,0.0,0.0,0.0,0.0,0.0,0.0,0.0,0.0,0.0,0.0,0.0,0.0,0.0,0.0,0.0,0.0,0.0,0.0,0.0,0.0,0.0,0.0,0.0,0.0,0.0,0.0,0.0,0.0,0.0,0.0,0.0,0.0,0.0,0.0,0.0,0.0,0.0,0.0,0.0,0.0,0.0,0.0,0.0,0.0,0.0,0.0,0.0,0.0,0.0,0.0,0.0,0.0,-3.1982,-3.3954,-3.5957,-3.7987,-3.9331,-4.0425,-4.1152,-4.1091,-4.0502,0.0,0.0,0.0,0.0,0.0,0.0,0.0,0.0,0.0,0.0,0.0,0.0,0.0,0.0,0.0,0.0,0.0,0.0,0.0,0.0,0.0,0.0,0.0,0.0,0.0,0.0,0.0,0.0,0.0,0.0,0.0,0.0,0.0,0.0,0.0,0.0,0.0,0.0,0.0,0.0,0.0,0.0,0.0,0.0,0.0,0.0,0.0,0.0,0.0,0.0,0.0,0.0,0.0,0.0,0.0,0.0,0.0,0.0,0.0,0.0,0.0,0.0,0.0,0.0,0.0,0.0,0.0,0.0,0.0,0.0,0.0,0.0,0.0,0.0,0.0,0.0,0.0,0.0,0.0,0.0,0.0,0.0,0.0,0.0,0.0,0.0,0.0,0.0,0.0,0.0,0.0,0.0,0.0,0.0,0.0,0.0,0.0,0.0,0.0,0.0,0.0,0.0,0.0,-3.2397,-3.4781,-3.6896,-3.8584,-4.0025,-4.1166,-4.1929,-4.14,-4.1,-4.0945,0.0,0.0,0.0,0.0,0.0,0.0,0.0,0.0,0.0,0.0,0.0,0.0,0.0,0.0,0.0,0.0,0.0,0.0,0.0,0.0,0.0,0.0,0.0,0.0,0.0,0.0,0.0,0.0,0.0,0.0,0.0,0.0,0.0,0.0,0.0,0.0,0.0,0.0,0.0,0.0,0.0,0.0,0.0,0.0,0.0,0.0,0.0,0.0,0.0,0.0,0.0,0.0,0.0,0.0,0.0,0.0,0.0,0.0,0.0,0.0,0.0,0.0,0.0,0.0,0.0,0.0,0.0,0.0,0.0,0.0,0.0,0.0,0.0,0.0,0.0,0.0,0.0,0.0,0.0,0.0,0.0,0.0,0.0,0.0,0.0,0.0,0.0,0.0,0.0,0.0,0.0,0.0,0.0,0.0,0.0,0.0,0.0,0.0,0.0,0.0,0.0,0.0,-3.3005,-3.5217,-3.7343,-3.937,-4.0761,-4.1839,-4.2638,-4.2549,-4.2277,-4.1815,0.0,0.0,0.0,0.0,0.0,0.0,0.0,0.0,0.0,0.0,0.0,0.0,0.0,0.0,0.0,0.0,0.0,0.0,0.0,0.0,0.0,0.0,0.0,0.0,0.0,0.0,0.0,0.0,0.0,0.0,0.0,0.0,0.0,0.0,0.0,0.0,0.0,0.0,0.0,0.0,0.0,0.0,0.0,0.0,0.0,0.0,0.0,0.0,0.0,0.0,0.0,0.0,0.0,0.0,0.0,0.0,0.0,0.0,0.0,0.0,0.0,0.0,0.0,0.0,0.0,0.0,0.0,0.0,0.0,0.0,0.0,0.0,0.0,0.0,0.0,0.0,0.0,0.0,0.0,0.0,0.0,0.0,0.0,0.0,0.0,0.0,0.0,0.0,0.0,0.0,0.0,0.0,0.0,0.0,0.0,0.0,0.0,0.0,0.0,0.0,0.0,0.0,-3.3755,-3.5416,-3.7527,-4.0323,-4.1523,-4.2518,-4.3428,-4.4251,-4.4012,-4.2334,0.0,0.0,0.0,0.0,0.0,0.0,0.0,0.0,0.0,0.0,0.0,0.0,0.0,0.0,0.0,0.0,0.0,0.0,0.0,0.0,0.0,0.0,0.0,0.0,0.0,0.0,0.0,0.0,0.0,0.0,0.0,0.0,0.0,0.0,0.0,0.0,0.0,0.0,0.0,0.0,0.0,0.0,0.0,0.0,0.0,0.0,0.0,0.0,0.0,0.0,0.0,0.0,0.0,0.0,0.0,0.0,0.0,0.0,0.0,0.0,-2.1972,0.0,0.0,0.0,0.0,0.0,0.0,0.0,0.0,0.0,0.0,0.0,0.0,0.0,0.0,0.0,0.0,0.0,0.0,0.0,0.0,0.0,0.0,0.0,0.0,0.0,0.0,0.0,0.0,0.0,0.0,0.0,0.0,0.0,0.0,0.0,0.0,0.0,0.0,0.0,0.0,0.0,-3.4266,-3.6237,-3.8402,-4.0981,-4.2558,-4.3916,-4.5014,-4.5352,-4.5285,-4.4839,-4.3576,0.0,0.0,0.0,0.0,0.0,0.0,0.0,0.0,0.0,0.0,0.0,0.0,0.0,0.0,0.0,0.0,0.0,0.0,0.0,0.0,0.0,0.0,0.0,0.0,0.0,0.0,0.0,0.0,0.0,0.0,0.0,0.0,0.0,0.0,0.0,0.0,0.0,0.0,0.0,0.0,0.0,0.0,0.0,0.0,0.0,0.0,0.0,0.0,0.0,0.0,0.0,0.0,0.0,0.0,0.0,0.0,0.0,0.0,0.0,0.0,-2.3748,0.0,0.0,0.0,0.0,0.0,0.0,0.0,0.0,0.0,0.0,0.0,0.0,0.0,0.0,0.0,0.0,0.0,0.0,0.0,0.0,0.0,0.0,0.0,0.0,0.0,0.0,0.0,0.0,0.0,0.0,0.0,0.0,0.0,0.0,0.0,0.0,0.0,0.0,0.0,0.0,-3.4932,-3.7315,-3.9528,-4.1534,-4.3394,-4.4966,-4.6026,-4.6556,-4.67,-4.6244,-4.5564,0.0,0.0,0.0,0.0,0.0,0.0,0.0,0.0,0.0,0.0,0.0,0.0,0.0,0.0,0.0,0.0,0.0,0.0,0.0,0.0,0.0,0.0,0.0,0.0,0.0,0.0,0.0,0.0,0.0,0.0,0.0,0.0,0.0,0.0,0.0,0.0,0.0,0.0,0.0,0.0,0.0,0.0,0.0,0.0,0.0,0.0,0.0,0.0,0.0,0.0,0.0,0.0,0.0,0.0,0.0,-2.8267,-2.8453,-2.9021,-2.9671,-2.759,-2.6496,-2.627,0.0,0.0,0.0,0.0,0.0,0.0,0.0,0.0,0.0,0.0,0.0,0.0,0.0,0.0,0.0,0.0,0.0,0.0,0.0,0.0,0.0,0.0,0.0,0.0,0.0,-3.0196,-3.0373,0.0,0.0,0.0,0.0,0.0,0.0,0.0,0.0,0.0,0.0,0.0,0.0,-3.6153,-3.8542,-4.0747,-4.2372,-4.4299,-4.5818,-4.6853,-4.7803,-4.8048,-4.7369,-4.7471,-4.6593,0.0,0.0,0.0,0.0,0.0,0.0,0.0,0.0,0.0,0.0,0.0,0.0,0.0,0.0,0.0,0.0,0.0,0.0,0.0,0.0,0.0,0.0,0.0,0.0,0.0,0.0,0.0,0.0,0.0,0.0,0.0,0.0,-2.9395,-2.9621,0.0,0.0,0.0,0.0,0.0,0.0,0.0,0.0,0.0,0.0,0.0,0.0,0.0,0.0,-2.7645,-2.7648,-2.8419,-2.9907,-2.9907,-3.0258,-3.0929,-3.1123,-3.1468,-3.1812,-3.1629,0.0,-2.9186,-2.8429,0.0,0.0,0.0,0.0,0.0,0.0,0.0,0.0,0.0,0.0,0.0,0.0,0.0,0.0,0.0,0.0,0.0,0.0,0.0,0.0,0.0,0.0,-3.1216,-3.2098,-3.2763,-3.3339,0.0,-3.2194,-3.0726,-3.103,0.0,0.0,0.0,0.0,0.0,0.0,0.0,0.0,-3.8495,-3.9768,-4.1534,-4.411,-4.5599,-4.6832,-4.7751,-4.8709,-4.917,-4.9019,-4.8083,-4.7611,-4.7681,-4.5912,0.0,0.0,0.0,0.0,0.0,0.0,0.0,0.0,0.0,0.0,0.0,0.0,0.0,0.0,0.0,0.0,0.0,0.0,0.0,0.0,0.0,0.0,0.0,0.0,0.0,0.0,0.0,0.0,0.0,-3.0235,-3.1275,-3.1201,-3.1132,-3.0905,0.0,0.0,0.0,0.0,0.0,0.0,0.0,0.0,0.0,-2.8072,-2.8846,-2.9559,-3.0237,-3.0263,-3.0983,-3.2411,-3.2541,-3.3038,-3.3697,-3.4059,-3.405,-3.395,-3.4325,-3.3952,-3.296,-3.1547,-3.0825,-3.0657,0.0,0.0,0.0,0.0,0.0,-3.0582,-3.0855,0.0,0.0,0.0,0.0,0.0,0.0,0.0,0.0,0.0,0.0,0.0,0.0,0.0,0.0,-3.4752,-3.5489,-3.6322,-3.7024,-3.6431,-3.5514,0.0,-3.4535,-3.4961,-3.5292,0.0,0.0,0.0,0.0,0.0,-4.0385,-4.182,-4.3364,-4.5011,-4.6585,-4.7851,-4.8711,-4.9561,-5.0013,-4.9982,-4.9748,-4.921,-4.8341,-4.7608,-4.6764,0.0,0.0,0.0,0.0,0.0,0.0,0.0,0.0,0.0,0.0,0.0,0.0,0.0,0.0,0.0,0.0,0.0,0.0,0.0,0.0,0.0,0.0,0.0,0.0,0.0,0.0,0.0,0.0,-3.2281,-3.2976,-3.3255,-3.3265,-3.328,0.0,0.0,0.0,0.0,0.0,0.0,-3.0651,-3.0993,-3.1047,-3.0762,-3.1611,-3.2356,-3.2935,-3.3041,-3.3622,-3.4846,-3.509,-3.5575,-3.6171,-3.6658,-3.6571,-3.6156,-3.6782,-3.6788,-3.62,-3.4376,-3.3354,-3.3022,-3.3156,-3.3033,0.0,-3.2741,-3.2737,-3.2737,-3.2737,-3.2737,-3.268,-3.268,0.0,-3.2667,-3.2464,0.0,0.0,0.0,0.0,-3.4992,-3.5239,0.0,-3.712,-3.7368,-3.8167,-3.9044,-3.9817,-4.0359,-4.0051,0.0,-3.7814,-3.8151,-3.8439,0.0,0.0,0.0,0.0,-4.1418,-4.2677,-4.4173,-4.5527,-4.6604,-4.8133,-4.9367,-5.0103,-5.0689,-5.1088,-5.1137,-5.12,-5.0635,-4.9294,-4.9418,-4.8844,-4.7461,0.0,0.0,0.0,0.0,0.0,0.0,0.0,0.0,0.0,0.0,0.0,0.0,0.0,0.0,0.0,0.0,0.0,0.0,0.0,0.0,0.0,0.0,0.0,0.0,0.0,0.0,0.0,0.0,0.0,-3.6681,-3.6391,0.0,0.0,0.0,0.0,-3.4879,-3.3728,-3.3309,-3.3946,-3.4036,-3.3984,-3.3756,-3.4526,-3.5192,-3.5778,-3.6055,-3.6601,-3.7338,-3.7617,-3.7812,-3.8117,-3.8531,-3.8749,-3.8721,-3.9447,-3.9122,-3.7941,-3.6237,-3.5828,-3.6184,-3.5429,-3.5216,-3.5245,-3.486,-3.4727,-3.4727,-3.4727,-3.4701,-3.4585,-3.4585,-3.4842,-3.5064,-3.4758,-3.554,0.0,0.0,-3.6842,-3.7752,-3.7928,-3.8702,-3.9525,-3.9906,-4.0672,-4.1535,-4.2561,-4.3457,-4.323,0.0,-4.0423,-4.0746,-4.1772,0.0,-4.2254,-4.305,-4.3346,-4.4129,-4.5917,-4.673,-4.7762,-4.9655,-5.0755,-5.1555,-5.2191,-5.2312,-5.2431,-5.286,-5.1943,-5.1486,-5.172,-5.1378,-5.0557,-4.9182,-4.9356,0.0,0.0,0.0,0.0,0.0,0.0,0.0,0.0,0.0,0.0,0.0,0.0,0.0,0.0,0.0,0.0,0.0,0.0,0.0,0.0,0.0,0.0,0.0,0.0,0.0,0.0,0.0,0.0,-3.9433,-3.9552,0.0,0.0,-3.8458,-3.7985,-3.8157,-3.7125,-3.6633,-3.7038,-3.6902,-3.661,-3.6136,-3.6607,-3.7091,-3.7515,-3.7392,-3.7888,-3.8929,-3.8974,-3.9228,-3.9787,-4.0126,-4.0205,-4.011,-4.0516,-4.0421,-4.0052,-3.9888,-3.8883,-3.7419,-3.7391,-3.759,-3.7966,-3.7746,-3.7775,-3.7897,-3.7897,-3.7806,-3.7684,-3.7592,-3.7561,-3.7558,-3.74,-3.7947,-3.8611,-3.8804,-3.9455,-4.016,-4.0574,-4.131,-4.2123,-4.2833,-4.3884,-4.498,-4.6233,-4.6907,-4.7116,-4.6689,-4.558,-4.4861,-4.5255,-4.5491,-4.5853,-4.6633,-4.6831,-4.7326,-4.8649,-4.9158,-4.9892,-5.0984,-5.1719,-5.2424,-5.2971,-5.3207,-5.3511,-5.4022,-5.3349,-5.2878,-5.2794,-5.2301,-5.1639,-5.0904,-5.0009,-4.9211,0.0,0.0,0.0,0.0,0.0,0.0,0.0,0.0,0.0,0.0,0.0,0.0,0.0,0.0,0.0,0.0,0.0,0.0,0.0,0.0,0.0,0.0,0.0,0.0,0.0,0.0,-4.0617,-4.182,-4.2414,-4.2624,-4.2542,-4.1816,-4.13,-4.1265,-4.0094,-3.9525,-3.9831,-3.9535,-3.9109,-3.8644,-3.8941,-3.9202,-3.9319,-3.9262,-3.9656,-4.0364,-4.0566,-4.0912,-4.1479,-4.1597,-4.1621,-4.155,-4.1726,-4.1765,-4.1607,-4.2288,-4.1464,-3.9733,-3.9606,-3.9747,-4.0039,-3.9692,-3.9659,-3.9783,-3.9783,-3.9721,-3.9659,-3.9724,-3.9913,-4.0069,-4.0224,-4.0723,-4.1216,-4.1517,-4.207,-4.2683,-4.3221,-4.3987,-4.4818,-4.5653,-4.6708,-4.7837,-4.8982,-4.9648,-5.0171,-5.0852,-4.9384,-4.8125,-4.8125,-4.8396,-4.8762,-4.9326,-4.9426,-4.9893,-5.0994,-5.1391,-5.1911,-5.2812,-5.3331,-5.3857,-5.4363,-5.4527,-5.4697,-5.5098,-5.4709,-5.4224,-5.3681,-5.345,-5.294,-5.218,-5.0986,-5.0371,-5.0213,0.0,0.0,0.0,0.0,0.0,0.0,0.0,0.0,0.0,0.0,0.0,0.0,0.0,0.0,0.0,0.0,0.0,0.0,0.0,0.0,0.0,0.0,0.0,-4.0056,-4.1229,-4.2622,-4.3912,-4.493,-4.5472,-4.5223,-4.501,-4.4562,-4.4036,-4.273,-4.2099,-4.2419,-4.1797,-4.1341,-4.1351,-4.1424,-4.1415,-4.1137,-4.1544,-4.1819,-4.1819,-4.2542,-4.2899,-4.2959,-4.2969,-4.3021,-4.3076,-4.3256,-4.303,-4.2587,-4.3318,-4.351,-4.306,-4.2055,-4.1718,-4.1559,-4.0607,-4.0251,-4.0251,-4.0251,-4.0341,-4.0559,-4.108,-4.1755,-4.259,-4.3169,-4.381,-4.4388,-4.4388,-4.4765,-4.5362,-4.6032,-4.6813,-4.7598,-4.8304,-4.9076,-4.9941,-5.0806,-5.1491,-5.2169,-5.301,-5.1663,-5.0425,-5.0493,-5.0693,-5.0826,-5.1056,-5.1217,0.0,-5.2848,-5.3232,-5.3844,-5.5094,-5.5601,-5.6019,-5.6492,-5.6263,-5.6128,-5.6273,-5.5871,-5.5367,-5.4607,-5.4899,-5.4353,-5.297,-5.2484,-5.1865,-5.114,0.0,0.0,0.0,0.0,0.0,0.0,0.0,0.0,0.0,0.0,0.0,0.0,0.0,0.0,0.0,0.0,0.0,0.0,0.0,0.0,0.0,0.0,-4.335,-4.2797,-4.4524,-4.6299,-4.7522,-4.8016,-4.8182,-4.7951,-4.763,-4.7149,-4.6618,-4.5853,-4.521,-4.494,-4.401,-4.3113,-4.2439,-4.2008,-4.1856,-4.2043,-4.1856,-4.204,-4.2482,-4.2767,-4.3076,-4.34,-4.3661,-4.4086,-4.4674,-4.4743,-4.47,-4.4802,-4.5263,-4.5352,-4.5073,-4.3849,-4.3579,-4.3878,-4.3751,-4.3877,-4.4066,-4.3907,-4.4033,-4.4128,-4.4166,-4.4299,-4.4558,-4.469,-4.5636,-4.6615,-4.6716,-4.7599,-4.8613,-4.8882,-4.9354,-4.9957,-5.0618,-5.1295,-5.1999,-5.2875,-5.3785,-5.4527,-5.483,-5.5032,-5.4627,-5.3043,-5.294,-5.3137,-5.3331,0.0,0.0,-5.4487,-5.4874,-5.5411,-5.6055,-5.6582,-5.6948,-5.7289,-5.7267,-5.7397,0.0,-5.7022,-5.6602,-5.6557,-5.6166,-5.5323,-5.404,-5.3344,-5.2673,0.0,0.0,0.0,0.0,0.0,0.0,0.0,0.0,0.0,0.0,0.0,0.0,0.0,0.0,0.0,0.0,0.0,0.0,0.0,0.0,0.0,0.0,-4.5979,-4.6663,-4.7141,-4.7943,-4.8909,-5.0108,-5.0676,-5.0909,-5.0712,-5.0379,-4.9778,-4.8895,-4.7916,-4.7164,-4.659,-4.5496,-4.4531,-4.3844,-4.3209,-4.2944,-4.2901,-4.2758,-4.2944,-4.3398,-4.3771,-4.4203,-4.4558,-4.4791,-4.5272,0.0,-4.597,-4.6119,-4.633,-4.6912,-4.7024,0.0,0.0,0.0,0.0,0.0,-4.5656,-4.5814,-4.5748,-4.5872,-4.6191,-4.6695,-4.6958,-4.7182,-4.7784,-4.8587,-4.9256,-4.9351,-5.0054,-5.0858,-5.1292,-5.162,-5.2081,-5.2895,-5.3386,-5.4005,-5.4953,-5.5633,-5.6175,-5.6551,0.0,0.0,-5.5628,-5.5426,-5.5426,-5.5617,-5.5744,-5.5951,0.0,-5.644,-5.6742,-5.6897,-5.7302,-5.769,-5.8015,-5.815,0.0,0.0,0.0,-5.7761,-5.7513,-5.685,0.0,0.0,0.0,-5.4651,0.0,0.0,0.0,0.0,-5.2285,-5.1959,0.0,0.0,0.0,0.0,0.0,0.0,0.0,0.0,0.0,0.0,0.0,0.0,0.0,0.0,0.0,0.0,-4.9328,-5.0477,-5.2088,-5.1408,-5.106,-5.2027,-5.3014,-5.3555,-5.3327,-5.2995,-5.2244,-5.0892,-4.9622,-4.8504,-4.7874,0.0,0.0,0.0,0.0,-4.4405,-4.3998,-4.4216,-4.4433,-4.4715,-4.543,-4.5949,-4.6162,-4.6426,-4.6695,-4.6826,-4.7114,-4.7388,-4.7635,-4.8392,-4.8602,-4.8213,-4.6878,-4.6553,-4.6683,-4.6495,-4.6508,0.0,0.0,0.0,0.0,-4.8957,-4.9676,-5.0095,-5.1493,-5.1939,-5.2008,-5.2008,-5.22,-5.2589,-5.3218,-5.3671,-5.4147,-5.5034,-5.5507,-5.5953,-5.6905,-5.7269,-5.761,-5.8142,-5.8295,-5.8365,-5.8219,-5.7736,-5.7381,-5.7604,-5.779,0.0,-5.7406,-5.7765,-5.7918,-5.7583,0.0,0.0,-5.8628,-5.8788,-5.8908,-5.9063,-5.9063,-5.8726,-5.7977,-5.723,-5.6855,-5.6855,-5.6922,-5.699,-5.699,-5.7196,-5.7365,-5.7497,-5.5434,-5.4536,0.0,0.0,0.0,0.0,0.0,0.0,0.0,0.0,0.0,0.0,0.0,0.0,0.0,0.0,0.0,-5.0235,-5.1228,-5.2531,-5.4728,-5.4693,-5.4422,-5.4254,-5.506,-5.536,-5.4626,-5.4207,-5.3485,-5.2225,-5.1795,-5.1096,-4.9953,-4.9255,0.0,-4.7654,-4.6936,-4.6367,-4.6079,-4.6175,-4.6271,-4.6586,0.0,0.0,-4.7525,-4.82,-4.8438,-4.8471,-4.8916,-4.9173,-4.9352,-4.9953,-5.0485,-5.0807,-4.8912,-4.8375,-4.8652,-4.8727,-4.8933,-4.9238,-4.9914,-5.0355,-5.0726,-5.1801,-5.2196,-5.2323,-5.2717,-5.3241,0.0,-5.394,-5.4477,-5.5177,-5.5411,-5.573,-5.6185,-5.7135,-5.7478,-5.7801,-5.8682,-5.942,-5.9833,-5.9844,-6.0304,-6.0652,-6.0652,-5.8991,-5.7754,-5.7938,-5.8178,-5.8245,-5.7908,-5.8347,-5.8567,-5.8215,-5.854,-5.8945,-5.9178,-5.9215,-5.9326,-5.9399,-5.9363,-5.9252,-5.9028,-5.824,-5.7827,-5.7827,-5.7225,-5.6958,-5.699,-5.7092,-5.7564,-5.8331,-5.7425,-5.711,0.0,0.0,0.0,0.0,0.0,0.0,0.0,0.0,0.0,0.0,0.0,-4.6839,0.0,0.0,-5.1288,-5.3378,-5.4012,-5.4932,-5.6888,-5.7341,-5.7277,-5.6763,-5.6814,-5.6714,-5.6234,-5.5812,-5.5084,-5.3909,-5.3523,-5.2811,-5.1597,-5.0646,-4.973,-4.8771,-4.8155,-4.7688,-4.7281,-4.7281,-4.747,-4.7876,-4.8496,-4.8865,-4.9159,-4.9573,-4.9905,-5.0214,-5.0498,-5.0833,-5.1179,-5.173,-5.2316,-5.2865,-5.1685,-5.1211,-5.107,-5.1246,-5.1476,-5.1794,-5.2292,-5.2674,-5.3087,-5.3939,-5.4296,-5.4474,-5.4973,-5.5366,-5.5794,-5.6241,-5.6814,-5.7369,-5.7854,-5.8223,-5.8537,-5.9124,-5.9297,-5.9602,-6.0541,-6.1017,-6.1281,-6.1475,-6.1768,-6.1951,-6.1804,-6.0783,-5.9902,-5.9704,-5.988,-5.9793,-5.9092,-5.9419,-5.943,-5.873,-5.8947,-5.9327,-5.9613,-5.9744,-5.9809,-5.9809,-5.9715,-5.9578,-5.9474,-5.9062,-5.8764,-5.8689,-5.8314,-5.835,-5.8834,-5.8974,-5.9559,-6.0551,-6.0437,-6.0238,0.0,0.0,0.0,0.0,0.0,0.0,0.0,0.0,-4.7305,-4.8309,-4.9079,-5.0035,-5.1551,-5.266,-5.3992,-5.5991,-5.6563,-5.7218,-5.8567,-5.9138,-5.9307,-5.8981,-5.8309,-5.7921,-5.7847,-5.737,-5.667,-5.5701,-5.4992,-5.4175,-5.3053,-5.1937,-5.0918,-4.9944,-4.9522,-4.8972,-4.8477,-4.8477,-4.8757,-4.934,-4.9855,-5.0388,-5.0931,-5.1214,-5.1598,-5.2146,-5.2302,-5.2694,-5.3112,-5.357,-5.4174,-5.4747,-5.4598,-5.4296,-5.3902,-5.358,-5.3637,-5.3956,-5.4203,-5.4547,-5.5039,-5.598,-5.6418,-5.6758,-5.7595,-5.785,-5.8045,-5.8664,-5.9042,-5.9344,-6.0004,-6.0378,-6.0646,-6.1003,-6.1078,-6.1345,-6.2242,-6.2427,-6.2521,-6.2841,-6.2892,-6.2745,-6.2515,-6.2412,-6.2149,-6.1579,-6.1579,-6.1299,-6.0259,-6.0394,-6.027,-5.9173,-5.9326,-5.9677,-6.0068,-6.0217,-6.0275,-6.0159,-6.0045,-5.9885,-5.9685,-5.9545,-5.9438,-5.9365,-5.9477,-5.9928,-6.0678,-6.1082,-6.178,-6.2775,-6.3169,-6.29,-4.3015,-4.3679,-4.4559,-4.5468,-4.6385,-4.7289,0.0,0.0,-5.0154,-5.1797,-5.2216,-5.2546,-5.3513,-5.5003,-5.6121,-5.6339,-5.7609,-5.8842,-5.955,-5.9608,-5.971,-5.9979,-5.9458,-5.9134,-5.9062,-5.8254,-5.7555,-5.7262,-5.6542,-5.5688,-5.4731,-5.4026,-5.3184,-5.2301,-5.179,-5.1269,-5.0803,-5.1083,-5.1453,-5.188,-5.2568,-5.2926,-5.3006,-5.3809,-5.413,-5.4229,-5.4805,-5.5006,-5.5059,-5.5653,-5.6224,-5.6819,-5.7011,-5.7277,-5.7336,-5.5233,-5.4713,-5.5119,-5.5811,-5.6227,-5.6801,-5.8473,-5.9087,-5.9368,-6.0351,-6.0648,-6.0648,-6.0759,-6.0933,-6.1144,-6.1218,-6.1419,-6.1766,-6.2634,-6.2821,-6.3047,-6.3873,-6.3981,-6.3937,-6.3846,-6.3587,-6.34,-6.3354,-6.3168,-6.2781,-6.2185,-6.2238,-6.1828,-6.0577,-6.0818,-6.0696,-5.9477,-5.9715,-6.0099,-6.0506,-6.061,-6.0585,-6.0453,-6.0246,-6.0068,-5.9885,-5.9685,-5.9545,-5.9512,-6.0189,-6.0603,-6.0678,-6.1719,-6.2753,-6.3753,-6.4096,-6.3872,-4.6228,-4.7084,0.0,0.0,-4.9464,-5.06,-5.0972,-5.173,-5.2565,-5.332,-5.3866,-5.4484,-5.5283,-5.6425,-5.7556,0.0,-5.9199,-5.9827,-6.0528,-6.0461,-6.0512,-6.0905,-6.0557,-6.0041,-5.956,-5.9379,-5.9087,-5.8597,-5.7945,-5.7195,-5.6302,-5.5425,-5.4601,-5.3695,-5.3315,-5.2874,-5.2457,-5.2726,-5.3051,-5.3459,-5.4147,-5.4709,-5.5194,-5.5653,-5.6048,-5.6495,-5.707,-5.7561,-5.7909,-5.8383,-5.8884,-5.9394,-5.9664,-6.0008,-6.0147,-5.7597,-5.725,-5.8085,-5.8418,-5.9078,-5.9962,-6.0713,-6.1054,-6.1281,-6.1695,-6.1808,-6.1883,-6.241,-6.2671,-6.2892,-6.3454,-6.3672,-6.3888,-6.4267,-6.4377,-6.4491,-6.4799,-6.4807,-6.4737,-6.463,-6.4407,-6.4214,-6.4016,-6.3892,-6.3723,-6.3461,-6.2724,-6.1919,-6.1011,-6.0841,-6.0567,-5.9988,-6.0208,-6.0533,-6.0734,-6.0781,-6.0757,-6.066,-6.048,-6.0285,-6.0045,-5.9885,-5.9946,-6.0335,-6.0672,-6.1385,-6.2365,-6.3052,-6.3886,-6.4938,-6.568,-6.6003,-4.9015,0.0,0.0,-5.0936,-5.2044,-5.3175,-5.3654,-5.4255,-5.4779,-5.5036,-5.5586,-5.621,-5.6777,-5.7568,-5.863,-6.0066,-6.0378,-6.067,-6.112,-6.1273,-6.1373,-6.1551,-6.1697,-6.1425,-6.0613,-6.0604,-6.0411,-5.9918,-5.9199,-5.8458,-5.7634,-5.6691,-5.5829,-5.5017,-5.4736,-5.4453,-5.403,-5.4317,-5.4621,-5.5002,-5.5651,-5.6404,-5.7204,-5.774,-5.8247,-5.8809,-5.9257,-5.9735,-6.0151,-6.0572,-6.097,-6.1384,-6.1618,-6.1917,-6.2012,-6.0191,-6.0078,-6.0792,-6.0792,-6.1425,-6.2302,-6.253,-6.2737,-6.2933,-6.3161,-6.3268,-6.3413,-6.4016,-6.4267,-6.4508,-6.5178,-6.5427,-6.552,-6.552,-6.552,-6.552,-6.552,-6.5437,-6.535,-6.5253,-6.5105,-6.4909,-6.4734,-6.4592,-6.4481,-6.4254,-6.3083,-6.2048,-6.1531,-6.0868,-6.0421,-6.0425,-6.0622,-6.0827,-6.0938,-6.0938,-6.0916,-6.085,-6.066,-6.0567,-6.0502,-6.0387,-6.0643,-6.1341,-6.1637,-6.2421,-6.3736,-6.4222,-6.4882,-6.5705,-6.683,-6.76,-5.0658,0.0,-5.157,-5.3273,-5.3752,-5.43,-5.5984,-5.647,-5.6766,-5.7606,-5.781,-5.7812,-5.7843,-5.8519,-5.9339,-6.0161,-6.0955,-6.1396,-6.1213,-6.1794,-6.2133,-6.1838,-6.2887,-6.3451,0.0,-6.1966,-6.1256,-6.1307,-6.0309,-5.938,-5.8668,-5.7887,-5.7189,-5.6581,-5.6282,-5.6047,-5.581,-5.6047,-5.636,-5.6711,-5.7312,-5.8109,-5.9111,-6.0534,-6.1081,-6.0938,-6.1482,-6.1493,-6.1177,-6.1581,-6.1916,-6.2193,-6.2395,-6.2612,-6.2881,-6.2859,-6.2691,-6.242,-6.242,-6.2671,-6.3115,-6.3882,-6.4283,-6.4609,-6.5433,-6.5673,-6.5681,-6.572,-6.5765,-6.5848,-6.5887,-6.5968,-6.6088,-6.6088,-6.6088,-6.6088,-6.6088,-6.5964,-6.5874,-6.5874,-6.568,-6.5465,-6.5465,-6.5291,-6.4908,-6.4038,-6.3175,-6.2482,-6.2211,-6.1095,-6.0387,-6.066,-6.0856,-6.1022,-6.1099,-6.1118,-6.1022,-6.092,-6.0766,-6.093,-6.1516,-6.1446,-6.1704,-6.2444,-6.334,-6.3861,-6.3993,-6.5035,-6.5666,-6.5936,-6.698,-6.8058,-5.2601,0.0,-5.409,-5.5277,-5.6051,-5.6783,-5.7967,-5.7796,-5.7504,-5.7824,-5.7454,-5.7226,-5.7806,-5.8566,-5.9396,-6.0223,-6.0984,-6.1639,-6.2065,-6.231,-6.2702,-6.3488,-6.3848,0.0,0.0,0.0,0.0,-6.2146,-6.1207,-6.0432,-5.9867,-5.9145,-5.8565,-5.8038,-5.7895,-5.7751,-5.7645,-5.7789,-5.8146,-5.8668,-5.9628,-6.0438,-6.1214,-6.2037,-6.2597,-6.294,-6.328,-6.3537,-6.3722,-6.3964,-6.4222,-6.4499,-6.4638,-6.5166,-6.5897,-6.592,-6.6295,-6.6531,-6.4561,-6.4417,-6.5174,-6.5427,-6.5606,-6.5759,-6.6089,-6.6187,-6.6144,-6.6234,-6.6251,-6.6234,-6.6295,-6.6334,-6.6389,-6.6428,-6.64,-6.6383,-6.6383,-6.6283,-6.6217,-6.6221,-6.607,-6.5968,-6.5964,-6.5827,-6.523,-6.3795,-6.2613,-6.1629,-6.1095,-6.0801,-6.0704,-6.0877,-6.106,-6.1152,-6.1208,-6.1242,-6.1169,-6.1041,-6.1481,-6.1774,-6.1851,-6.2349,-6.2957,-6.3676,-6.4039,-6.4545,-6.5202,-6.5692,-6.629,-6.698,-6.8058,-6.9084,-5.4392,-5.5142,-5.5852,-5.7087,-5.7806,-5.8453,-5.9372,-5.8883,-5.828,-5.8324,-5.7645,-5.7226,-5.781,-5.8574,-5.9407,-6.0275,-6.1041,-6.179,-6.2549,-6.282,-6.3361,-6.4502,-6.4731,-6.4872,0.0,0.0,0.0,-6.2892,-6.2146,-6.1548,-6.0961,-6.0484,-6.0051,-5.9663,-5.9634,-5.9569,-5.9564,-5.9727,-6.007,-6.0642,-6.1589,-6.2311,-6.2889,-6.3349,-6.3862,-6.4369,-6.4926,-6.5384,-6.58,-6.6277,-6.6551,-6.6761,-6.6896,-6.7386,-6.8005,-6.8044,-6.848,-6.8738,-6.6495,-6.6167,-6.6739,-6.6431,-6.64,-6.6462,-6.6491,-6.6489,-6.6507,-6.6566,-6.6566,-6.6556,-6.6585,-6.6613,-6.6613,-6.6652,-6.6654,-6.6603,-6.6603,-6.6556,-6.6513,-6.6528,-6.6436,-6.6322,-6.6322,-6.5735,-6.487,-6.3729,-6.2348,-6.1228,-6.0657,-6.0779,-6.0963,-6.1098,-6.122,-6.1283,-6.1322,-6.1352,-6.1438,-6.1634,-6.2123,-6.2568,-6.2975,-6.3507,-6.4114,-6.4885,-6.4985,-6.5326,-6.5951,-6.6126,-6.6707,-6.7681,-6.8708,-6.9674,-5.5999,-5.6514,-5.6943,-5.8646,-5.9053,-5.9311,-6.0191,-5.9736,-5.909,-5.9026,-5.8378,-5.7845,0.0,0.0,-5.9373,-6.021,-6.1066,-6.185,-6.2666,-6.3362,-6.4089,0.0,0.0,0.0,0.0,0.0,0.0,-6.368,0.0,-6.2608,-6.2126,-6.1842,-6.1623,-6.1384,-6.1384,-6.144,-6.1606,-6.1661,-6.2,-6.2622,-6.3169,-6.3691,-6.4178,-6.463,-6.5085,-6.5435,-6.6507,-6.7127,-6.7393,-6.8313,-6.8762,-6.8816,-6.894,-6.9094,-6.9175,-6.9253,-6.9305,-6.9189,-6.82,-6.7864,-6.7762,-6.6927,-6.6688,-6.6687,-6.6699,-6.6745,-6.6789,-6.6789,-6.6789,-6.6789,-6.6789,-6.6789,-6.6789,-6.6789,-6.6789,-6.6789,-6.6789,-6.6766,-6.6694,-6.6694,-6.6654,-6.6618,-6.6595,-6.5139,-6.3936,-6.3818,-6.2407,-6.1278,-6.1057,-6.1074,-6.1164,-6.1283,-6.1369,-6.1408,-6.1408,-6.1447,-6.181,-6.254,-6.261,-6.33,-6.477,-6.4848,-6.5252,-6.6019,-6.6088,-6.6167,-6.6205,-6.6384,-6.7019,-6.7982,-6.8921,-6.9863,-5.7078,-5.7818,-5.8598,-5.9698,-5.998,-6.0027,-6.0278,-5.9677,-5.8916,-5.828,-5.7508,-5.6937,0.0,0.0,0.0,-5.9412,-6.0659,0.0,-6.3542,-6.3858,0.0,-6.5851,0.0,-6.6028,-6.5881,-6.5765,0.0,0.0,-6.4294,-6.3734,-6.3525,-6.3214,-6.2993,-6.2946,-6.2852,-6.2862,-6.3057,-6.3376,-6.363,-6.3949,-6.4972,-6.5631,-6.5976,-6.6921,-6.7513,-6.774,-6.8154,-6.8375,-6.8562,-6.8894,-6.9041,-6.9119,-6.9175,-6.9634,-7.0231,-7.0231,-7.0654,-7.1077,-7.0182,-6.9035,-6.7955,-6.7757,-6.7265,-6.6715,-6.6708,-6.6706,-6.6738,-6.6717,-6.6727,-6.6742,-6.6742,-6.6747,-6.6747,-6.6727,-6.677,-6.6781,-6.6781,-6.6793,-6.6758,-6.6718,-6.6708,-6.6687,-6.6673,-6.5769,-6.4782,-6.4138,-6.3123,-6.2141,-6.1317,-6.1344,-6.1433,-6.1445,-6.15,-6.152,-6.1461,-6.2104,-6.2551,-6.2653,-6.3884,-6.4736,-6.507,-6.5724,-6.6167,-6.6384,-6.6392,-6.6436,-6.6517,-6.7243,-6.8065,-6.8983,-6.9928,-7.078,-5.8022,-5.8918,-5.9776,-6.0624,-6.0536,-6.0312,-6.03,-5.9373,-5.8343,-5.7874,-5.7143,0.0,-5.6554,0.0,0.0,0.0,0.0,0.0,-6.3838,-6.4109,-6.4687,0.0,-6.6431,0.0,-6.6244,-6.6187,-6.6088,0.0,-6.5188,-6.4685,-6.4547,-6.4293,-6.437,-6.4709,-6.4633,-6.486,-6.5423,-6.5813,-6.6008,-6.6162,-6.6891,-6.7346,-6.7571,-6.8243,-6.8661,-6.8859,0.0,-6.9593,-6.9747,-7.0141,-7.0337,-7.0385,-7.0419,-7.0738,-7.1161,-7.117,-7.1444,-7.178,-7.1267,-7.0161,-6.8841,-6.821,-6.7643,-6.7157,-6.6711,-6.6555,-6.6585,-6.6585,-6.6566,-6.6594,-6.6603,-6.6619,-6.6619,-6.6633,-6.6681,-6.6705,-6.6752,-6.6766,-6.6739,-6.6694,-6.6692,-6.6713,-6.6717,-6.6015,-6.5272,-6.4801,-6.398,-6.3193,-6.2641,-6.1953,-6.1549,-6.1556,-6.1914,-6.2148,-6.2134,-6.2953,-6.3592,-6.3906,-6.4849,-6.5543,-6.5867,-6.6309,-6.6607,-6.6594,-6.6579,-6.678,-6.7227,-6.779,-6.8652,-6.9872,-7.0429,-7.1119,-5.8802,-5.9698,-6.0624,-6.1334,-6.0905,-6.0243,-6.0156,-5.887,-5.768,-5.7641,0.0,-5.648,-5.6484,-5.7257,-5.8164,-5.8979,0.0,-6.1286,-6.3826,-6.4201,-6.4809,-6.6439,-6.6634,-6.663,-6.6694,-6.6718,-6.6703,-6.678,-6.6244,-6.5779,-6.5493,-6.5523,-6.5906,-6.6586,-6.6653,-6.7055,-6.7933,-6.818,-6.8366,-6.8485,-6.8685,-6.8873,-6.9026,-6.9212,-6.936,-6.9512,0.0,0.0,-7.0814,-7.1591,-7.1893,-7.1903,-7.1912,-7.1875,-7.1869,-7.187,-7.1831,-7.1711,-7.1665,-7.1025,-7.006,-6.8669,-6.8047,-6.7665,-6.6796,-6.6431,-6.6353,-6.6353,-6.6353,-6.6368,-6.645,-6.6464,-6.6478,-6.6543,-6.6555,-6.6567,-6.6641,-6.668,-6.6669,-6.6659,-6.6673,-6.6666,-6.6674,-6.6126,-6.5602,-6.5485,-6.4821,-6.4314,-6.4197,-6.2851,-6.1944,-6.1948,-6.2602,-6.306,-6.306,-6.3862,-6.4704,-6.5445,-6.5605,-6.5991,-6.668,-6.6719,-6.678,-6.6867,-6.6906,-6.7305,-6.8176,-6.8346,-6.9177,-7.0583,-7.08,-7.1238,-5.8968,-6.0137,-6.1334,-6.1456,-6.0834,-6.0016,-5.9316,-5.8403,0.0,0.0,-5.6574,-5.6517,-5.6503,-5.7239,-5.8114,-5.8977,0.0,0.0,0.0,0.0,-6.486,0.0,-6.6717,-6.6956,-6.7672,0.0,0.0,0.0,0.0,0.0,-6.7149,-6.7734,-6.8165,-6.8258,-6.8336,-6.8452,-6.8618,-6.8801,-6.8897,-6.8917,-6.9733,-7.0151,-7.0247,-7.1019,-7.1384,-7.1429,0.0,0.0,-7.1708,-7.1835,-7.1912,-7.1984,-7.1932,-7.1884,-7.1817,-7.1679,-7.1583,-7.1442,-7.1281,-7.1059,-7.0722,-6.9959,-6.87,-6.7445,-6.7212,-6.6668,-6.6084,-6.6084,-6.6084,-6.6105,-6.6147,-6.6148,-6.6205,-6.626,-6.6295,-6.6367,-6.6454,-6.6485,-6.6514,-6.6528,-6.6517,-6.6555,-6.6613,-6.6517,-6.6186,-6.5541,-6.5307,-6.4918,-6.4207,-6.3911,-6.3744,-6.3744,-6.3866,-6.3984,-6.3984,-6.4804,-6.5387,-6.55,-6.6162,-6.6625,-6.6766,-6.6774,-6.7132,-6.7841,-6.7849,-6.8281,-6.9179,-6.9839,-7.0331,-7.0615,-7.1339,-7.2078,-5.8997,-6.0233,-6.1379,-6.0927,-6.0125,-5.9218,-5.8363,0.0,0.0,0.0,-5.5735,-5.5771,-5.5786,-5.6134,0.0,-5.8753,0.0,0.0,0.0,0.0,0.0,-6.6601,-6.7148,-6.7537,0.0,0.0,0.0,0.0,0.0,0.0,0.0,-6.9188,-6.9628,-6.9645,-7.0102,-7.0364,-7.0364,-7.0863,-7.1135,-7.1199,-7.2084,-7.2533,-7.2613,-7.3047,-7.3242,-7.3242,0.0,0.0,-7.3197,-7.3186,-7.3197,-7.325,-7.3193,-7.3091,-7.2974,-7.2771,-7.2287,-7.1711,-7.1428,-7.094,-7.0302,-6.9932,-6.9113,-6.8219,-6.7637,-6.716,-6.6748,-6.6326,-6.6238,-6.6216,-6.5833,-6.5793,-6.589,-6.5997,-6.6084,-6.6147,-6.6167,-6.6264,-6.6301,-6.6281,-6.6334,-6.6345,-6.6377,-6.6461,-6.6373,-6.5997,-6.5946,-6.5829,-6.5401,-6.5366,-6.5074,-6.4223,-6.4598,-6.4882,-6.4891,-6.5716,-6.6227,-6.6192,-6.6582,-6.6781,-6.6784,-6.7249,-6.7676,-6.8105,-6.8507,-6.9159,-7.0018,-7.038,-7.0775,-7.1204,-7.2055,-7.2599,-5.8704,-5.9927,-6.0993,-6.0139,-5.9335,-5.857,-5.7677,-5.6706,0.0,-5.5112,-5.4886,-5.484,-5.5045,-5.5121,-5.5942,0.0,-5.8916,-6.0222,0.0,0.0,0.0,0.0,-6.7498,0.0,0.0,0.0,0.0,0.0,0.0,0.0,0.0,-7.0664,-7.1132,-7.1327,-7.1986,-7.2374,-7.2342,-7.3046,-7.3397,-7.3451,-7.4115,-7.4423,-7.4491,-7.4491,-7.4486,-7.4486,0.0,0.0,0.0,-7.4365,-7.4327,-7.4325,-7.4218,-7.4094,-7.3936,-7.3651,-7.2945,-7.2063,-7.1646,-7.0761,-6.9737,-6.9374,-6.9096,-6.8711,-6.7905,-6.7496,-6.7192,-6.6654,-6.6569,-6.6445,-6.5696,-6.5656,-6.5771,-6.569,-6.5782,-6.5881,-6.5881,-6.5967,-6.6013,-6.6013,-6.6063,-6.6088,-6.6108,-6.6225,-6.6281,-6.6338,-6.6373,-6.6406,-6.6406,-6.6461,-6.5949,-6.4662,-6.525,-6.5736,-6.5753,-6.6377,-6.6767,-6.6767,-6.6767,-6.6845,-6.704,-6.7703,-6.8249,-6.8592,-6.9206,-6.9963,-7.0859,-7.0966,-7.1301,-7.1933,-7.2827,-7.3195,-5.7764,-5.8972,-6.0021,-5.9124,-5.8823,-5.8483,-5.7591,0.0,-5.5007,-5.4932,-5.4324,-5.4064,-5.4866,-5.5041,-5.5667,-5.7458,-5.8432,-5.9941,0.0,0.0,0.0,-6.6496,0.0,0.0,0.0,0.0,0.0,0.0,0.0,0.0,0.0,-7.2713,-7.3154,-7.4,-7.4122,-7.4145,-7.4145,-7.4246,-7.4264,-7.4275,-7.434,-7.4392,-7.4431,-7.4427,-7.44,-7.44,0.0,0.0,0.0,-7.4223,-7.4164,-7.4123,-7.3898,-7.3751,-7.3498,-7.3138,-7.2677,-7.2168,-7.1482,-7.0555,-6.9602,-6.8919,-6.8294,-6.7827,-6.7785,-6.7138,-6.6453,-6.6701,-6.6741,-6.6632,-6.6103,-6.5947,-6.5863,-6.5366,-6.5397,-6.5552,-6.5552,-6.5608,-6.5651,-6.5705,-6.5731,-6.5782,-6.5905,-6.5928,-6.5974,-6.6123,-6.6144,-6.6165,-6.6205,-6.6205,-6.6187,-6.6013,-6.6275,-6.6477,-6.6489,-6.6613,-6.6722,-6.6722,-6.6722,-6.7063,-6.7842,-6.7959,-6.8738,-7.0258,-7.0278,-7.0706,-7.1615,-7.2345,-7.2651,-7.2638,-7.3491,-7.4182,-5.7405,-5.8362,-5.9056,-5.8196,-5.7915,-5.7611,-5.6725,0.0,-5.4652,-5.411,-5.3367,-5.3049,-5.3955,-5.4114,-5.4854,-5.7133,-5.8221,-5.9736,-6.2315,0.0,0.0,0.0,0.0,0.0,0.0,0.0,0.0,0.0,0.0,0.0,0.0,0.0,-7.3829,-7.4209,-7.4248,-7.4272,-7.4287,-7.4742,-7.5001,-7.5011,-7.5533,-7.5782,-7.5782,-7.5759,-7.5774,-7.5774,0.0,0.0,0.0,-7.562,-7.5508,-7.5387,-7.5205,-7.4934,-7.4605,-7.4025,-7.3144,-7.217,-7.1403,-7.031,-6.9116,-6.8632,-6.816,-6.7684,-6.7487,-6.7296,-6.7098,-6.6712,-6.6788,-6.6829,-6.6223,-6.5948,-6.5841,-6.5682,-6.5365,-6.5161,-6.5161,-6.5188,-6.5245,-6.5337,-6.5367,-6.5427,-6.558,-6.569,-6.5743,-6.5795,-6.5895,-6.5943,-6.5967,-6.5967,-6.5967,-6.5967,-6.6206,-6.6384,-6.64,-6.65,-6.6722,-6.7256,-6.7294,-6.7683,-6.8578,-6.9123,-6.9706,-7.0367,-7.0798,-7.1448,-7.2302,-7.256,-7.2865,-7.3257,-7.4146,-7.4874,-5.6562,-5.7474,-5.807,-5.7168,-5.7077,-5.6984,0.0,0.0,-5.4071,-5.3474,-5.2468,-5.2078,-5.3181,-5.3426,-5.4155,-5.6527,-5.7893,-5.9436,-6.1811,-6.3107,0.0,0.0,0.0,0.0,0.0,0.0,0.0,0.0,0.0,0.0,0.0,0.0,-7.4612,-7.4732,-7.4769,-7.4787,-7.4847,-7.5408,-7.5701,-7.5702,-7.6323,-7.6594,-7.6594,-7.6594,-7.6594,0.0,0.0,0.0,0.0,-7.645,-7.632,-7.6109,-7.589,-7.5545,-7.5092,-7.4384,-7.3297,-7.2066,-7.1165,-6.9937,-6.8658,-6.8199,-6.7756,-6.7298,-6.7122,-6.7288,-6.7451,-6.6809,-6.6824,-6.6876,-6.6415,-6.6126,-6.5946,-6.6026,-6.5728,-6.5426,-6.5426,-6.5463,-6.5459,-6.5335,-6.5365,-6.5356,-6.5296,-6.5345,-6.5435,-6.5465,-6.558,-6.5663,-6.569,-6.569,-6.5767,-6.5997,-6.6227,-6.6411,-6.6574,-6.6613,-6.7017,-6.7906,-6.7945,-6.839,-6.9261,-6.9882,-7.0308,-7.0562,-7.128,-7.1975,-7.2573,-7.2963,-7.3382,-7.3867,-7.4984,-7.5917,-5.4831,-5.6046,-5.7077,-5.6058,-5.6444,-5.6865,0.0,0.0,-5.3203,-5.3203,-5.1818,-5.1125,-5.2895,-5.3205,-5.3764,-5.5519,-5.7352,-5.909,-6.0886,-6.2549,0.0,0.0,0.0,0.0,0.0,0.0,0.0,0.0,0.0,0.0,0.0,0.0,-7.584,-7.6185,-7.6185,-7.6234,-7.6359,-7.6397,-7.6397,-7.6397,-7.6397,-7.6397,-7.6397,-7.6397,0.0,0.0,0.0,0.0,0.0,-7.6225,-7.6062,-7.5787,-7.5489,-7.5057,-7.4493,-7.3688,-7.2795,-7.1852,-7.0698,-6.9422,-6.815,-6.7487,-6.6965,-6.6631,-6.6665,-6.6878,-6.7079,-6.6954,-6.6829,-6.6764,-6.6764,-6.6526,-6.6262,-6.6299,-6.6518,-6.6687,-6.6687,-6.6687,-6.6503,-6.5916,-6.5804,-6.5578,-6.5004,-6.4958,-6.5023,-6.5085,-6.5188,-6.5321,-6.5413,-6.5413,-6.5719,-6.6522,-6.6598,-6.6748,-6.7166,-6.72,-6.7579,-6.8513,-6.859,-6.9021,-6.9976,-7.0015,-7.038,-7.1163,-7.1902,-7.2277,-7.2199,-7.385,-7.458,-7.4427,-7.6114,-7.7632,-5.3674,-5.4628,-5.5307,-5.4939,-5.5412,-5.59,-5.5562,0.0,-5.3805,-5.3805,-5.2924,-5.2464,-5.3613,-5.3828,-5.4411,-5.6191,-5.7428,-5.8973,-6.1373,0.0,0.0,0.0,0.0,0.0,0.0,0.0,0.0,0.0,0.0,0.0,0.0,0.0,0.0,-7.584,-7.5957,-7.6013,-7.6041,-7.6041,-7.6041,-7.6041,-7.6041,-7.6041,-7.6041,-7.6041,0.0,0.0,0.0,0.0,0.0,-7.5908,-7.5724,-7.5489,-7.5132,-7.4918,-7.4645,-7.3754,-7.3117,-7.2653,-7.1481,-7.0213,-6.9053,-6.8734,-6.8059,-6.7411,-6.7307,-6.7447,-6.7618,-6.7583,-6.7393,-6.7247,-6.739,-6.7123,-6.6786,-6.6786,-6.6528,-6.6381,-6.6381,-6.6425,-6.6437,-6.6345,-6.627,-6.6237,-6.6137,-6.6256,-6.6371,-6.6408,-6.6518,-6.6663,-6.6698,-6.6698,-6.6774,-6.704,-6.7078,-6.7283,-6.7688,-6.7745,-6.8175,-6.9129,-6.9232,-6.9643,-7.0568,-7.0516,-7.0875,-7.1734,-7.19,-7.2502,-7.3653,-7.403,-7.4702,-7.5665,-7.7302,-7.8552,-5.2473,-5.3359,-5.3933,-5.3827,-5.4388,0.0,0.0,0.0,-5.3937,-5.391,-5.3263,-5.292,-5.3758,-5.3937,-5.4523,-5.6308,-5.7315,-5.8821,-6.1493,0.0,0.0,0.0,0.0,0.0,0.0,0.0,0.0,0.0,0.0,0.0,0.0,0.0,0.0,-7.5318,-7.5556,-7.5686,-7.5718,-7.5718,-7.5718,-7.5718,-7.5718,-7.5718,-7.5718,0.0,0.0,0.0,0.0,0.0,0.0,-7.5523,-7.5351,-7.5171,-7.5039,-7.4798,-7.4397,-7.3817,-7.3269,-7.262,-7.1628,-7.0575,-6.9682,-6.9164,-6.8579,-6.8172,-6.8374,-6.8223,-6.7914,-6.8156,-6.7978,-6.7816,-6.7964,-6.7663,-6.7345,-6.7345,-6.7123,-6.6898,-6.6898,-6.6993,-6.6975,-6.6731,-6.6694,-6.6672,-6.6506,-6.6645,-6.677,-6.6811,-6.6972,-6.705,-6.705,-6.705,-6.7163,-6.7465,-6.7503,-6.7922,-6.8823,-6.8502,-6.8635,-6.9635,-7.0049,-7.0463,-7.1022,-7.1298,-7.1688,-7.2128,-7.2338,-7.292,-7.3987,-7.4372,-7.539,-7.689,-7.8164,-7.9169,0.0,-5.2291,-5.2938,-5.2738,-5.3353,-5.3951,0.0,0.0,0.0,-5.3707,-5.3072,-5.2769,-5.3526,-5.3774,-5.443,-5.6112,-5.7197,-5.873,-6.1268,0.0,0.0,0.0,0.0,0.0,0.0,0.0,0.0,0.0,0.0,0.0,0.0,0.0,0.0,0.0,-7.5208,-7.5359,-7.5351,-7.5351,-7.5351,-7.5351,-7.5351,-7.5351,-7.5351,0.0,0.0,0.0,0.0,0.0,0.0,-7.5132,-7.4941,-7.4774,-7.5125,-7.4732,-7.4032,-7.4066,-7.3249,-7.2144,-7.1377,-7.0742,-6.9996,-6.9008,-6.8739,-6.9002,-6.9705,-6.9136,-6.8326,-6.8686,-6.8669,-6.8487,-6.8487,-6.8239,-6.7973,-6.7973,-6.8041,-6.807,-6.807,-6.807,-6.7899,-6.7222,-6.7074,-6.6913,-6.6407,-6.6396,-6.6486,-6.6618,-6.6748,-6.6828,-6.6828,-6.6866,-6.7166,-6.7959,-6.8109,-6.8747,-7.0323,-6.9391,-6.9133,-7.008,-7.0951,-7.1405,-7.1367,-7.22,-7.2583,-7.2433,-7.3187,-7.3598,-7.3586,-7.4952,-7.6395,-7.7936,-7.8703,-7.9567,-4.9272,0.0,-5.1888,-5.1839,-5.2322,-5.2948,0.0,0.0,0.0,0.0,0.0,0.0,0.0,-5.4963,-5.5782,-5.6866,-5.8262,-5.9923,-6.195,0.0,0.0,0.0,0.0,0.0,0.0,0.0,0.0,0.0,0.0,0.0,0.0,0.0,0.0,0.0,-7.627,-7.5852,-7.4979,-7.4941,-7.4941,-7.4941,-7.4941,-7.5018,0.0,0.0,0.0,0.0,0.0,0.0,0.0,-7.4778,-7.4487,-7.4297,-7.4599,-7.4626,-7.4482,-7.4326,-7.4047,-7.3575,-7.2823,-7.1905,-7.1015,-6.9911,-6.9826,-7.0113,-7.0097,-6.9697,-6.9245,-6.976,-6.9648,-6.9325,-6.9535,-6.9118,-6.8659,-6.8659,-6.8288,-6.7952,-6.7952,-6.8055,-6.8033,-6.7899,-6.7825,-6.7788,-6.7704,-6.7728,-6.7826,-6.7874,-6.797,-6.8101,-6.8101,-6.8575,-6.9059,-6.9246,-6.9804,-7.0325,-7.0735,-7.0271,-7.0395,-7.1308,-7.1697,-7.1814,-7.1776,-7.2044,-7.2381,-7.2817,-7.4109,-7.4929,-7.5321,-7.6317,-7.6924,-7.7266,-7.8826,-7.9999,-4.8465,-4.972,-5.0812,-5.0786,-5.1288,-5.1945,-5.2689,0.0,0.0,0.0,0.0,0.0,0.0,0.0,-5.6278,-5.7962,-5.8942,0.0,0.0,0.0,0.0,0.0,0.0,0.0,0.0,0.0,0.0,0.0,0.0,0.0,0.0,0.0,0.0,0.0,0.0,-7.6187,-7.5651,-7.5658,-7.5739,-7.5739,-7.5782,-7.5641,-7.5342,0.0,0.0,0.0,0.0,0.0,-7.4653,-7.4267,-7.3991,-7.3815,-7.4384,-7.4441,-7.4188,-7.4575,-7.4432,-7.4018,-7.3496,-7.2731,-7.185,-7.1368,-7.1061,-7.091,-7.0982,-7.0647,-7.0433,-7.0717,-7.0508,-7.0223,-7.0376,-6.9961,-6.9449,-6.9449,-6.9173,-6.8897,-6.8843,-6.8897,-6.8897,-6.8806,-6.8752,-6.8806,-6.886,-6.8914,-6.902,-6.9073,-6.9126,-6.9178,-6.9178,-6.9547,-6.9843,-6.9843,-7.0212,-7.0618,-7.0988,-7.0842,-7.097,-7.1369,-7.1845,-7.2116,-7.1986,-7.2454,-7.296,-7.3504,-7.4621,-7.549,-7.5976,-7.6513,-7.7049,-7.771,-7.9142,-8.0295,-4.8004,-4.9022,-4.9879,-4.9852,-5.044,-5.1156,-5.1833,-5.2564,0.0,0.0,0.0,0.0,0.0,-5.5808,0.0,0.0,0.0,0.0,0.0,0.0,0.0,0.0,0.0,0.0,0.0,0.0,0.0,0.0,0.0,0.0,0.0,0.0,0.0,0.0,0.0,0.0,-7.6818,-7.6751,-7.6733,-7.6733,-7.6827,-7.6496,-7.5901,-7.5751,0.0,0.0,0.0,0.0,-7.4177,-7.38,-7.3503,-7.3289,-7.4301,-7.4259,-7.3632,-7.4655,-7.4633,-7.401,-7.3852,-7.3317,-7.2801,-7.2894,-7.2395,-7.1765,-7.1899,-7.1734,-7.1521,-7.1531,-7.1271,-7.1062,-7.1216,-7.0804,-7.0293,-7.0293,-7.0183,-7.0054,-6.9941,-6.9884,-6.9827,-6.9654,-6.9559,-6.9559,-6.9675,-6.9697,-6.9697,-6.9868,-6.9868,-6.9868,-6.9868,-6.9978,-7.0051,-7.0051,-7.0271,-7.071,-7.1369,-7.1552,-7.1561,-7.1389,-7.2095,-7.2518,-7.2563,-7.3335,-7.3919,-7.4327,-7.499,-7.5684,-7.6276,-7.6276,-7.7045,-7.851,-7.9606,-8.0467,-4.7191,-4.8288,-4.9446,-4.9692,-5.0266,-5.1005,-5.1737,-5.2465,-5.3409,0.0,0.0,0.0,0.0,0.0,0.0,0.0,0.0,0.0,0.0,0.0,0.0,0.0,0.0,0.0,0.0,0.0,0.0,0.0,0.0,0.0,0.0,0.0,0.0,0.0,0.0,0.0,0.0,-7.676,-7.6293,-7.6293,-7.6306,-7.6319,-7.6316,-7.5604,-7.5276,0.0,0.0,0.0,-7.38,-7.354,-7.3178,-7.289,-7.4019,-7.4079,-7.3668,-7.4582,-7.4669,-7.4209,-7.3975,-7.3983,-7.397,-7.3825,-7.3725,-7.344,-7.2665,-7.2329,-7.2243,-7.1874,-7.1794,-7.1865,-7.2021,-7.161,-7.1138,-7.1138,-7.0511,-6.9941,-6.9884,-6.977,-6.9559,-6.9477,-6.9381,-6.9285,-6.9225,-6.9201,-6.9165,-6.9261,-6.9225,-6.9225,-6.9225,-6.9806,-7.0241,-7.0241,-7.1475,-7.2345,-7.2454,-7.3071,-7.3498,-7.3416,-7.3597,-7.3941,-7.4585,-7.4675,-7.4918,-7.5359,-7.5505,-7.6081,-7.7171,-7.7171,-7.7679,-7.8622,-7.9761,-8.0436,-4.726,-4.8231,-4.9272,-4.9888,-5.0295,-5.0895,-5.2173,-5.3005,-5.3868,0.0,0.0,0.0,0.0,0.0,0.0,0.0,0.0,0.0,0.0,0.0,0.0,0.0,0.0,0.0,0.0,0.0,0.0,0.0,0.0,0.0,0.0,0.0,0.0,0.0,0.0,0.0,0.0,-7.716,-7.7014,-7.7179,-7.725,-7.708,-7.6722,-7.6349,-7.573,0.0,0.0,-7.3936,-7.335,-7.3017,-7.2686,-7.2511,-7.3078,-7.329,-7.3431,-7.4363,-7.4593,-7.4441,-7.4364,-7.4517,-7.4748,-7.4688,-7.4547,-7.4254,-7.3411,-7.2893,-7.2481,-7.1811,-7.1842,-7.2084,-7.224,-7.2123,-7.1945,-7.1945,-7.1574,-7.1165,-7.1048,-7.0834,-7.0629,-7.0444,-7.022,-7.0029,-6.9965,-6.9901,-6.9979,-7.0411,-7.0446,-7.0626,-7.1057,-7.1416,-7.1668,-7.1668,-7.2211,-7.2573,-7.2746,-7.3001,-7.3317,-7.3856,-7.3942,-7.4092,-7.4457,-7.4832,-7.5043,-7.5146,-7.6016,-7.6678,-7.7088,-7.7521,-7.817,-7.8963,-7.9645,-8.0185,-4.7448,-4.8373,-4.9408,-5.0263,-5.0554,-5.1102,-5.2748,-5.3721,-5.4577,0.0,0.0,0.0,0.0,0.0,0.0,0.0,0.0,0.0,0.0,0.0,0.0,0.0,0.0,0.0,0.0,0.0,0.0,0.0,0.0,0.0,0.0,0.0,0.0,0.0,0.0,0.0,0.0,-7.7892,-7.7952,-7.79,-7.8034,-7.7794,-7.72,-7.7014,-7.6235,-7.5085,-7.4754,-7.409,-7.3258,-7.2867,-7.2526,-7.2121,-7.2364,-7.2844,-7.3404,-7.4287,-7.4669,-7.4669,-7.4744,-7.4968,-7.5262,-7.5334,-7.526,-7.4957,-7.4266,-7.3537,-7.2834,-7.2001,-7.1863,-7.1964,-7.2144,-7.2321,-7.2438,-7.2438,-7.2321,-7.2144,-7.1927,-7.162,-7.1404,-7.1146,-7.1027,-7.0865,-7.0797,-7.0838,-7.1019,-7.1588,-7.1588,-7.1837,-7.2441,-7.2548,-7.2548,-7.2548,-7.2509,-7.2687,-7.3046,-7.29,-7.3082,-7.3823,-7.3884,-7.4018,-7.4266,-7.488,-7.5209,-7.5217,-7.6372,-7.7092,-7.7271,-7.7807,-7.8523,-7.9386,-7.9609,-8.0007,-4.7422,-4.8568,-4.9935,-5.0823,-5.1268,-5.1927,-5.346,-5.4503,-5.5731,-5.7996,0.0,0.0,0.0,0.0,0.0,0.0,0.0,0.0,0.0,0.0,0.0,0.0,0.0,0.0,0.0,0.0,0.0,0.0,0.0,0.0,0.0,0.0,0.0,0.0,0.0,0.0,0.0,0.0,-7.8556,-7.7643,-7.7762,-7.7842,-7.771,-7.6934,-7.6565,-7.638,-7.5641,-7.4659,-7.3655,-7.3597,-7.2921,-7.1889,-7.2463,-7.3204,-7.4047,-7.4648,-7.4894,-7.4894,-7.5116,-7.5262,-7.555,-7.5796,-7.5898,-7.5787,-7.5195,-7.4464,-7.3667,-7.2834,-7.2237,-7.1842,-7.1988,-7.2144,-7.2299,-7.2299,-7.2144,-7.1964,-7.162,-7.1404,-7.1146,-7.065,-7.1049,-7.1479,-7.109,-7.1473,-7.1784,-7.1854,-7.1704,-7.1628,-7.1699,-7.1699,-7.1699,-7.1699,-7.2366,-7.3069,-7.3772,-7.3842,-7.3842,-7.392,-7.3932,-7.4405,-7.537,-7.5442,-7.5836,-7.6554,-7.6407,-7.697,-7.8313,-7.8114,-7.8575,-7.9594,-7.975,-8.0018,-4.8265,-4.904,-4.9929,-5.1327,-5.2225,0.0,0.0,-5.5866,-5.7381,-5.8386,-5.9301,0.0,0.0,0.0,0.0,0.0,0.0,0.0,0.0,0.0,0.0,0.0,0.0,0.0,0.0,0.0,0.0,0.0,0.0,0.0,0.0,0.0,0.0,0.0,0.0,0.0,0.0,0.0,-7.8649,-7.8267,-7.8044,-7.7657,-7.7181,-7.6851,-7.6448,-7.5971,-7.5678,-7.5031,-7.4141,-7.4019,-7.3749,-7.3379,-7.3819,-7.4172,-7.4474,-7.5192,-7.5442,-7.5514,-7.5585,-7.5691,-7.5796,-7.5934,-7.6072,-7.6063,-7.5303,-7.4899,-7.4392,-7.3088,-7.2572,-7.2273,-7.1987,-7.2024,-7.2144,-7.2084,-7.1964,-7.178,-7.1557,-7.1175,-7.096,-7.1154,-7.1091,-7.1011,-7.1356,-7.1371,-7.149,-7.1979,-7.1971,-7.2066,-7.2474,-7.2464,-7.2429,-7.2232,-7.251,-7.2914,-7.351,-7.383,-7.4204,-7.4656,-7.4343,-7.4563,-7.5418,-7.5605,-7.6036,-7.6778,-7.7198,-7.7731,-7.8256,-7.8558,-7.8948,-7.9311,-7.9391,-7.9586,-4.8831,-4.9501,-5.0167,-5.1815,0.0,0.0,-5.5581,-5.7137,-5.8467,-5.9072,-6.0609,-6.2266,-6.3736,0.0,0.0,0.0,0.0,0.0,0.0,0.0,0.0,0.0,0.0,0.0,0.0,0.0,0.0,0.0,0.0,0.0,0.0,0.0,0.0,0.0,0.0,0.0,0.0,0.0,-7.9177,-7.8994,-7.8658,-7.8025,-7.7166,-7.6911,-7.651,-7.5999,-7.5999,-7.5498,-7.467,-7.4643,-7.4433,-7.4123,-7.4658,-7.4745,-7.4752,-7.551,-7.5798,-7.5798,-7.5868,-7.5901,-7.6003,-7.6072,-7.6208,-7.6203,-7.5659,-7.5334,-7.4899,-7.3776,-7.3088,-7.2581,-7.22,-7.2023,-7.1964,-7.1964,-7.1842,-7.1656,-7.1368,-7.1159,-7.1047,-7.1374,-7.1332,-7.1412,-7.1862,-7.1752,-7.1862,-7.2383,-7.2325,-7.2334,-7.2769,-7.2755,-7.274,-7.2777,-7.2932,-7.3275,-7.3651,-7.4033,-7.4447,-7.4965,-7.4787,-7.4923,-7.5574,-7.5846,-7.6392,-7.7284,-7.7735,-7.8125,-7.8372,-7.8822,-7.9069,-7.915,-7.915,-7.9373,-4.9013,-4.9815,-5.0836,0.0,0.0,0.0,-5.7584,-5.8179,-5.8799,-6.0461,-6.256,-6.4479,-6.5933,0.0,0.0,0.0,0.0,0.0,0.0,0.0,0.0,0.0,0.0,0.0,0.0,0.0,0.0,0.0,0.0,0.0,0.0,0.0,0.0,0.0,0.0,0.0,0.0,0.0,-8.0187,-7.9612,-7.9612,-7.9028,-7.8005,-7.7203,-7.6801,-7.6801,-7.6801,-7.6235,-7.5415,-7.5415,-7.4813,-7.3993,-7.4591,-7.4812,-7.4921,-7.558,-7.5798,-7.5798,-7.5971,-7.6003,-7.6003,-7.6208,-7.6275,-7.6275,-7.6275,-7.5732,-7.5116,-7.5116,-7.3957,-7.2726,-7.2726,-7.2273,-7.1816,-7.1816,-7.1656,-7.1404,-7.1045,-7.1323,-7.1481,-7.1196,-7.199,-7.2739,-7.2538,-7.2765,-7.3005,-7.3005,-7.2586,-7.2331,-7.2331,-7.2159,-7.2293,-7.3044,-7.3762,-7.424,-7.424,-7.4419,-7.4596,-7.4631,-7.5068,-7.5631,-7.614,-7.6454,-7.7082,-7.8098,-7.7893,-7.8165,-7.8906,-7.8657,-7.8741,-7.8906,-7.8906,-7.9411,-4.9597,-5.0882,0.0,0.0,0.0,0.0,0.0,-5.8783,0.0,0.0,-6.4317,-6.5823,-6.6774,0.0,0.0,0.0,0.0,0.0,0.0,0.0,0.0,0.0,0.0,0.0,0.0,0.0,0.0,0.0,0.0,0.0,0.0,0.0,0.0,0.0,0.0,0.0,0.0,0.0,0.0,-7.9999,-7.972,-7.8888,-7.7606,-7.7389,-7.6953,-7.6409,-7.6409,-7.63,-7.6016,-7.6016,-7.5871,-7.5623,-7.5774,-7.5882,-7.5882,-7.6068,-7.6176,-7.6176,-7.6244,-7.6208,-7.6208,-7.6275,-7.6275,-7.6275,-7.6275,-7.613,-7.5841,-7.5261,-7.479,-7.4283,-7.3704,-7.3378,-7.3007,-7.1847,-7.1902,-7.2106,-7.1709,-7.1976,-7.2263,-7.2312,-7.2345,-7.244,-7.2835,-7.2866,-7.2755,-7.2755,-7.2501,-7.233,-7.2615,-7.2858,-7.3085,-7.3413,-7.3525,-7.3898,-7.4441,-7.4935,-7.5356,-7.5869,-7.6568,-7.6851,-7.6601,-7.6852,-7.7368,-7.8389,-7.8424,-7.8447,-7.8657,-7.8657,-7.8939,-7.9501,-7.9501,-8.0091,-5.0271,0.0,0.0,0.0,0.0,0.0,-5.9174,0.0,0.0,0.0,0.0,0.0,0.0,0.0,0.0,0.0,0.0,0.0,0.0,0.0,0.0,0.0,0.0,0.0,0.0,0.0,0.0,0.0,0.0,0.0,0.0,0.0,0.0,0.0,0.0,0.0,0.0,0.0,0.0,0.0,-8.0005,-7.9396,-7.8309,-7.8122,-7.7543,-7.6746,-7.642,-7.6275,-7.6275,-7.6275,-7.6275,-7.6275,-7.6275,-7.6275,-7.6275,-7.6275,-7.6275,-7.6275,-7.6275,-7.6275,-7.6275,-7.6275,-7.6275,-7.6275,-7.6275,-7.6275,-7.6203,-7.5696,-7.537,-7.5008,-7.45,-7.4138,-7.3667,-7.269,-7.264,-7.2772,-7.2466,-7.2656,-7.2858,-7.2788,-7.2748,-7.2696,-7.2936,-7.2838,-7.2774,-7.3084,-7.3189,-7.322,-7.331,-7.3844,-7.4194,-7.4194,-7.4466,-7.4839,-7.5315,-7.5686,-7.6165,-7.6611,-7.7133,-7.7371,-7.7267,-7.7488,-7.7867,-7.8574,-7.8574,-7.8574,-7.8574,-7.8574,-7.8995,-7.9803,-7.9803,-8.045,0.0,0.0,0.0,0.0,0.0,0.0,0.0,0.0,0.0,0.0,0.0,0.0,0.0,0.0,0.0,0.0,0.0,0.0,0.0,0.0,0.0,0.0,0.0,0.0,0.0,0.0,0.0,0.0,0.0,0.0,0.0,0.0,0.0,0.0,0.0,0.0,0.0,0.0,0.0,0.0,0.0,-8.0222,-7.9684,-7.9103,-7.834,-7.747,-7.671,-7.6348,-7.6275,-7.6275,-7.6275,-7.6275,-7.6275,-7.6275,-7.6275,-7.6275,-7.6275,-7.6275,-7.6275,-7.6275,-7.6275,-7.6275,-7.6275,-7.6275,-7.6275,-7.6275,-7.6275,-7.6275,-7.5768,-7.5225,-7.5225,-7.4682,-7.4138,-7.4138,-7.3838,-7.3464,-7.3221,-7.3331,-7.3381,-7.2999,-7.3168,-7.3252,-7.3005,-7.2908,-7.3015,-7.3774,-7.4359,-7.4611,-7.4466,-7.4992,-7.547,-7.547,-7.6085,-7.6495,-7.6495,-7.6645,-7.6793,-7.6793,-7.7009,-7.7402,-7.7893,-7.8101,-7.8357,-7.8574,-7.8574,-7.8574,-7.8574,-7.8574,-7.903,-7.9908,-7.9908,-8.0716,0.0,-5.3087,0.0,0.0,0.0,0.0,0.0,0.0,0.0,0.0,0.0,0.0,0.0,0.0,0.0,0.0,0.0,0.0,0.0,0.0,0.0,0.0,0.0,0.0,0.0,0.0,0.0,0.0,0.0,0.0,0.0,0.0,0.0,0.0,0.0,0.0,0.0,0.0,0.0,0.0,-7.9899,-8.0135,-8.0294,-7.9864,-7.8847,-7.747,-7.7326,-7.6855,-7.6275,-7.6275,-7.6275,-7.6275,-7.6275,-7.6275,-7.6275,-7.6275,-7.6275,-7.6275,-7.6275,-7.6275,-7.6275,-7.6275,-7.6275,-7.6275,-7.6275,-7.6275,-7.6275,-7.6275,-7.6167,-7.6022,-7.6022,-7.5913,-7.5768,-7.5768,-7.5065,-7.429,-7.4115,-7.4223,-7.4193,-7.3807,-7.3552,-7.3252,-7.3005,-7.3322,-7.3723,-7.4306,-7.4974,-7.5365,-7.5219,-7.5777,-7.6256,-7.6256,-7.6392,-7.6495,-7.6495,-7.6645,-7.6793,-7.6793,-7.7009,-7.7402,-7.7893,-7.798,-7.8151,-7.8574,-7.8574,-7.8574,-7.8574,-7.8574,-7.9311,-8.0681,-8.0681,-8.1488,0.0,0.0,0.0,0.0,0.0,0.0,0.0,0.0,0.0,0.0,0.0,0.0,0.0,0.0,0.0,0.0,0.0,0.0,0.0,0.0,0.0,0.0,0.0,0.0,0.0,0.0,0.0,0.0,0.0,0.0,0.0,0.0,0.0,0.0,0.0,0.0,-7.8441,-7.8741,-7.9069,-7.9427,-7.9743,-8.013,-8.062,-8.0117,-7.9462,-7.8629,-7.8231,-7.7615,-7.6855,-7.6855,-7.6637,-7.6275,-7.6275,-7.6275,-7.6275,-7.6275,-7.6275,-7.6275,-7.6275,-7.6275,-7.6275,-7.6275,-7.6275,-7.6275,-7.6275,-7.6275,-7.6275,-7.6275,-7.6275,-7.6275,-7.6275,-7.6275,-7.6275,-7.6275,-7.5715,-7.5117,-7.494,-7.4757,-7.4441,-7.4088,-7.3737,-7.352,-7.3739,-7.4579,-7.5361,-7.5604,-7.6295,-7.6691,-7.6602,-7.6947,-7.7189,-7.7189,-7.7189,-7.7189,-7.7189,-7.7278,-7.7367,-7.7367,-7.7402,-7.7579,-7.7893,-7.7841,-7.8015,-7.8574,-7.8574,-7.8574,-7.8574,-7.896,-7.9768,-8.0926,-8.1313,-8.2085,0.0,0.0,0.0,0.0,0.0,0.0,0.0,0.0,0.0,0.0,0.0,0.0,0.0,0.0,0.0,0.0,0.0,0.0,0.0,0.0,0.0,0.0,0.0,0.0,0.0,0.0,0.0,0.0,0.0,0.0,0.0,0.0,0.0,0.0,0.0,0.0,-7.8186,-7.8657,-7.8987,-7.915,-7.9665,-8.0207,-8.073,-8.0262,-7.9971,-7.9861,-7.9209,-7.8448,-7.7688,-7.7543,-7.7108,-7.6492,-7.6348,-7.6275,-7.6275,-7.6275,-7.6275,-7.6275,-7.6275,-7.6275,-7.6275,-7.6275,-7.6275,-7.6275,-7.6275,-7.6275,-7.6275,-7.6275,-7.6275,-7.6275,-7.6275,-7.6275,-7.6275,-7.6275,-7.6039,-7.5727,-7.5585,-7.5042,-7.4517,-7.4132,-7.4036,-7.4066,-7.4809,-7.5944,-7.6814,-7.6954,-7.751,-7.7893,-7.7893,-7.7893,-7.7893,-7.7893,-7.7893,-7.7893,-7.7893,-7.7893,-7.7893,-7.7893,-7.7667,-7.7667,-7.7893,-7.7667,-7.7841,-7.849,-7.849,-7.849,-7.8525,-7.9297,-8.0189,-8.0926,-8.1734,-8.2506,0.0,0.0,0.0,0.0,0.0,0.0,0.0,0.0,0.0,0.0,0.0,0.0,0.0,0.0,0.0,0.0,0.0,0.0,0.0,0.0,0.0,0.0,0.0,0.0,0.0,0.0,0.0,0.0,0.0,0.0,0.0,0.0,0.0,0.0,0.0,0.0,-7.798,-7.8406,-7.8741,-7.8987,-7.9586,-8.013,-8.0508,-8.0622,-8.0406,-7.9897,-7.9788,-7.9281,-7.8484,-7.7796,-7.7434,-7.7253,-7.6565,-7.6275,-7.6275,-7.6275,-7.6275,-7.6275,-7.6275,-7.6275,-7.6275,-7.6275,-7.6275,-7.6275,-7.6275,-7.6275,-7.6275,-7.6275,-7.6275,-7.6275,-7.6275,-7.6275,-7.6275,-7.6275,-7.6039,-7.5798,-7.5727,-7.5262,-7.4819,-7.4517,-7.4581,-7.5043,-7.6307,-7.664,-7.7023,-7.765,-7.7858,-7.7893,-7.7893,-7.7893,-7.7893,-7.7893,-7.7893,-7.7893,-7.7893,-7.7893,-7.7893,-7.7893,-7.7667,-7.7667,-7.7893,-7.7667,-7.7754,-7.798,-7.798,-7.8101,-7.8357,-7.9126,-7.9983,-8.0926,-8.1734,-8.2506,0.0,0.0,0.0,0.0,0.0,0.0,0.0,0.0,0.0,0.0,0.0,0.0,0.0,0.0,0.0,0.0,0.0,0.0,0.0,0.0,0.0,0.0,0.0,0.0,0.0,0.0,0.0,0.0,0.0,0.0,0.0,-7.7223,-7.7223,-7.7223,-7.7667,0.0,-7.7893,-7.8322,-7.8741,-7.9069,-7.9665,-8.013,-8.0508,-8.073,-8.0695,-8.0585,-8.0585,-8.0114,-7.9354,-7.8992,-7.8593,-7.8086,-7.7289,-7.6963,-7.6927,-7.6456,-7.6275,-7.6275,-7.6275,-7.6275,-7.6275,-7.6275,-7.6275,-7.6275,-7.6275,-7.6601,-7.6963,-7.6963,-7.7289,-7.7543,-7.7072,-7.6963,-7.6855,-7.6384,-7.6364,-7.6445,-7.6445,-7.5656,-7.4926,-7.5006,-7.5829,-7.6643,-7.7263,-7.7719,-7.8104,-7.8587,-7.8657,-7.8574,-7.8455,-7.849,-7.8406,-7.8322,-7.8322,-7.8322,-7.8322,-7.8322,-7.8322,-7.8322,-7.8101,-7.7928,-7.7893,-7.7667,-7.7579,-7.749,-7.7719,-7.798,-7.8101,-7.9287,-8.0142,-8.0753,-8.198,-8.2804,0.0,0.0,0.0,0.0,0.0,0.0,0.0,0.0,0.0,0.0,0.0,0.0,0.0,0.0,0.0,0.0,0.0,0.0,0.0,0.0,0.0,0.0,0.0,0.0,0.0,0.0,0.0,0.0,0.0,0.0,0.0,-7.7313,-7.7313,-7.7313,-7.7667,-7.7893,-7.7893,-7.8322,-7.8741,-7.915,-7.955,-7.9977,-8.0358,-8.0582,-8.0803,-8.1057,-8.1128,-8.0766,-8.0187,-8.0006,-7.9571,-7.8919,-7.8122,-7.7796,-7.7724,-7.7108,-7.6891,-7.6855,-7.6674,-7.6746,-7.6855,-7.6674,-7.6746,-7.6891,-7.6891,-7.7326,-7.7796,-7.7796,-7.8231,-7.8557,-7.7941,-7.7796,-7.7651,-7.7036,-7.7086,-7.7164,-7.7056,-7.6262,-7.5636,-7.6073,-7.7126,-7.7929,-7.814,-7.8599,-7.9069,-7.915,-7.9231,-7.915,-7.8987,-7.8987,-7.8823,-7.8657,-7.8657,-7.8574,-7.8574,-7.8574,-7.8574,-7.8574,-7.8441,-7.8186,-7.7893,-7.7667,-7.7594,-7.7534,-7.7856,-7.8032,-7.8119,-7.9475,-8.033,-8.0805,-8.2257,-8.2976,0.0,0.0,0.0,0.0,0.0,0.0,0.0,0.0,0.0,0.0,0.0,0.0,0.0,0.0,0.0,0.0,0.0,0.0,0.0,0.0,0.0,0.0,0.0,0.0,0.0,0.0,0.0,0.0,0.0,0.0,-7.7579,-7.7613,-7.7613,-7.7613,-7.7754,-7.7893,-7.7893,-7.8322,-7.8741,-7.887,-7.915,-7.9471,-7.9899,-8.0358,-8.0656,-8.0803,-8.1021,-8.1092,-8.0984,-8.0223,-7.9897,-7.9752,-7.8955,-7.8629,-7.8629,-7.8593,-7.8593,-7.8484,-7.7688,-7.7941,-7.8448,-7.7688,-7.7941,-7.8593,-7.8593,-7.8593,-7.8629,-7.8629,-7.8666,-7.8702,-7.8666,-7.8629,-7.8629,-7.8593,-7.8313,-7.7918,-7.7512,-7.725,-7.7311,-7.8093,-7.8185,-7.831,-7.9054,-7.9115,-7.9231,-7.9231,-7.9231,-7.9231,-7.9231,-7.9069,-7.8906,-7.8906,-7.8741,-7.8574,-7.8574,-7.8574,-7.8574,-7.8574,-7.8441,-7.8186,-7.7893,-7.7667,-7.7871,-7.8327,-7.8327,-7.8508,-7.8653,-7.945,-8.0393,-8.1304,-8.2412,-8.2886,0.0,0.0,0.0,0.0,0.0,0.0,0.0,0.0,0.0,0.0,0.0,0.0,0.0,0.0,0.0,0.0,0.0,0.0,0.0,0.0,0.0,0.0,0.0,0.0,0.0,0.0,0.0,0.0,0.0,0.0,-7.6588,-7.7071,-7.7313,-7.7313,-7.7579,-7.7841,-7.8186,-7.8357,-7.8574,-7.887,-7.915,-7.9471,-7.9899,-8.0283,-8.0582,-8.0803,-8.1021,-8.1128,-8.1092,-8.0802,-8.0694,-8.0585,-7.9788,-7.9462,-7.9426,-7.8883,-7.8702,-7.8666,-7.8376,-7.8448,-7.8666,-7.8376,-7.8484,-7.8702,-7.8702,-7.9064,-7.9462,-7.9462,-7.9861,-8.0114,-7.9607,-7.9462,-7.9392,-7.9179,-7.889,-7.8738,-7.9012,-7.8574,-7.8212,-7.8342,-7.8725,-7.9187,-7.9391,-7.9427,-7.9507,-7.9665,-7.9665,-7.9586,-7.9507,-7.9427,-7.9231,-7.8987,-7.8823,-7.8741,-7.8574,-7.8574,-7.8574,-7.8574,-7.8525,-7.8567,-7.8885,-7.8833,-7.8954,-7.9359,-7.9359,-7.9268,-7.9212,-7.9937,-8.064,-8.1157,-8.1956,-8.2488,-5.5623,0.0,0.0,0.0,0.0,0.0,0.0,0.0,0.0,0.0,0.0,0.0,0.0,0.0,0.0,0.0,0.0,0.0,0.0,0.0,0.0,0.0,0.0,0.0,0.0,0.0,0.0,0.0,0.0,0.0,-7.5793,-7.6518,-7.7036,-7.7313,-7.7525,-7.7789,-7.8015,-7.8186,-7.8441,-7.8741,-7.9069,-7.9391,-7.9665,-8.0207,-8.0508,-8.073,-8.0876,-8.1057,-8.1128,-8.1128,-8.1128,-8.1056,-8.0513,-8.0295,-8.0259,-7.9716,-7.9499,-7.9462,-7.9209,-7.9281,-7.9462,-7.9209,-7.9281,-7.9499,-7.9499,-7.9826,-8.0224,-8.0224,-8.0551,-8.0768,-8.0226,-8.0081,-8.0009,-7.9717,-7.9494,-7.9486,-7.9792,-7.9471,-7.9079,-7.896,-7.9309,-7.97,-7.97,-7.97,-7.9779,-7.9899,-8.0149,-8.0214,-8.0171,-8.0226,-8.0126,-7.9846,-7.9681,-7.9515,-7.9382,-7.9382,-7.9382,-7.9382,-7.9382,-7.9507,-7.9775,-7.981,-7.9984,-8.0212,-8.0247,-8.0294,-8.0293,-8.05,-8.0835,-8.1297,-8.1782,-8.2488,0.0,0.0,0.0,0.0,0.0,0.0,0.0,0.0,0.0,0.0,0.0,0.0,0.0,0.0,0.0,0.0,0.0,0.0,0.0,0.0,0.0,0.0,0.0,0.0,0.0,0.0,0.0,0.0,0.0,0.0,-7.5223,-7.5985,-7.6712,-7.7509,-7.7544,-7.7579,-7.7579,-7.8015,-7.8272,-7.8272,-7.8906,-7.9231,-7.9231,-7.9864,-8.0283,-8.0508,-8.073,-8.0876,-8.1128,-8.1128,-8.1128,-8.1128,-8.1128,-8.1128,-8.1128,-8.1128,-8.1128,-8.0984,-8.0223,-8.0476,-8.0984,-8.0187,-8.0476,-8.1092,-8.1092,-8.0948,-8.0803,-8.0803,-8.0656,-8.0508,-8.0508,-8.0508,-8.0433,-8.0207,-8.0207,-8.013,-7.9899,-7.9899,-7.9899,-7.9899,-7.9899,-7.9899,-7.9899,-7.9935,-7.9935,-7.9935,-8.0613,-8.1113,-8.1113,-8.1353,-8.1568,-8.1568,-8.1183,-8.0926,-8.0926,-8.0926,-8.0926,-8.0926,-8.0926,-8.084,-8.0701,-8.0614,-8.0787,-8.1101,-8.1009,-8.1297,-8.181,-8.1017,-8.1052,-8.181,-8.1965,-8.3043,-5.5648,0.0,0.0,0.0,0.0,0.0,0.0,0.0,0.0,0.0,0.0,0.0,0.0,0.0,0.0,0.0,0.0,0.0,0.0,0.0,0.0,0.0,0.0,0.0,0.0,0.0,0.0,0.0,0.0,-7.3963,-7.417,-7.493,-7.5448,-7.5655,-7.6208,-7.6572,-7.6747,-7.7563,-7.8101,-7.8272,-7.8906,-7.9231,-7.9231,-7.9864,-8.0283,-8.0508,-8.073,-8.0876,-8.1128,-8.1128,-8.1128,-8.1128,-8.1128,-8.1128,-8.1128,-8.1128,-8.1128,-8.1092,-8.0875,-8.0911,-8.1056,-8.0839,-8.084,-8.0876,-8.0876,-8.073,-8.0582,-8.0582,-8.0508,-8.0508,-8.0508,-8.0358,-8.0283,-8.0207,-8.0054,-7.9977,-7.9899,-7.9899,-7.9899,-7.9899,-7.9899,-7.9899,-7.9899,-8.0399,-8.0756,-8.0756,-8.1398,-8.1898,-8.1898,-8.1871,-8.1768,-8.1603,-8.1317,-8.1063,-8.0926,-8.0926,-8.0926,-8.0926,-8.0926,-8.1172,-8.1647,-8.1682,-8.1856,-8.2356,-8.2174,-8.2095,-8.2059,-8.1663,-8.1569,-8.181,-8.1905,-8.2855,-5.6069,-5.5753,-5.5613,-5.6034,0.0,0.0,0.0,0.0,0.0,0.0,0.0,0.0,0.0,0.0,0.0,0.0,0.0,0.0,0.0,0.0,0.0,0.0,0.0,0.0,0.0,0.0,0.0,0.0,-7.2877,-7.3464,-7.3774,-7.4223,-7.4602,-7.4912,-7.5361,-7.569,-7.5777,-7.6886,-7.7527,-7.7732,-7.8682,-7.915,-7.9231,-7.9743,-8.013,-8.0358,-8.0508,-8.0656,-8.0876,-8.0876,-8.0948,-8.1128,-8.1128,-8.1128,-8.1128,-8.1128,-8.1128,-8.1128,-8.1021,-8.0948,-8.0948,-8.0876,-8.073,-8.0656,-8.0656,-8.0508,-8.0358,-8.0358,-8.0283,-8.0283,-8.0283,-8.013,-8.0054,-8.0054,-7.9977,-7.9899,-7.9899,-8.0185,-8.0292,-7.9971,-8.0185,-8.0399,-8.0206,-8.0883,-8.1417,-8.1337,-8.1978,-8.244,-8.244,-8.2513,-8.2559,-8.2475,-8.222,-8.1961,-8.1874,-8.1874,-8.1874,-8.1874,-8.1874,-8.2085,-8.2541,-8.2541,-8.2699,-8.2886,-8.267,-8.2303,-8.1965,-8.1905,-8.181,-8.181,-8.2121,-8.2976,-5.6631,-5.6139,-5.5613,-5.5543,-5.6069,0.0,-5.7509,-5.8878,0.0,0.0,0.0,0.0,0.0,0.0,0.0,0.0,0.0,0.0,0.0,0.0,0.0,0.0,0.0,0.0,0.0,0.0,0.0,-7.136,-7.2119,-7.2877,-7.3636,-7.3671,-7.3981,-7.4671,-7.4774,-7.4809,-7.4809,-7.6002,-7.671,-7.6814,-7.8118,-7.8882,-7.9231,-7.9507,-7.9822,-8.0207,-8.0207,-8.0283,-8.0508,-8.0508,-8.073,-8.1021,-8.1021,-8.1021,-8.1021,-8.1021,-8.1021,-8.1057,-8.0803,-8.0802,-8.0874,-8.0726,-8.0688,-8.0685,-8.0685,-8.0609,-8.0381,-8.0381,-8.0268,-8.0042,-8.0042,-7.9971,-7.9899,-7.9899,-7.9899,-7.9935,-8.0006,-8.0577,-8.0899,-8.0214,-8.072,-8.1141,-8.083,-8.1424,-8.1875,-8.1745,-8.2382,-8.2842,-8.2842,-8.3309,-8.3595,-8.3595,-8.342,-8.3208,-8.3208,-8.3208,-8.3208,-8.3208,-8.3208,-8.3208,-8.3208,-8.3208,-8.312,-8.2976,-8.267,-8.2211,-8.181,-8.181,-8.1845,-8.1948,-8.2604,-8.3362,-5.6947,-5.649,-5.6245,-5.5648,-5.6069,0.0,-5.6806,-5.807,0.0,0.0,0.0,0.0,0.0,0.0,0.0,0.0,0.0,0.0,0.0,0.0,0.0,0.0,0.0,0.0,0.0,0.0,0.0,-7.0601,-7.1291,-7.205,-7.2843,-7.2877,-7.2946,-7.3119,-7.3705,-7.4016,-7.4016,-7.5169,-7.6153,-7.678,-7.7626,-7.8387,-7.9231,-7.9507,-7.9822,-8.0207,-8.0207,-8.0283,-8.0508,-8.0508,-8.0508,-8.0582,-8.0582,-8.0582,-8.0582,-8.0582,-8.0582,-8.0582,-8.0582,-8.1014,-8.1554,-8.1479,-8.1722,-8.2147,-8.2147,-8.1991,-8.1834,-8.1834,-8.1327,-8.0863,-8.0863,-8.0399,-7.9899,-7.9899,-7.9899,-8.0078,-8.072,-8.0812,-8.0946,-8.1363,-8.1657,-8.1683,-8.1473,-8.2076,-8.2488,-8.2488,-8.3161,-8.3656,-8.3656,-8.3662,-8.3595,-8.3595,-8.342,-8.3208,-8.3208,-8.3208,-8.3208,-8.3208,-8.3208,-8.3208,-8.3208,-8.3208,-8.3208,-8.312,-8.2761,-8.2211,-8.181,-8.181,-8.2121,-8.2707,-8.2845,-8.3638,-5.8123,-5.7253,-5.6526,-5.6139,0.0,0.0,0.0,-5.7228,0.0,0.0,0.0,0.0,0.0,0.0,0.0,0.0,0.0,0.0,0.0,0.0,0.0,0.0,0.0,0.0,0.0,0.0,-6.9566,-7.0325,-7.0739,-7.1291,-7.205,-7.2084,-7.2257,-7.2671,-7.305,-7.3307,-7.3392,-7.449,-7.5332,-7.5798,-7.6982,-7.7954,-7.8665,-7.9134,-7.9665,-8.0054,-8.0054,-8.013,-8.0207,-8.0207,-8.0207,-8.0207,-8.0433,-8.0508,-8.0544,-8.0975,-8.1119,-8.1155,-8.1363,-8.1758,-8.2117,-8.1962,-8.2135,-8.2342,-8.2342,-8.2263,-8.2183,-8.2183,-8.1933,-8.1648,-8.1648,-8.1362,-8.1041,-8.1041,-8.1041,-8.1148,-8.1417,-8.1728,-8.1957,-8.2099,-8.2488,-8.263,-8.2072,-8.2637,-8.3082,-8.296,-8.3277,-8.3559,-8.3559,-8.3472,-8.342,-8.342,-8.3297,-8.3208,-8.3208,-8.3208,-8.3208,-8.3208,-8.3208,-8.3208,-8.3208,-8.3208,-8.312,-8.3031,-8.267,-8.2303,-8.1965,-8.225,-8.2535,-8.2914,-8.3707,-8.4466,-5.9329,-5.8184,0.0,0.0,0.0,-5.5883,0.0,0.0,0.0,0.0,0.0,0.0,0.0,0.0,0.0,0.0,0.0,0.0,0.0,0.0,0.0,0.0,0.0,0.0,0.0,0.0,0.0,-6.9842,-6.9946,-7.0325,-7.1222,-7.1339,-7.1719,-7.2513,-7.2548,-7.2783,-7.3088,-7.3926,-7.4508,-7.4811,-7.6316,-7.7379,-7.8098,-7.8735,-7.9329,-7.9899,-7.9899,-7.9899,-7.9899,-7.9899,-7.9899,-7.9899,-8.0283,-8.0466,-8.0681,-8.1327,-8.165,-8.1866,-8.2284,-8.2528,-8.2671,-8.2513,-8.254,-8.2647,-8.2647,-8.2647,-8.2647,-8.2647,-8.254,-8.2433,-8.2433,-8.2326,-8.2183,-8.2183,-8.2219,-8.2174,-8.2155,-8.256,-8.2891,-8.2693,-8.3136,-8.3296,-8.2662,-8.3085,-8.342,-8.3208,-8.3208,-8.3208,-8.3208,-8.3208,-8.3208,-8.3208,-8.3208,-8.3208,-8.3208,-8.3208,-8.3208,-8.3208,-8.3208,-8.3208,-8.3208,-8.3208,-8.312,-8.2886,-8.267,-8.2396,-8.2118,-8.2768,-8.3121,-8.3156,-8.4535,-8.5294,0.0,0.0,0.0,0.0,-5.6975,0.0,0.0,0.0,0.0,0.0,0.0,0.0,0.0,0.0,0.0,0.0,0.0,0.0,0.0,0.0,0.0,0.0,0.0,0.0,0.0,0.0,0.0,0.0,-6.8359,-6.898,-7.0429,-7.0661,-7.1203,-7.2,-7.2163,-7.2557,-7.3252,-7.3601,-7.4147,-7.4811,-7.5194,-7.6323,-7.8098,-7.8169,-7.8832,-7.9899,-7.9899,-7.9899,-7.9899,-7.9899,-7.9899,-7.9899,-7.9977,-8.0405,-8.1048,-8.112,-8.1584,-8.2156,-8.2263,-8.2647,-8.3334,-8.3254,-8.3753,-8.436,-8.436,-8.436,-8.436,-8.436,-8.3825,-8.3254,-8.3254,-8.2718,-8.2183,-8.2183,-8.2058,-8.2074,-8.2821,-8.27,-8.2693,-8.3348,-8.335,-8.3173,-8.3103,-8.3138,-8.3208,-8.3208,-8.3208,-8.3208,-8.3208,-8.3208,-8.3208,-8.3208,-8.3208,-8.3208,-8.3208,-8.3208,-8.3208,-8.3208,-8.3208,-8.3208,-8.3208,-8.3208,-8.312,-8.2886,-8.267,-8.2396,-8.2118,-8.3286,-8.388,-8.3914,-8.4777,-8.5535,0.0,0.0,0.0,0.0,0.0,0.0,-5.7294,0.0,-5.6988,0.0,0.0,0.0,0.0,0.0,0.0,0.0,0.0,0.0,0.0,0.0,0.0,0.0,0.0,0.0,0.0,0.0,0.0,0.0,0.0,-6.799,-6.914,-6.9738,-7.0486,-7.133,-7.1896,-7.244,-7.2833,-7.3447,-7.3912,-7.4307,-7.4967,-7.5768,-7.6788,-7.7831,-7.8633,-7.9221,-7.9721,-7.9899,-7.9899,-7.9899,-7.9899,-7.9971,-8.0399,-8.0791,-8.122,-8.2112,-8.2611,-8.2968,-8.3432,-8.3825,-8.411,-8.411,-8.4242,-8.4445,-8.4445,-8.4361,-8.4158,-8.4158,-8.4112,-8.3946,-8.3946,-8.3779,-8.3611,-8.3447,-8.3365,-8.3306,-8.3373,-8.3187,-8.312,-8.335,-8.3297,-8.3208,-8.3208,-8.3208,-8.3208,-8.3208,-8.3208,-8.3208,-8.3208,-8.3208,-8.3208,-8.3208,-8.3208,-8.3208,-8.3208,-8.3208,-8.3208,-8.3208,-8.3208,-8.3208,-8.3208,-8.3208,-8.312,-8.3031,-8.2851,-8.2579,-8.2303,-8.3132,-8.3701,-8.4052,-8.5259,-8.6018,-6.2781,0.0,0.0,0.0,0.0,0.0,0.0,0.0,0.0,0.0,0.0,0.0,0.0,0.0,-5.634,-5.634,0.0,0.0,0.0,0.0,0.0,0.0,0.0,0.0,0.0,0.0,0.0,0.0,0.0,0.0,-6.7738,-6.8613,-6.9532,-7.0453,-7.1334,-7.2005,-7.2582,-7.3142,-7.3685,-7.4088,-7.4773,-7.5395,-7.5909,-7.7376,-7.8319,-7.8722,-7.9543,-7.9899,-7.9899,-7.9899,-8.0042,-8.0328,-8.1077,-8.1541,-8.1862,-8.2968,-8.3539,-8.3825,-8.4396,-8.461,-8.461,-8.461,-8.4445,-8.4278,-8.4278,-8.4109,-8.3904,-8.3904,-8.4074,-8.4194,-8.4194,-8.4278,-8.4361,-8.4194,-8.4109,-8.4025,-8.3682,-8.3508,-8.342,-8.3208,-8.3208,-8.3208,-8.3208,-8.3208,-8.3208,-8.3208,-8.3208,-8.3208,-8.3208,-8.3208,-8.3208,-8.3208,-8.3208,-8.3208,-8.3208,-8.3208,-8.3208,-8.3208,-8.3208,-8.3208,-8.3208,-8.3208,-8.3208,-8.3208,-8.2976,-8.2796,-8.2579,-8.3102,-8.3573,-8.3839,-8.5294,-8.6122,0.0,0.0,0.0,-6.1709,0.0,0.0,0.0,0.0,-5.8436,0.0,0.0,0.0,0.0,-5.6352,-5.5742,-5.5742,-5.5602,0.0,0.0,0.0,0.0,0.0,0.0,0.0,0.0,0.0,0.0,0.0,-6.385,0.0,-6.6145,-6.7352,-6.8343,-6.9148,-7.0033,-7.1307,-7.2781,-7.2816,-7.328,-7.4287,-7.4322,-7.4942,-7.6138,-7.6884,-7.7743,-7.8722,-7.9543,-7.9899,-7.9899,-7.9899,-8.0363,-8.1148,-8.1862,-8.2647,-8.3325,-8.3361,-8.3896,-8.4574,-8.461,-8.461,-8.461,-8.461,-8.4445,-8.4278,-8.4278,-8.4109,-8.3904,-8.3904,-8.3904,-8.3904,-8.3904,-8.3904,-8.3904,-8.3904,-8.3733,-8.3595,-8.3595,-8.342,-8.3208,-8.3208,-8.3208,-8.3208,-8.3208,-8.3208,-8.3208,-8.3208,-8.3208,-8.3208,-8.3208,-8.3208,-8.3208,-8.3208,-8.3208,-8.3208,-8.3208,-8.3208,-8.3208,-8.3208,-8.3208,-8.3208,-8.3208,-8.3208,-8.3208,-8.3208,-8.2976,-8.2886,-8.2886,-8.3346,-8.3449,-8.34,-8.4633,-8.5639,0.0,0.0,-6.5226,-6.4088,0.0,0.0,0.0,0.0,0.0,0.0,0.0,0.0,0.0,-5.6914,-5.648,-5.5892,-5.5283,-5.4838,0.0,0.0,0.0,0.0,0.0,0.0,0.0,0.0,0.0,-6.067,-6.2678,0.0,0.0,-6.6348,-6.7578,-6.8495,-6.9376,-7.0328,-7.1497,-7.2519,-7.3264,-7.3663,-7.4421,-7.4886,-7.532,-7.6253,-7.7112,-7.7937,-7.8757,-7.94,-7.9899,-7.9899,-8.0363,-8.1184,-8.1898,-8.2683,-8.3432,-8.4003,-8.436,-8.461,-8.461,-8.461,-8.461,-8.4445,-8.4278,-8.3989,-8.3854,-8.3682,-8.3472,-8.3472,-8.3559,-8.3682,-8.3682,-8.3819,-8.3904,-8.3768,-8.3682,-8.3508,-8.342,-8.3297,-8.3208,-8.3208,-8.3208,-8.3208,-8.3208,-8.3208,-8.3208,-8.3208,-8.3208,-8.3208,-8.3208,-8.3208,-8.3208,-8.3208,-8.3208,-8.3208,-8.3208,-8.3208,-8.3208,-8.3208,-8.3208,-8.3208,-8.3208,-8.3208,-8.3208,-8.3208,-8.312,-8.3031,-8.2886,-8.304,-8.3241,-8.3543,-8.3815,-8.4558,-6.8291,-6.7714,0.0,0.0,-6.5455,0.0,-6.3716,0.0,0.0,0.0,0.0,0.0,0.0,-5.7868,-5.7043,-5.6454,-5.5631,-5.4847,0.0,-5.3282,0.0,0.0,0.0,0.0,0.0,0.0,-5.8351,-5.9317,-6.1293,-6.2892,0.0,0.0,-6.653,-6.776,-6.8641,-6.9593,-7.0796,-7.1893,-7.2784,-7.3499,-7.4145,-7.4684,-7.5078,-7.5936,-7.6795,-7.7544,-7.8329,-7.915,-7.9935,-8.0221,-8.0791,-8.1577,-8.2326,-8.3111,-8.3896,-8.4431,-8.461,-8.461,-8.461,-8.4788,-8.4955,-8.4788,-8.4677,-8.4683,-8.4176,-8.3807,-8.3595,-8.3279,-8.3297,-8.342,-8.342,-8.3559,-8.3646,-8.3508,-8.342,-8.342,-8.3208,-8.3208,-8.3208,-8.3208,-8.3208,-8.3208,-8.3208,-8.3208,-8.3208,-8.3208,-8.3208,-8.3208,-8.3208,-8.3208,-8.3208,-8.3208,-8.3208,-8.3208,-8.3208,-8.3208,-8.3208,-8.3208,-8.3208,-8.3208,-8.3208,-8.3208,-8.3208,-8.3208,-8.3208,-8.312,-8.2976,-8.2976,-8.3131,-8.3311,-8.3439,-8.3815]}]]